GFSMA_sfc_wetblb_000.txt.gz
Wetbulb
56.31 56.34 55.65 55.09 54.36 54.00 54.65 54.35 55.79 55.06 53.47 54.43 53.80 52.27 50.96 49.85 50.04 50.71 50.81 58.30 61.52 62.17 62.23 61.76 61.42 61.63 62.19 63.71 64.65 64.78 64.84 64.99 65.07 66.09 66.61 66.33 65.45 65.56 65.78 65.37 65.83 65.69 65.78
56.46 56.12 54.93 54.96 54.84 54.88 54.61 53.50 52.98 52.77 53.11 53.45 53.69 53.16 51.62 49.79 49.14 49.85 50.69 51.19 59.56 60.88 61.69 61.30 61.36 61.24 61.31 62.00 63.23 64.13 63.89 64.28 64.22 65.23 65.81 65.47 65.00 65.22 65.13 65.05 65.43 65.45 65.29
55.71 55.04 53.45 52.95 53.94 54.86 54.19 53.71 53.24 53.11 52.92 53.32 52.80 53.65 53.19 52.19 49.83 49.60 50.07 50.93 52.55 58.64 59.22 60.64 61.66 61.68 61.20 60.79 62.08 63.08 63.73 63.56 63.85 63.85 64.88 64.90 64.56 64.81 64.44 64.34 65.12 65.28 65.21
54.34 52.90 52.07 51.66 52.73 52.81 52.33 51.82 52.21 51.90 50.98 50.62 50.69 51.32 52.19 52.20 51.46 50.57 50.27 50.19 51.26 52.37 55.88 58.51 59.68 60.59 61.26 60.42 60.10 60.88 62.01 62.71 62.55 62.66 63.89 63.99 64.00 64.22 64.66 64.64 64.75 64.40 64.48
54.07 51.89 50.77 50.99 51.90 50.78 49.96 49.90 49.64 49.89 48.69 48.06 48.92 48.16 49.13 50.30 50.96 52.90 51.02 50.53 49.56 51.58 50.86 54.28 57.41 58.20 59.66 60.75 60.18 60.44 60.93 60.85 60.79 61.31 62.01 62.86 63.00 63.64 63.88 64.10 64.09 63.91 64.00
51.25 50.17 50.11 50.13 50.20 48.89 47.59 47.36 46.63 46.88 46.89 46.59 48.80 47.79 47.08 48.52 49.21 49.23 50.27 51.53 51.30 51.03 50.46 49.72 49.06 54.21 57.16 59.35 60.67 59.76 60.00 60.21 60.29 60.32 60.48 61.01 61.80 62.09 63.07 63.61 63.26 63.62 63.67
51.01 49.65 48.73 48.95 48.43 47.01 46.10 45.95 45.81 45.41 45.51 45.63 44.15 45.63 44.72 46.04 46.40 46.70 48.18 47.81 48.79 48.24 48.10 48.94 49.75 49.36 51.59 57.45 59.69 59.25 59.12 59.62 59.74 59.64 59.34 60.35 60.41 60.81 61.41 62.19 63.04 62.89 63.40
49.49 49.14 47.05 46.10 46.62 45.48 44.70 44.34 44.82 43.90 44.30 44.63 42.80 42.35 39.75 43.39 42.53 45.00 45.40 45.28 44.76 46.05 47.19 48.08 48.82 49.57 48.92 49.45 53.60 58.37 58.70 58.82 58.91 58.88 59.67 59.06 59.00 59.66 59.60 59.39 60.14 61.52 62.19
47.24 46.31 45.58 45.52 45.03 44.76 43.64 43.45 43.86 43.34 42.22 43.11 43.49 42.10 38.46 36.57 38.92 42.29 42.25 41.10 41.23 41.82 43.80 46.39 46.76 47.09 49.53 47.45 48.71 51.86 55.36 55.99 58.35 59.28 59.05 58.26 56.68 56.20 57.95 58.22 58.57 58.90 59.73
45.66 45.57 44.85 44.60 44.36 44.10 42.69 43.01 44.99 42.88 42.40 40.88 42.02 43.78 41.20 39.86 37.80 36.65 38.56 40.69 40.45 40.96 40.52 42.70 42.19 44.50 50.09 49.84 49.70 49.47 49.53 50.78 53.90 56.90 57.59 55.80 54.76 54.71 55.55 56.77 58.01 58.12 58.02
44.30 43.95 43.71 43.36 43.27 43.04 42.15 41.89 42.42 41.64 41.71 40.72 40.24 40.04 39.30 38.79 40.81 36.96 33.47 35.47 38.51 38.97 39.91 39.88 40.34 43.35 45.81 49.87 49.39 49.18 48.70 48.11 49.08 52.11 52.49 52.59 52.91 53.69 54.16 54.87 56.63 57.56 57.36
42.43 42.69 43.07 41.49 40.59 40.69 40.27 39.94 39.18 39.49 38.78 38.52 38.09 38.47 38.17 36.80 35.76 35.22 35.37 35.14 34.63 36.73 37.76 38.63 38.96 40.79 42.39 46.09 50.09 49.10 48.27 47.54 47.85 48.58 49.94 51.38 52.50 52.99 53.25 53.95 54.97 55.96 57.26
41.89 41.40 41.04 40.43 39.92 39.91 39.39 38.79 38.06 37.41 38.05 37.47 37.33 38.03 38.20 37.58 37.51 36.87 36.19 35.45 34.18 35.72 34.74 36.90 38.36 38.19 42.20 42.34 45.70 48.69 48.50 46.85 47.22 47.84 48.35 48.34 49.02 50.18 50.49 51.81 53.94 55.48 55.61
40.34 40.72 40.37 39.93 39.48 39.37 38.48 37.69 36.77 36.38 36.40 35.57 34.69 35.25 35.63 35.86 35.83 35.44 36.66 34.89 32.38 33.84 34.18 33.28 35.69 37.15 38.58 40.79 43.42 46.92 47.02 46.31 46.35 46.35 46.06 46.76 47.13 47.65 46.66 46.78 47.86 50.32 52.12
41.49 39.59 39.25 38.09 38.02 37.61 37.53 37.23 35.35 34.82 34.32 33.94 33.67 33.88 34.25 35.18 35.44 36.64 38.21 35.54 32.54 28.84 30.94 32.09 32.62 36.82 37.60 38.54 40.61 42.13 43.39 46.21 45.71 44.67 44.63 45.57 46.52 47.12 45.27 45.04 45.31 46.19 47.77
39.63 38.78 37.49 36.79 36.89 36.67 36.17 36.15 34.92 34.37 33.85 33.49 34.53 33.43 33.33 34.19 34.60 35.45 36.19 36.63 34.63 32.72 29.51 33.13 33.98 35.10 37.02 38.31 40.13 39.82 41.92 44.42 45.06 44.16 43.46 44.24 43.82 45.83 45.09 44.21 44.37 44.95 44.94
39.58 39.68 38.45 36.60 35.39 34.70 34.04 33.00 33.54 34.18 33.81 32.24 31.31 30.21 29.75 30.06 29.43 29.98 30.89 32.46 33.84 34.75 31.42 31.68 33.64 32.95 32.21 32.74 34.94 36.40 40.02 39.94 42.70 43.26 42.87 43.18 42.69 42.96 43.20 42.91 42.65 42.91 43.08
37.67 37.42 37.71 36.31 34.15 33.01 32.29 31.41 31.86 31.36 29.72 28.74 28.39 27.76 27.82 29.79 27.16 27.57 28.07 28.21 29.48 30.65 31.45 28.69 29.23 30.40 30.47 31.88 32.49 33.36 36.41 39.34 41.47 41.72 42.77 42.94 42.61 41.53 41.31 41.27 41.19 41.21 41.19
36.11 36.31 35.41 33.83 32.67 32.82 32.15 30.97 29.94 28.73 27.16 27.04 26.80 26.42 26.22 26.32 25.30 26.02 26.61 27.54 28.47 30.63 29.60 28.00 27.72 28.97 29.12 30.37 31.11 32.98 32.87 33.08 36.99 41.71 40.19 41.60 41.95 41.66 41.38 40.71 40.74 40.84 40.77
38.12 34.82 33.52 33.48 33.45 32.10 31.27 29.61 28.34 26.33 26.17 26.51 27.02 26.22 25.79 25.14 24.68 25.49 26.88 27.28 28.24 26.69 26.22 25.58 25.24 25.44 25.79 28.09 29.85 28.88 27.37 28.93 30.40 35.96 37.19 36.68 37.66 40.16 40.91 40.84 40.56 40.80 40.83
37.97 34.11 32.92 32.30 31.09 31.10 29.68 26.87 26.93 25.99 25.25 25.44 25.66 25.58 25.35 26.79 29.06 29.18 28.78 29.25 27.42 25.09 23.96 23.46 22.77 23.00 22.94 23.20 24.12 26.15 25.64 26.31 27.86 30.47 31.62 31.88 30.95 32.18 34.93 36.97 39.29 40.76 40.62
32.67 32.16 31.11 30.33 29.20 30.68 30.72 30.47 27.77 24.77 25.06 24.35 23.11 23.92 24.51 26.79 26.96 28.53 29.33 29.90 29.18 26.90 26.25 24.52 22.21 21.05 21.43 22.19 23.50 23.49 22.42 23.10 23.08 28.15 28.08 28.19 29.91 29.60 31.39 34.23 38.45 38.21 38.37
32.16 30.22 29.48 28.94 27.35 27.26 30.82 31.11 30.12 25.26 24.18 23.27 23.94 23.53 24.23 26.05 26.33 26.24 27.67 28.38 28.03 29.21 29.58 27.26 24.55 23.03 22.38 23.19 23.72 22.38 21.88 22.31 22.58 26.72 27.51 25.25 28.91 27.61 29.41 33.08 37.04 37.39 37.10
30.79 28.32 27.30 27.85 27.19 28.55 31.25 31.79 29.73 26.16 25.31 24.90 24.50 23.95 23.43 23.75 24.54 24.96 24.93 26.35 26.25 26.34 26.33 26.27 24.41 24.39 25.01 25.48 25.26 25.60 24.40 25.01 26.07 27.06 27.70 22.03 25.86 24.81 27.70 28.79 34.76 37.88 37.37
26.81 27.91 27.93 27.36 26.60 26.88 30.79 30.29 27.98 23.30 23.64 22.98 24.47 24.45 24.06 23.45 26.05 28.21 26.30 23.87 23.44 24.35 27.13 28.67 29.71 29.70 30.18 30.81 30.02 27.54 26.39 25.50 23.32 23.83 25.73 24.53 23.03 20.40 20.90 22.12 26.33 34.60 36.19
28.69 28.07 26.77 25.91 27.74 24.40 28.59 27.67 25.97 20.83 17.33 21.07 22.46 23.29 24.62 24.26 25.72 27.24 25.80 24.35 21.68 22.25 22.50 23.04 23.84 25.02 26.01 25.87 28.01 27.10 25.74 24.62 24.23 20.21 24.15 23.52 22.99 22.38 19.47 20.88 22.55 23.27 23.41

GFSMA_sfc_wetblb_003.txt.gz
Wetbulb
55.38 55.10 54.49 54.26 53.86 53.77 53.52 52.96 53.11 53.36 52.33 52.38 53.20 52.92 52.02 51.07 50.09 49.73 51.09 56.69 59.13 61.79 62.39 62.67 62.66 62.27 62.45 63.43 63.82 64.19 63.76 64.00 64.36 64.64 65.36 65.44 65.16 64.89 65.37 64.97 64.54 65.49 65.56
55.19 55.21 54.14 53.65 53.09 53.67 53.57 53.12 52.43 51.97 51.93 52.24 52.40 52.60 52.51 51.38 50.27 49.49 49.63 50.11 56.37 59.43 62.07 62.54 62.53 62.79 62.43 62.88 63.02 63.61 63.75 63.80 63.18 63.62 64.34 64.80 64.65 64.54 64.70 64.89 64.65 64.38 65.08
54.66 53.34 51.85 51.07 51.50 52.02 51.24 50.71 50.65 50.54 49.67 50.23 49.60 51.09 51.59 51.46 51.18 50.54 49.72 49.47 50.41 55.23 58.60 61.07 62.67 63.41 63.71 63.22 62.73 62.57 62.95 63.69 62.93 62.56 63.22 64.03 64.06 64.06 64.04 64.28 64.41 64.45 64.42
52.88 51.26 49.53 49.24 49.65 50.37 49.81 48.67 48.97 47.31 47.12 47.00 46.86 47.47 47.58 49.39 49.90 51.87 50.30 49.13 49.15 50.42 53.02 55.98 58.50 60.12 62.03 62.52 62.36 62.17 61.79 62.63 63.12 62.26 62.54 63.20 63.53 63.66 63.55 63.55 63.28 63.82 64.07
50.69 48.88 48.43 48.80 49.43 48.59 47.05 46.81 46.29 46.15 45.59 45.31 46.09 45.44 45.00 46.03 47.03 50.78 49.45 48.91 48.84 48.63 48.79 51.45 53.04 54.56 56.92 58.51 59.94 60.77 60.76 61.55 62.14 61.31 61.69 62.22 62.65 62.43 62.83 63.18 63.18 63.24 63.79
49.74 48.87 48.18 47.92 47.62 46.10 45.17 44.50 43.83 44.82 44.71 44.54 46.39 45.02 43.46 44.07 44.72 46.44 46.75 48.09 46.67 46.33 46.35 46.95 47.59 48.66 52.76 54.72 56.50 58.82 60.10 60.61 60.50 60.78 61.21 61.04 61.55 61.45 61.22 62.02 62.37 62.59 63.16
48.34 46.60 45.94 45.85 45.44 44.24 43.27 43.91 43.77 43.18 42.81 43.52 41.70 43.43 41.92 41.57 43.54 44.60 45.69 45.30 45.28 45.58 45.33 46.08 46.03 45.50 46.80 50.59 52.50 55.54 58.80 60.25 60.39 60.31 61.37 61.18 60.70 60.44 59.88 59.88 60.48 61.52 62.45
45.53 46.03 44.84 44.43 43.83 43.17 42.62 42.27 42.02 41.82 42.11 42.82 41.31 40.46 37.61 40.48 41.33 43.29 42.45 42.91 41.38 43.77 44.44 44.97 44.11 42.66 42.13 46.69 48.32 52.83 54.60 57.15 59.17 59.91 60.74 60.48 59.79 58.95 58.97 58.07 58.41 59.06 60.22
44.84 44.30 44.09 43.71 43.02 42.28 41.31 41.37 41.82 41.22 40.28 41.52 41.59 40.05 36.68 34.49 37.12 40.08 40.74 39.72 39.27 39.63 40.79 42.71 43.38 41.94 42.04 46.32 48.49 48.68 50.74 51.44 53.96 57.51 59.34 59.69 58.89 56.97 56.44 56.56 57.20 58.03 58.44
43.27 43.47 42.94 42.36 41.68 41.18 40.32 41.53 41.72 39.84 39.86 38.27 39.81 41.81 39.15 37.48 34.42 33.17 36.88 38.76 38.68 39.31 38.81 39.49 40.45 40.79 41.95 43.06 48.14 49.81 49.48 49.07 50.83 53.81 56.52 57.70 57.44 55.35 54.37 54.75 55.72 56.57 57.58
42.07 42.55 41.39 41.84 40.98 40.09 39.05 38.37 38.31 37.50 37.71 36.78 36.57 36.82 36.85 36.96 36.50 34.98 32.24 33.52 36.63 37.30 39.01 38.71 38.82 39.20 41.05 42.53 44.65 48.27 49.07 48.16 49.26 50.91 52.08 53.02 52.96 52.39 52.85 53.72 54.24 54.99 57.08
41.22 41.68 42.28 40.73 39.45 38.72 37.96 37.35 36.58 36.14 35.77 35.63 35.99 37.42 37.15 36.27 35.06 35.09 33.79 32.70 33.29 35.66 36.38 38.51 37.41 38.41 39.01 40.51 44.11 45.88 48.91 47.75 48.30 48.92 49.34 50.31 50.76 51.17 51.77 52.65 53.43 54.89 55.28
41.49 40.43 39.56 38.65 38.29 38.19 37.45 36.80 35.50 34.61 34.76 33.44 33.12 33.70 34.56 33.62 34.82 33.82 33.28 32.02 32.43 33.40 36.09 35.75 37.34 37.70 38.90 39.02 40.06 44.01 46.74 47.18 47.11 48.13 48.97 49.37 48.73 48.84 49.63 50.31 50.82 52.50 54.45
39.15 39.40 38.61 38.05 37.76 37.62 36.73 36.15 34.70 34.13 33.29 31.87 31.38 31.58 31.84 32.41 33.09 33.14 32.43 32.09 27.33 28.36 30.43 33.20 37.76 37.11 36.98 37.73 39.92 43.49 43.14 45.30 46.19 46.77 47.27 48.31 47.43 46.91 47.53 46.79 46.50 48.06 50.56
40.18 39.02 38.41 38.90 39.34 37.88 36.55 35.70 34.58 32.68 32.83 32.05 31.29 31.09 31.14 31.58 30.80 31.26 32.10 32.70 31.50 24.92 25.39 29.57 30.81 34.87 37.27 38.00 38.44 39.05 40.03 44.78 44.39 45.00 45.40 46.31 47.26 47.15 46.96 47.01 44.91 45.16 46.15
40.87 40.08 40.02 39.08 37.15 36.96 36.50 34.59 33.15 32.89 32.76 31.80 32.58 30.72 29.11 30.24 28.86 29.29 27.80 29.48 30.30 30.08 26.40 30.95 31.14 33.84 36.51 36.26 37.09 35.64 36.95 43.20 42.51 42.89 43.50 43.24 44.93 45.63 46.61 46.57 46.27 45.02 45.09
38.04 37.89 38.51 36.94 36.65 35.17 33.85 32.30 31.34 32.88 32.74 30.29 28.32 27.72 27.46 27.94 26.51 26.46 26.67 26.60 26.96 27.81 26.06 28.48 33.02 35.36 33.73 33.06 33.96 35.11 35.93 35.59 39.22 42.12 41.70 42.32 42.91 43.48 43.88 44.93 44.56 43.93 43.51
35.33 35.15 35.79 36.90 34.50 33.03 32.11 31.95 31.47 30.65 28.33 27.21 26.76 26.49 26.46 28.27 24.84 24.66 24.56 24.53 25.36 26.96 26.59 24.68 29.64 29.44 31.12 32.49 32.67 33.23 34.75 35.73 34.43 39.58 40.75 41.93 41.14 42.69 42.79 41.67 41.53 41.67 42.16
37.26 36.96 36.38 32.98 32.19 33.14 32.31 31.14 30.04 28.02 26.63 26.63 26.25 25.75 25.47 24.99 23.22 23.32 23.81 24.35 25.49 27.82 26.82 25.51 26.31 27.90 29.24 30.09 29.97 32.57 31.59 31.40 33.94 38.17 38.66 39.32 39.89 41.38 42.06 41.23 41.25 41.24 41.26
35.89 34.20 34.33 32.37 32.62 31.98 30.94 29.82 27.70 26.24 26.20 26.60 26.44 26.00 25.04 24.47 23.06 23.38 24.19 27.06 28.65 27.81 26.20 24.96 25.41 25.34 25.77 26.19 28.06 27.07 26.54 28.87 28.21 33.66 35.43 35.69 37.13 38.07 40.11 40.85 40.38 40.69 40.87
35.03 34.68 32.21 30.88 30.74 30.48 29.53 27.06 27.01 26.42 25.43 24.89 25.57 25.56 25.04 26.33 28.94 27.33 25.81 24.54 25.79 26.83 26.04 26.03 24.24 23.97 23.43 22.34 22.73 24.81 24.38 24.50 26.61 28.54 28.46 30.27 31.59 32.67 34.17 36.97 39.21 40.85 40.49
34.82 29.97 28.94 28.86 28.33 29.69 31.56 31.33 29.44 25.18 25.34 24.60 23.56 24.32 24.60 26.66 26.36 27.22 27.68 28.19 27.18 25.52 25.23 24.91 25.12 24.41 24.77 22.84 23.06 22.45 22.09 21.84 21.25 27.22 27.06 26.58 29.95 28.73 29.51 32.45 38.20 38.39 39.02
28.66 28.65 27.60 27.56 27.06 26.88 31.30 31.88 32.26 27.87 26.35 23.92 25.00 24.43 23.94 25.19 24.61 24.31 25.57 26.55 26.63 27.95 28.34 26.12 24.49 23.95 23.87 23.25 23.14 22.06 21.45 21.72 21.99 24.64 26.60 24.28 26.99 27.63 28.63 31.52 35.49 37.59 37.59
32.40 26.03 26.77 27.16 26.87 29.14 31.45 30.79 29.06 24.71 24.33 23.46 23.09 22.68 22.52 22.67 24.18 24.48 25.59 25.20 25.55 24.82 26.15 26.54 25.79 24.73 24.40 25.11 24.97 24.93 23.60 23.29 23.77 25.95 26.59 20.32 24.12 23.42 28.93 30.60 33.95 36.56 37.35
26.64 26.81 27.50 26.82 25.89 24.50 28.92 27.91 25.80 21.53 21.88 21.14 22.51 22.30 22.87 22.61 24.63 27.44 25.58 24.21 24.23 24.45 26.90 27.38 27.44 28.06 28.68 29.84 29.36 26.91 23.80 24.41 22.79 24.26 25.22 23.85 21.71 20.15 19.87 22.62 28.49 35.10 35.91
27.31 26.78 26.28 24.40 25.50 22.48 26.45 26.03 24.59 20.09 15.11 19.90 20.69 21.67 23.35 23.65 25.86 25.70 23.68 22.96 21.42 22.05 22.61 23.05 23.14 24.68 25.61 25.08 27.04 26.00 24.79 24.05 24.35 20.90 23.84 23.69 23.46 21.38 17.71 19.66 20.38 22.55 22.75

GFSMA_sfc_wetblb_006.txt.gz
Wetbulb
54.56 54.41 53.54 53.58 53.58 53.47 52.87 52.37 52.37 52.29 52.00 52.44 52.09 52.08 52.11 51.75 51.34 50.54 50.04 54.71 56.86 57.96 60.12 61.64 62.29 62.69 64.51 64.51 64.19 64.01 64.17 63.19 63.27 63.58 64.56 64.91 64.72 64.17 64.34 64.64 64.75 64.90 64.53
54.51 54.12 52.73 51.78 51.14 51.67 51.14 51.04 51.23 50.85 50.28 50.17 49.57 50.52 50.36 50.27 50.21 50.42 50.17 50.03 54.44 55.58 56.98 58.60 60.15 61.18 62.02 62.90 63.67 63.74 63.74 63.65 63.79 62.76 63.68 63.77 64.28 64.41 63.95 63.88 64.23 64.37 64.78
53.17 51.12 49.54 48.70 49.00 49.94 49.45 48.84 48.67 47.56 47.06 47.47 47.30 47.92 47.61 48.35 48.87 50.34 50.09 50.10 49.93 52.49 54.10 55.17 56.34 57.70 58.35 59.59 60.79 62.34 63.27 63.27 63.38 63.19 63.19 63.28 63.66 63.77 63.71 63.38 63.58 63.86 64.18
50.11 48.42 48.11 48.03 48.37 48.24 46.73 46.80 46.82 44.76 45.39 44.81 44.42 44.96 44.76 46.40 47.19 49.56 48.76 48.37 47.98 47.65 48.99 51.87 52.37 53.22 54.87 56.82 58.33 59.18 60.32 62.09 62.87 63.32 63.18 63.06 63.11 63.25 63.03 63.07 63.03 63.18 63.38
49.04 47.94 47.46 47.20 46.78 45.29 44.58 44.83 44.44 44.43 44.21 43.68 44.86 44.59 43.04 43.91 45.59 48.97 47.59 46.78 46.26 46.04 46.03 48.22 49.48 49.34 50.47 52.00 53.99 56.52 58.46 60.02 61.08 62.44 62.95 62.53 62.65 62.46 62.09 62.22 62.41 62.22 62.68
49.73 49.00 46.91 45.33 44.83 43.68 43.04 43.12 42.94 43.09 43.24 43.28 45.06 43.57 42.27 42.46 45.27 45.95 45.23 45.72 45.17 44.83 44.64 44.81 44.24 44.18 46.63 48.58 51.35 53.41 56.01 58.07 60.00 60.65 61.87 61.92 62.22 61.86 61.61 60.46 60.96 61.44 61.68
45.47 44.49 44.00 43.77 43.48 42.35 41.61 42.58 42.02 41.75 41.77 42.69 40.91 41.04 41.11 41.67 42.91 44.45 44.22 43.19 43.50 44.56 44.31 43.80 43.87 43.42 42.95 46.13 48.71 52.05 53.81 55.41 57.04 59.19 60.68 61.07 61.06 61.22 60.53 59.17 59.28 59.95 60.51
44.07 44.62 43.29 42.67 42.15 41.63 41.30 41.26 40.99 40.65 40.71 41.83 40.20 39.39 36.71 38.99 40.86 41.85 41.50 41.99 40.22 41.90 41.56 42.24 42.63 43.43 42.49 42.13 45.15 48.92 51.79 53.43 54.42 55.37 56.52 58.76 60.23 60.51 60.42 58.74 57.80 58.14 58.62
43.03 42.68 42.78 42.11 41.19 40.81 40.61 40.10 40.07 39.70 38.82 39.70 39.78 38.62 35.20 33.26 35.94 38.85 38.93 38.96 38.66 38.91 39.90 40.73 41.55 42.69 42.12 42.14 43.14 45.85 49.10 50.48 51.96 53.67 54.66 55.68 58.03 59.49 58.54 57.39 56.49 56.74 57.41
42.33 42.55 41.89 41.07 40.35 39.90 40.08 40.05 39.60 38.35 38.68 35.26 38.10 39.30 37.85 36.93 34.10 33.18 37.19 37.51 37.69 38.23 38.29 39.22 39.92 40.89 41.48 41.91 42.89 44.91 46.72 49.24 49.84 51.55 53.49 54.56 56.29 57.65 57.18 55.66 54.75 55.19 56.12
41.65 41.28 40.76 40.22 39.62 38.87 37.94 37.58 36.33 35.48 36.08 34.99 34.98 35.27 35.55 35.51 35.86 33.56 30.25 32.35 35.67 36.54 37.91 37.92 38.78 39.49 40.50 41.06 40.86 43.43 44.76 45.93 48.80 50.26 52.19 52.88 53.95 55.60 53.98 53.52 53.72 53.78 54.54
40.25 40.32 40.38 38.91 38.40 37.65 36.91 36.21 35.37 34.87 34.45 34.27 34.33 34.40 34.32 33.02 31.89 32.19 29.97 29.85 30.21 34.01 33.69 37.20 37.72 38.59 39.43 39.68 41.22 42.03 43.21 44.89 48.01 48.78 50.27 50.82 50.70 50.73 51.27 52.10 52.63 53.25 55.14
39.71 38.94 38.46 37.90 37.38 37.42 37.60 35.91 34.55 33.82 32.93 31.73 31.70 32.10 32.78 32.28 33.63 32.69 31.41 29.39 28.95 29.86 32.19 34.32 36.36 37.57 38.83 38.36 38.64 41.02 43.16 44.29 46.44 48.05 48.50 49.54 49.06 49.24 49.17 49.74 50.08 51.16 52.76
37.88 38.23 38.08 36.94 36.88 39.33 37.31 38.32 36.31 33.43 33.16 31.37 30.84 30.23 31.05 31.51 32.02 31.87 31.32 29.11 24.54 26.22 27.90 29.28 33.73 36.05 36.47 37.70 39.18 40.29 39.32 43.23 44.48 45.16 47.17 47.99 48.75 47.95 47.76 46.16 46.23 47.42 49.34
39.16 38.11 36.90 39.00 38.89 38.10 37.03 36.07 33.85 34.23 33.05 32.27 31.73 31.56 30.54 31.31 30.19 28.83 30.32 28.93 26.76 21.75 22.91 27.31 29.79 34.68 35.79 37.73 38.25 37.58 36.87 39.98 43.66 44.08 43.82 43.88 44.76 47.22 47.45 46.56 45.79 45.48 45.90
38.31 39.34 38.06 38.89 37.69 37.05 36.38 35.72 32.91 32.64 32.40 31.87 32.30 30.87 28.60 29.04 28.44 28.25 26.94 27.55 27.32 24.37 21.05 27.46 28.86 32.36 35.10 36.53 37.67 37.30 36.25 38.52 39.99 42.58 42.00 42.67 42.98 43.75 45.89 47.04 46.69 45.94 44.92
37.59 37.15 37.16 37.34 34.98 34.87 34.20 31.50 30.57 30.51 31.43 30.94 28.34 27.91 27.69 27.32 26.56 26.49 26.16 25.64 24.96 25.15 22.07 24.80 28.45 30.88 30.85 33.95 34.57 36.62 37.10 35.67 36.09 39.73 40.94 41.31 41.08 41.19 42.27 44.11 44.52 45.72 44.93
34.78 35.85 35.60 35.25 34.94 33.43 31.26 29.82 29.70 30.22 28.82 27.61 27.35 26.83 26.43 28.18 25.06 24.57 24.23 23.65 24.09 24.92 23.79 22.66 26.12 27.80 29.69 32.47 32.37 33.86 35.68 36.26 33.52 38.37 40.06 40.38 40.68 40.62 40.89 41.91 42.37 43.03 42.70
33.89 34.55 35.88 34.00 32.32 31.07 30.29 29.75 29.57 28.62 27.04 26.60 26.58 26.04 25.70 25.39 23.78 23.41 23.35 23.65 24.26 26.52 27.49 26.81 26.19 27.77 28.53 29.89 30.33 32.43 32.98 32.90 33.38 36.23 36.88 37.88 39.59 40.10 40.25 41.39 42.27 41.53 41.55
34.71 35.89 33.61 33.20 31.48 30.31 29.97 29.39 28.12 26.64 26.22 26.64 26.74 26.03 25.54 24.94 23.85 23.42 24.41 23.92 25.27 24.15 25.08 25.92 25.93 25.95 26.95 29.06 27.59 27.94 27.71 29.81 29.67 32.19 34.07 34.85 36.02 37.91 38.69 39.21 40.95 40.93 40.90
36.43 33.80 33.39 30.46 28.92 29.58 29.31 27.38 27.12 26.54 25.75 25.40 25.61 26.12 26.01 27.15 29.49 28.02 25.77 24.09 23.69 24.47 24.16 24.79 24.12 25.42 26.10 24.62 24.20 26.22 25.63 26.13 27.52 29.61 30.37 31.19 31.87 32.90 35.60 37.49 39.06 40.64 40.52
34.58 29.42 26.93 27.81 27.87 29.07 32.04 32.18 31.23 28.04 26.39 25.49 26.16 25.80 25.60 26.27 25.95 26.76 26.32 26.69 26.18 23.74 23.19 23.79 23.14 23.18 24.84 26.27 26.62 25.13 24.09 23.39 22.85 28.80 29.01 28.57 31.15 30.90 31.72 34.48 37.73 38.72 39.35
30.41 29.06 27.48 27.85 26.60 28.58 32.15 31.71 30.08 26.17 24.90 24.24 23.04 22.17 22.33 24.05 23.70 23.70 24.92 26.13 26.72 27.55 28.08 26.39 23.88 23.97 25.64 26.31 26.20 24.62 23.44 23.25 23.52 26.43 28.07 26.41 28.50 28.40 31.07 32.29 35.48 37.35 37.41
31.34 26.35 26.49 26.42 27.12 27.56 29.52 29.19 27.73 23.77 22.96 22.36 21.79 21.75 21.24 21.55 23.15 23.91 24.81 25.26 24.58 25.76 26.02 25.77 25.53 25.63 26.69 27.35 26.42 26.00 25.31 24.71 24.99 26.38 28.48 24.55 26.87 27.41 29.77 31.73 33.99 36.07 37.19
28.55 26.88 26.81 25.62 23.85 23.84 27.86 27.05 25.29 22.21 21.72 21.07 22.21 22.14 22.11 21.79 24.24 26.88 24.15 23.21 23.14 24.05 26.73 27.50 27.48 27.51 27.64 27.81 28.92 26.89 24.10 23.51 22.59 23.81 27.14 26.50 25.90 26.10 26.10 28.98 30.98 34.48 35.84
26.92 26.48 25.31 23.51 24.91 22.13 25.28 25.57 24.58 20.07 16.21 19.83 21.59 21.89 22.77 23.11 25.02 25.57 24.38 22.25 20.61 22.77 23.86 25.18 25.08 25.43 25.93 25.81 26.75 25.89 25.56 24.11 24.13 22.29 25.88 25.07 25.03 25.03 23.71 25.69 26.78 28.56 29.64

GFSMA_sfc_wetblb_009.txt.gz
Wetbulb
63.83 62.41 61.46 60.56 59.86 59.74 59.07 58.94 59.07 59.12 58.43 57.64 57.54 56.47 55.45 55.04 55.76 56.07 57.37 55.37 56.59 58.41 59.84 60.75 60.99 61.39 61.75 61.92 62.69 63.61 64.54 64.22 63.07 62.79 63.86 64.33 64.84 64.86 64.40 64.24 64.04 64.10 64.20
61.54 60.53 58.06 56.81 56.98 57.51 57.62 57.54 57.51 56.60 55.79 55.24 55.04 54.90 53.65 53.89 54.68 55.62 56.08 55.97 53.14 53.91 55.00 56.09 57.00 58.17 59.20 59.88 59.93 60.28 61.68 63.95 63.79 62.89 63.55 63.54 63.75 64.13 64.11 63.78 63.56 63.89 64.13
57.94 56.53 56.57 56.47 55.73 56.70 55.87 56.18 55.35 55.15 54.53 52.95 52.70 52.72 52.35 52.84 52.88 54.75 54.47 53.93 53.46 51.34 51.70 52.44 52.84 53.41 54.19 55.45 56.44 58.19 59.29 60.99 62.34 63.83 63.17 63.58 63.43 63.67 63.80 63.47 63.21 63.36 63.43
56.03 56.18 55.53 54.91 54.65 54.32 54.05 54.00 53.29 52.77 52.50 51.62 50.94 51.15 51.42 51.48 52.79 54.63 52.67 52.56 51.86 51.52 51.36 49.82 50.07 50.40 51.18 52.61 53.82 55.31 56.72 58.24 59.55 61.31 63.32 62.96 63.16 63.28 63.27 62.88 62.94 62.73 62.75
53.76 54.45 53.60 52.66 52.64 51.93 52.21 51.55 51.25 50.92 49.92 49.19 48.10 49.61 49.44 49.28 53.69 52.99 51.21 50.88 50.74 50.60 50.05 49.00 48.37 48.36 49.06 50.26 51.45 53.04 54.72 55.97 57.55 59.25 61.64 62.84 62.71 62.72 62.82 62.49 62.29 62.05 61.99
52.64 52.87 52.05 51.88 51.91 51.04 50.46 50.57 49.69 49.55 49.11 47.92 45.90 47.13 47.78 49.74 53.45 52.49 50.51 49.67 49.28 49.09 48.76 48.16 48.24 47.91 47.45 48.35 49.14 50.88 53.15 54.41 55.29 56.39 58.35 61.12 62.24 62.69 62.23 62.25 60.97 60.58 60.68
51.47 51.77 50.98 50.86 50.84 50.03 49.81 49.86 49.25 46.82 46.58 48.07 45.76 45.30 45.74 49.69 50.35 49.82 49.82 48.74 47.12 47.00 47.31 46.98 46.63 46.28 46.99 47.16 47.69 49.20 50.84 52.74 54.05 54.56 55.17 56.68 59.15 60.34 61.92 61.25 60.04 59.48 59.84
50.10 50.12 50.66 50.43 50.49 49.89 49.34 48.63 47.55 45.90 46.64 47.40 43.05 42.69 40.57 43.37 46.40 47.86 47.24 46.56 45.79 45.85 45.42 45.24 45.23 45.38 46.11 46.49 46.80 47.35 48.21 49.93 51.15 52.87 53.83 54.72 55.80 58.27 60.43 61.12 59.43 58.55 58.60
49.92 50.24 50.32 50.57 49.98 49.52 48.37 47.66 46.87 45.64 43.61 45.25 45.88 41.95 38.18 37.13 40.56 44.19 44.29 44.92 44.44 43.59 43.62 43.58 43.33 43.57 44.82 46.03 46.29 46.27 45.38 45.98 47.53 50.33 52.78 53.78 54.55 55.80 58.49 60.19 59.65 58.14 57.69
49.58 48.81 48.85 48.89 48.68 48.27 47.02 46.31 45.32 44.55 43.77 40.57 42.45 43.84 42.83 41.52 36.17 34.79 40.66 41.27 41.92 40.33 40.92 41.94 41.47 42.60 43.22 44.69 45.10 44.54 44.50 44.34 45.00 47.49 51.28 52.97 54.13 54.82 56.86 58.60 58.57 57.11 56.87
48.41 47.65 47.18 47.22 46.82 46.35 45.39 44.69 43.47 42.46 42.36 40.41 39.74 39.26 39.06 38.43 38.64 35.05 31.42 34.68 37.60 38.94 39.81 38.94 40.60 40.71 41.27 42.89 43.77 43.39 42.10 43.48 44.19 46.43 49.96 51.97 53.22 54.20 55.88 57.29 56.96 55.87 56.06
48.60 47.89 46.30 46.40 45.70 45.11 44.02 43.48 42.96 41.25 41.15 40.65 40.19 39.03 36.52 34.37 33.68 33.69 32.21 32.89 32.87 35.41 37.27 38.20 38.41 38.96 39.51 40.63 42.08 41.52 41.81 42.30 43.27 45.91 48.80 50.54 51.97 52.71 52.52 55.13 55.09 55.06 55.13
46.24 47.04 45.97 45.16 44.35 43.34 42.79 43.42 42.18 41.19 40.47 39.38 38.61 37.63 38.13 36.73 37.04 35.68 33.86 32.41 31.82 34.39 35.05 37.11 37.63 38.12 38.32 39.34 41.64 41.10 41.50 40.60 41.16 44.35 47.69 48.88 49.82 50.08 50.67 51.95 52.65 54.27 55.07
43.56 45.74 45.38 43.96 43.59 43.76 43.21 42.17 41.85 41.00 40.90 39.83 38.93 38.50 37.85 37.87 38.45 37.43 34.40 32.66 29.74 31.28 33.05 33.58 36.63 36.97 38.07 38.56 39.12 40.22 42.24 40.09 40.05 43.59 45.64 46.65 47.67 48.61 48.75 48.16 49.12 49.46 51.00
43.63 44.82 43.95 43.57 44.04 43.02 42.42 41.85 41.04 40.59 40.11 39.93 39.35 39.13 38.27 38.23 37.91 36.73 35.31 34.14 30.87 26.51 27.91 31.70 31.56 35.64 36.11 37.04 38.16 39.49 41.21 39.99 39.47 40.16 43.40 43.85 44.30 46.41 47.96 47.62 46.35 45.93 45.46
43.62 44.33 43.47 43.24 42.24 43.31 41.88 41.19 40.33 40.16 38.73 39.04 38.50 38.31 37.52 36.44 35.64 35.53 34.47 33.64 32.34 29.18 25.61 30.40 31.10 32.80 34.12 34.71 36.89 37.67 40.15 39.86 39.53 38.80 40.96 42.79 42.79 43.59 45.75 46.71 47.65 46.94 45.47
42.87 43.33 43.24 41.96 42.21 41.13 40.81 39.76 39.20 38.10 37.21 38.01 38.04 36.06 34.96 35.01 34.12 33.80 33.21 32.17 30.66 29.88 25.99 28.95 30.95 32.89 33.38 33.96 34.96 37.30 40.07 40.36 40.17 38.71 39.16 41.22 41.14 41.51 42.32 44.55 44.47 44.81 46.45
41.40 41.19 40.29 40.39 40.00 40.19 40.44 38.60 37.34 37.35 36.79 36.01 35.45 34.20 33.69 33.32 32.76 32.95 31.93 30.40 29.72 30.02 27.65 25.32 29.38 30.23 31.83 34.23 34.67 36.03 37.92 38.58 38.65 38.59 37.53 39.47 40.19 40.80 40.98 41.71 42.63 42.76 43.03
39.61 39.88 39.97 38.47 38.53 38.89 37.87 37.01 36.37 36.05 34.96 34.25 33.69 32.71 32.40 31.94 31.42 31.38 30.43 29.19 28.64 28.38 27.61 26.62 26.47 29.50 30.55 33.02 33.44 34.77 35.91 37.51 37.47 36.92 37.27 37.13 38.23 39.29 39.79 40.73 41.99 42.43 42.50
40.02 40.18 38.97 38.74 39.33 37.25 35.96 35.95 35.10 34.16 33.33 33.02 32.69 32.43 31.74 30.95 29.89 29.63 28.64 28.12 27.26 26.26 25.78 25.15 25.59 26.24 28.84 31.27 31.47 31.74 32.33 35.58 34.73 35.07 35.98 34.94 35.24 36.54 38.07 39.42 40.50 41.01 41.44
40.46 39.15 36.80 35.42 35.08 35.19 34.27 34.20 33.61 33.17 33.06 32.43 32.08 30.99 30.23 29.26 28.47 28.09 27.12 26.61 25.72 24.70 25.09 25.07 24.48 25.87 26.26 27.00 27.95 30.03 30.61 32.97 33.71 34.73 34.37 36.05 37.38 38.40 39.29 39.78 39.85 40.52 40.39
39.11 36.72 35.85 34.59 33.65 33.31 33.02 32.91 32.28 31.82 30.43 29.04 27.70 27.93 27.79 26.60 27.06 26.19 25.91 26.29 26.59 25.38 25.02 24.77 26.34 24.89 25.27 26.97 28.56 28.62 28.21 28.92 28.43 35.60 33.55 33.71 36.24 36.20 37.27 39.09 37.35 38.53 39.85
38.73 38.17 34.77 34.23 33.90 33.47 30.87 30.11 28.43 29.43 28.24 27.45 26.61 25.89 25.58 26.13 25.86 26.33 26.21 26.67 27.44 27.09 26.99 26.69 25.13 25.39 25.48 27.28 27.87 27.42 27.71 27.60 27.86 32.30 31.62 30.08 34.76 33.27 36.10 35.70 35.35 37.20 37.40
37.13 37.11 34.42 33.45 32.61 30.91 28.75 27.98 27.03 28.33 27.56 26.47 25.86 25.63 25.19 25.40 25.91 25.27 26.35 26.07 25.90 26.40 27.04 27.17 27.64 27.75 28.24 28.91 28.07 28.69 27.88 28.23 29.87 31.17 32.12 27.49 32.87 32.09 34.78 35.78 34.42 35.06 37.27
36.10 34.97 33.35 31.46 29.51 29.30 26.86 26.72 26.84 27.06 25.99 25.28 25.68 26.02 25.44 24.89 24.94 26.39 25.31 24.33 24.21 24.87 27.24 27.17 27.86 28.09 28.29 28.23 28.33 27.97 26.56 26.18 25.69 27.84 31.59 29.22 30.31 31.00 32.85 33.79 35.94 34.19 35.25
32.47 32.85 30.36 29.45 26.19 27.45 25.39 25.77 26.23 26.80 24.95 24.89 25.46 25.37 23.81 23.84 24.79 25.20 24.21 23.74 21.63 23.97 24.58 25.24 25.88 27.05 27.90 28.25 27.40 28.09 27.51 25.40 26.73 25.61 30.14 27.86 29.27 30.11 28.54 34.32 34.70 36.15 37.07

GFSMA_sfc_wetblb_012.txt.gz
Wetbulb
64.82 65.46 65.11 64.22 63.14 62.66 61.93 61.08 60.92 60.35 59.85 59.36 59.54 58.65 57.61 57.60 57.87 57.89 58.89 55.10 56.04 57.35 58.33 58.76 58.78 58.60 58.67 58.79 59.79 60.45 61.20 62.63 63.38 62.84 63.43 63.97 64.31 64.54 64.33 64.30 64.06 64.15 64.27
62.07 63.94 62.53 61.54 61.16 61.18 60.50 59.74 59.07 58.09 57.94 57.96 57.08 57.41 56.39 56.53 56.27 57.08 57.09 57.61 53.22 53.72 54.41 55.10 55.21 55.56 56.05 55.98 56.00 57.23 58.82 59.95 61.12 62.45 63.57 63.53 63.85 63.80 63.95 64.13 63.80 63.78 63.97
60.36 59.86 59.94 59.83 60.03 58.97 58.20 58.41 57.79 57.72 56.94 56.43 56.04 55.77 55.87 55.86 55.03 55.94 56.42 56.12 55.58 52.01 51.55 51.68 52.19 52.71 53.25 53.90 54.30 54.64 55.88 56.91 58.51 59.77 61.42 63.62 62.91 63.49 63.64 63.66 63.75 63.51 63.38
58.07 57.88 58.51 59.03 57.89 57.45 57.06 56.86 56.02 55.23 55.05 54.76 54.22 53.90 54.39 54.56 53.87 55.94 55.80 55.14 54.93 54.30 53.85 50.54 50.19 50.23 50.60 51.59 52.57 53.21 54.08 54.99 56.20 57.26 59.11 61.70 62.94 62.78 63.42 63.38 63.07 62.62 63.01
57.56 59.03 57.81 57.20 56.97 56.46 55.88 55.01 54.43 53.59 52.59 52.53 51.70 51.67 52.61 52.58 52.88 53.48 54.44 53.97 54.43 53.54 52.97 52.33 50.84 50.28 49.21 49.74 50.73 51.75 52.61 53.42 54.46 55.61 56.45 57.48 59.67 61.93 62.63 62.70 62.83 61.92 61.48
56.54 57.53 56.60 55.74 55.13 54.33 53.81 53.47 52.89 53.08 51.83 51.45 50.29 50.29 51.87 51.38 51.90 53.14 53.44 52.70 52.32 51.38 51.19 50.61 50.38 49.99 49.38 48.47 49.01 50.00 51.58 51.99 52.92 54.05 54.61 55.46 56.27 57.75 60.53 62.20 62.40 61.42 60.63
54.86 54.99 54.86 54.40 54.41 53.34 52.92 52.99 51.91 51.09 50.34 51.22 48.98 48.31 48.53 49.64 51.01 51.42 51.31 50.57 50.60 49.94 49.82 49.07 48.43 47.99 47.70 47.53 48.19 48.98 50.35 50.69 50.89 51.26 52.17 53.56 54.46 55.37 56.93 59.43 61.55 60.96 59.89
53.76 53.44 53.95 53.17 53.11 52.13 52.40 51.91 50.75 48.96 48.83 49.99 46.60 45.69 42.85 45.26 47.84 50.21 49.80 48.80 49.03 48.71 47.46 46.91 46.65 46.27 46.50 46.83 47.47 47.27 47.98 48.61 49.30 49.63 49.65 50.42 52.83 54.24 55.36 57.01 60.10 61.11 60.07
53.59 53.34 53.27 52.89 52.48 51.64 50.01 50.61 49.95 48.65 46.51 47.92 47.49 44.65 41.07 39.66 42.35 45.55 46.75 46.41 46.98 45.74 45.53 44.82 45.20 44.30 44.80 45.39 45.49 46.56 45.76 45.10 46.07 47.49 47.98 49.11 50.80 52.98 54.46 55.41 58.40 60.19 60.23
53.27 53.06 52.51 52.27 51.57 50.73 50.00 49.81 48.95 47.72 46.01 43.76 45.34 45.42 44.75 43.08 38.78 37.49 43.29 44.26 43.66 42.92 43.20 42.96 43.61 42.91 43.13 43.23 43.33 45.08 43.79 42.90 43.28 45.22 47.24 48.20 49.89 51.81 53.47 54.83 56.59 58.94 59.54
53.46 52.46 51.92 51.29 50.63 50.09 49.76 48.86 47.46 45.98 45.88 44.31 43.36 42.61 42.31 41.69 41.11 37.33 34.82 37.86 40.68 41.52 41.85 41.55 41.75 42.42 42.36 42.57 42.40 42.90 42.51 42.69 42.31 43.27 45.36 47.67 49.35 51.03 52.33 54.03 54.86 57.73 58.73
48.47 48.67 48.37 50.17 50.45 49.75 48.84 47.61 46.86 45.70 44.64 43.46 42.30 41.20 39.60 37.87 37.11 36.59 35.25 35.97 36.32 38.73 40.48 41.11 41.16 41.32 41.61 41.51 41.44 41.87 42.45 41.65 41.94 41.80 43.81 47.09 49.06 50.34 51.71 53.24 54.50 56.88 57.60
44.96 45.85 47.01 47.81 48.62 48.60 47.48 46.79 45.05 44.66 43.39 41.85 41.25 40.12 40.27 39.59 39.32 38.28 36.78 35.52 34.68 37.30 38.11 40.18 40.63 41.07 40.59 41.18 41.06 41.16 39.79 39.80 41.47 40.78 41.96 45.56 46.78 47.67 49.92 51.62 53.48 55.46 56.70
44.51 46.15 47.26 48.00 47.96 47.37 45.93 44.43 45.41 44.25 43.09 42.01 41.20 40.89 40.36 39.92 39.73 38.97 36.92 35.02 32.50 34.09 36.01 36.55 39.58 39.48 39.63 39.73 39.31 38.78 39.67 40.23 40.67 40.24 39.84 42.77 45.28 46.67 47.88 49.32 49.36 51.07 53.76
44.25 45.80 47.64 47.57 46.38 45.87 44.88 45.45 44.28 42.87 42.39 41.61 41.10 40.78 39.88 39.87 39.79 39.09 38.40 37.31 33.67 29.38 30.59 34.76 34.53 38.43 38.49 38.54 38.35 38.51 38.87 39.54 40.35 39.84 39.28 40.28 43.52 44.61 45.40 47.18 48.35 46.83 46.45
44.69 45.21 46.32 46.03 45.61 44.25 43.91 44.25 42.81 42.25 40.96 40.69 40.34 39.74 39.54 39.21 38.92 38.81 38.11 37.26 35.91 32.97 30.55 33.88 34.68 36.46 37.30 36.84 38.44 38.87 38.90 38.58 38.50 39.39 38.85 39.13 42.00 42.40 43.07 44.25 46.82 47.55 47.18
43.82 43.79 44.77 44.92 43.83 43.27 43.08 42.97 42.45 40.69 39.49 39.68 40.07 39.44 38.79 38.80 37.96 37.86 37.67 36.71 35.24 34.24 30.25 32.88 34.55 35.82 35.06 35.08 36.28 37.32 38.93 39.29 40.12 39.40 39.09 38.27 40.30 40.93 41.32 41.97 43.68 45.77 46.76
43.61 43.20 43.16 42.97 43.09 42.76 42.51 42.09 41.03 39.78 39.11 38.74 38.79 38.54 37.62 37.42 37.12 37.23 36.18 35.28 34.27 34.13 30.39 28.41 31.51 31.59 32.34 34.02 35.13 35.32 36.12 38.05 39.62 39.86 37.91 37.82 37.85 39.87 40.26 40.40 41.52 42.79 43.37
42.94 43.26 43.03 42.27 41.96 41.74 41.79 41.19 39.90 39.33 39.07 38.74 38.08 37.26 36.78 36.40 35.28 35.20 34.65 33.67 32.61 31.21 31.39 29.72 28.67 30.33 31.60 32.77 32.46 34.67 34.97 36.28 38.35 38.92 37.58 37.31 37.37 38.39 38.82 39.68 40.52 42.25 42.50
42.39 42.68 42.47 42.23 42.28 41.46 40.69 39.48 38.99 38.62 38.33 38.01 37.61 36.91 36.02 34.68 33.33 32.57 31.57 31.46 30.31 30.01 29.75 28.42 27.18 28.13 30.23 32.13 32.32 31.15 32.63 35.41 35.70 37.75 38.04 35.87 35.66 37.49 38.16 39.17 40.47 40.97 41.22
42.15 42.45 40.99 40.39 39.75 39.29 38.07 37.93 37.82 38.11 37.41 36.23 35.78 34.68 33.84 31.50 28.48 28.54 28.82 29.15 28.19 27.31 26.50 26.77 26.81 27.75 27.55 28.37 29.08 30.95 30.47 31.79 33.97 36.42 36.51 36.44 37.82 38.41 40.04 39.85 40.21 39.31 40.35
41.69 41.74 41.38 40.47 39.75 38.72 32.64 31.68 31.69 35.63 35.02 33.99 32.74 32.57 32.57 30.32 29.93 27.36 27.53 27.22 27.44 26.34 25.79 25.87 26.67 25.54 26.38 28.78 29.90 29.71 29.37 29.06 27.81 35.58 34.91 33.71 37.54 36.20 38.00 39.13 37.62 37.83 38.02
41.23 40.74 40.85 40.30 39.28 38.91 30.97 29.26 28.79 34.17 33.70 32.76 31.64 30.96 30.47 30.40 29.45 29.49 28.02 27.78 28.43 28.36 27.85 27.81 25.13 26.02 27.11 28.94 29.27 28.42 28.46 29.01 28.93 31.79 32.55 30.64 35.25 33.92 37.09 38.40 35.37 36.80 36.90
40.13 39.60 39.55 39.47 38.44 35.05 28.65 27.67 27.41 33.56 32.88 31.80 31.09 30.31 30.09 29.76 29.53 27.05 27.14 28.02 28.79 29.78 29.44 28.76 28.09 28.62 29.25 30.00 29.74 29.45 29.00 29.09 30.74 31.91 33.40 28.19 33.34 33.25 35.32 37.51 34.78 34.42 36.45
39.28 39.22 38.72 37.50 36.25 34.94 27.29 26.60 27.60 32.10 31.02 30.15 30.33 30.14 28.65 28.31 26.59 25.74 26.23 25.61 26.77 27.98 28.87 28.07 27.73 27.79 27.99 28.29 28.94 29.28 27.01 26.17 26.93 29.21 33.08 31.14 31.86 32.39 33.54 35.67 37.22 34.47 35.14
38.33 37.76 36.35 36.45 30.31 33.45 26.38 26.01 27.44 31.66 29.52 29.36 29.97 29.10 26.18 25.60 24.14 24.95 24.85 24.58 23.65 25.20 25.40 26.29 27.33 27.92 28.54 29.03 28.51 29.74 28.06 25.54 26.47 27.38 31.97 29.97 30.58 31.20 29.39 35.36 36.37 37.35 37.10

GFSMA_sfc_wetblb_015.txt.gz
Wetbulb
65.36 64.53 64.45 64.48 64.01 63.40 62.98 62.47 61.87 60.73 59.65 59.83 59.68 58.62 58.37 57.90 57.91 57.11 58.18 57.47 57.26 57.19 57.43 58.03 57.99 58.01 57.70 57.25 57.08 57.80 58.88 59.98 60.76 61.74 63.26 64.02 63.69 64.13 64.30 64.03 64.17 64.06 64.15
64.54 62.19 62.10 62.49 61.58 62.04 60.86 60.11 59.05 58.24 58.01 58.69 58.04 57.90 57.36 57.26 57.20 57.14 56.56 57.35 56.18 55.45 54.79 54.71 54.91 55.50 55.81 55.70 55.35 55.52 56.29 57.08 58.03 59.09 60.27 61.92 63.43 63.36 63.75 63.73 63.84 63.77 63.90
62.26 61.13 60.63 59.80 58.56 60.39 59.71 59.14 58.88 57.87 56.81 56.61 56.55 56.31 55.90 55.90 56.01 55.82 55.38 57.31 55.30 54.05 53.33 52.72 52.34 52.50 53.05 53.56 53.79 54.09 54.38 54.87 55.79 56.84 57.68 58.47 60.10 62.41 63.20 63.64 63.66 63.51 63.22
59.69 59.07 58.25 59.08 58.90 58.08 57.62 57.12 56.32 55.35 54.73 54.39 54.18 54.25 53.87 53.77 54.28 54.71 54.28 55.74 55.67 55.31 52.17 51.46 51.09 51.02 50.53 51.13 51.80 52.53 52.94 53.58 54.13 54.66 55.73 56.62 57.02 58.23 60.42 62.39 63.44 63.20 62.90
59.05 59.42 58.65 57.87 58.05 57.07 56.62 55.76 55.08 54.64 53.40 53.04 52.47 52.72 53.47 52.69 53.55 52.58 52.60 54.39 54.95 53.83 52.77 53.84 52.83 52.34 49.23 49.73 50.15 51.30 51.70 52.31 52.61 53.05 53.82 54.34 55.26 56.07 56.76 58.34 61.39 63.07 62.72
57.86 58.25 58.00 56.99 56.55 55.71 55.27 55.09 54.23 54.12 52.97 52.15 50.33 50.58 51.93 51.36 51.69 51.97 51.94 53.62 53.10 52.09 51.50 51.08 50.31 49.56 50.83 48.81 48.81 49.84 51.06 51.96 51.35 51.68 51.86 52.16 52.63 53.78 54.96 56.02 57.36 59.73 62.68
56.54 56.47 56.35 56.16 55.95 54.64 54.11 54.13 53.09 51.40 49.43 50.68 48.46 48.74 48.77 50.24 51.73 50.94 51.14 51.64 51.26 51.24 50.98 49.61 48.69 47.30 47.35 48.91 48.26 48.70 49.54 50.49 50.64 50.38 50.14 50.21 50.58 51.05 52.16 54.32 55.77 57.93 60.59
56.01 55.47 55.35 54.73 54.59 53.23 53.00 52.17 51.12 49.24 48.78 49.28 46.29 45.90 42.34 44.51 47.42 48.67 48.94 48.89 50.49 49.04 48.30 47.65 46.87 45.92 45.92 45.36 46.38 46.55 47.50 47.68 48.01 47.84 48.21 48.51 49.24 49.98 51.05 52.43 54.17 55.95 58.44
55.15 54.84 54.59 54.07 53.61 52.46 50.14 50.89 50.22 49.26 46.22 47.54 48.22 44.54 40.16 38.85 41.78 45.03 45.99 46.52 48.77 46.57 46.40 45.65 45.05 44.51 44.62 44.08 44.28 44.54 45.48 44.38 45.15 46.03 46.56 47.24 48.26 49.17 50.10 51.41 52.77 54.46 55.97
54.78 54.08 53.04 52.68 52.04 51.07 49.94 49.53 49.45 48.38 47.16 44.37 45.98 46.18 45.85 43.76 38.83 37.51 42.34 43.19 44.23 43.89 45.38 44.06 43.39 43.32 43.20 43.45 44.49 44.59 42.79 42.46 42.47 44.02 45.38 46.07 47.27 48.45 49.31 50.60 52.02 53.03 54.66
51.00 49.66 49.06 48.97 49.40 50.06 50.09 49.74 49.01 47.90 47.09 45.31 44.12 43.16 42.71 42.03 41.73 38.10 34.99 37.80 40.85 41.95 42.42 42.48 42.60 42.34 42.73 42.69 42.62 43.23 43.54 43.02 40.91 41.49 42.96 45.08 46.12 48.31 49.19 49.72 51.23 52.26 53.62
47.45 47.78 47.40 48.04 48.23 48.94 49.31 49.07 48.51 47.45 46.15 44.87 43.89 42.64 40.64 38.55 37.56 37.24 35.60 36.21 37.21 39.20 40.85 41.59 42.76 42.43 43.28 43.06 42.83 43.39 42.76 41.57 40.60 40.46 41.85 43.48 44.59 46.93 48.61 49.07 50.43 52.10 53.06
45.70 46.31 46.82 47.46 47.68 48.15 48.68 48.02 46.66 45.51 45.20 43.29 42.60 41.18 41.25 40.23 40.20 38.57 36.73 35.55 35.56 37.50 38.46 41.01 41.79 42.26 41.18 42.45 41.77 41.90 40.52 39.73 40.16 41.23 41.89 41.81 42.32 44.85 46.84 47.89 49.49 50.83 51.94
45.47 46.19 46.50 47.69 48.25 48.10 47.29 46.48 45.91 45.65 44.64 43.36 42.19 41.61 40.85 40.60 40.48 39.37 37.10 35.30 33.96 34.77 36.33 36.58 40.52 41.00 40.72 40.89 40.89 40.74 39.12 39.73 39.54 40.07 41.19 40.28 40.89 43.24 45.13 45.97 47.31 48.63 50.18
44.88 45.51 46.17 46.56 47.24 47.04 45.92 46.25 44.66 44.27 44.06 43.12 41.96 41.47 40.52 40.29 40.22 39.43 38.81 37.59 35.35 30.65 31.18 35.89 36.58 39.52 39.71 40.08 40.12 39.75 39.71 40.12 39.83 39.31 39.05 39.39 39.89 42.23 43.24 43.58 44.52 46.21 48.88
45.15 44.95 44.76 45.09 46.01 46.00 46.39 45.08 44.36 43.95 42.24 42.19 41.11 40.55 40.21 40.28 39.86 39.21 38.09 38.20 37.38 34.72 31.30 35.75 36.12 37.64 38.19 37.43 38.49 38.73 38.53 39.45 38.73 39.42 38.67 38.74 38.49 39.83 40.96 41.89 42.65 43.72 46.50
44.61 44.09 44.18 43.91 44.15 44.52 44.61 43.93 42.80 42.54 41.49 40.83 40.57 39.79 39.51 39.66 38.55 38.28 38.98 37.94 36.91 36.25 32.56 34.98 36.18 36.40 35.44 35.26 35.55 37.39 37.71 38.21 39.03 39.20 39.29 38.95 38.40 38.41 39.01 40.45 40.93 41.89 43.10
44.25 43.81 43.72 43.50 43.22 42.93 42.93 42.08 41.43 41.65 40.74 39.49 39.24 39.15 38.26 38.27 37.54 37.91 37.15 35.70 35.54 35.40 33.90 30.31 32.65 32.88 32.94 34.01 34.88 34.68 35.56 36.56 37.82 38.16 39.37 38.67 39.06 38.58 38.89 39.59 40.22 40.83 41.97
43.47 43.62 43.64 42.94 42.60 42.32 41.74 42.17 41.76 40.71 39.84 39.35 39.15 38.17 37.70 37.13 35.79 35.50 34.84 33.70 33.33 33.11 32.83 29.93 29.04 32.01 32.63 33.08 32.93 34.05 33.95 35.19 36.53 38.57 37.99 37.64 38.34 37.92 38.54 39.39 40.17 40.77 41.68
42.81 42.96 43.42 42.10 41.91 41.41 40.88 40.75 40.13 39.40 39.17 38.80 38.66 37.78 36.63 35.39 33.92 32.49 30.94 30.84 31.09 29.96 29.56 28.70 28.07 28.51 30.23 31.98 32.63 30.62 30.78 34.03 33.87 36.13 36.86 37.70 38.29 38.68 39.39 39.37 39.83 39.58 40.58
42.71 42.82 42.50 41.71 41.82 41.00 39.49 38.56 38.69 38.33 37.89 37.32 37.02 36.58 35.61 32.85 29.81 29.43 29.08 28.97 28.38 27.24 26.68 26.15 25.88 27.20 27.55 28.71 28.13 30.76 29.79 31.33 32.55 34.81 34.99 36.72 36.72 38.23 39.14 39.55 40.13 38.49 38.12
42.40 42.40 41.86 41.50 40.50 40.23 32.62 31.68 31.51 36.02 36.53 35.80 34.61 34.59 34.27 33.73 32.53 30.46 29.78 28.91 28.38 26.53 25.78 25.70 25.56 25.16 25.90 27.39 29.20 29.58 29.10 27.82 26.22 34.61 32.55 32.62 36.41 36.55 37.63 38.87 36.94 37.65 36.95
42.11 41.39 41.26 40.98 40.61 39.84 32.09 29.81 29.02 33.72 35.55 34.97 33.88 32.87 32.37 32.63 31.40 31.48 30.10 29.55 29.46 30.11 29.64 28.68 25.99 26.38 26.60 28.05 28.13 27.77 28.00 27.97 27.86 31.23 31.42 29.72 34.33 33.86 36.95 37.54 36.62 37.07 36.56
41.34 40.69 40.28 40.26 39.83 35.18 30.39 28.55 28.24 33.17 35.07 34.22 33.20 32.54 31.72 31.18 29.61 27.39 27.08 27.11 28.07 29.11 29.84 29.48 28.59 27.85 28.10 28.29 27.67 27.73 27.48 27.98 29.55 31.02 32.35 27.42 33.10 32.87 35.91 37.43 35.64 35.51 36.90
40.82 40.34 40.12 39.38 38.48 35.53 29.60 28.08 27.70 33.45 33.45 32.38 32.49 32.35 30.67 29.26 26.90 25.89 25.46 25.11 26.11 27.33 30.13 29.55 28.64 28.50 28.78 28.83 29.02 28.12 26.47 25.63 25.46 27.18 31.87 30.50 31.28 32.17 34.01 35.33 37.69 35.28 36.59
40.10 39.98 38.65 38.54 32.40 36.34 29.03 28.02 27.86 32.39 31.39 31.30 31.54 31.59 28.10 26.56 24.90 25.00 24.68 23.94 22.96 25.16 24.87 25.40 26.26 27.98 29.54 29.94 30.46 29.59 28.18 25.32 25.48 25.78 30.54 29.45 30.52 31.11 29.06 34.98 36.36 37.78 36.37

GFSMA_sfc_wetblb_021.txt.gz
Wetbulb
59.53 58.81 58.36 57.67 55.85 55.79 53.69 53.00 53.58 52.92 52.42 52.09 51.54 52.00 51.93 51.30 51.17 51.02 52.39 58.32 58.68 58.35 57.88 57.85 57.09 56.18 55.59 54.98 54.62 54.81 55.17 55.49 56.18 56.72 56.68 57.36 57.78 58.23 58.64 59.32 59.92 61.35 62.98
58.38 57.14 55.62 54.38 53.88 53.82 53.35 52.39 50.97 50.56 49.55 49.77 49.74 50.29 49.88 49.55 48.62 48.61 50.73 52.48 57.83 57.79 56.87 55.89 54.82 54.11 53.76 53.43 53.08 53.10 53.46 53.79 54.03 55.04 54.98 55.38 55.18 55.45 55.98 56.76 58.00 58.94 60.08
56.48 55.71 53.65 53.35 52.60 51.94 51.16 50.37 50.17 49.82 49.19 50.14 48.88 48.91 48.43 48.00 47.38 47.31 47.61 49.63 53.67 56.07 55.54 53.91 52.79 52.55 52.05 52.07 52.03 51.99 52.19 52.20 53.12 53.74 53.54 53.70 53.78 53.80 54.13 54.19 54.85 56.57 58.32
55.57 53.46 53.08 51.16 50.77 51.32 50.81 49.78 49.17 48.52 48.00 46.98 45.17 45.00 46.25 45.98 46.54 46.06 46.38 45.77 50.32 50.86 53.84 54.26 52.51 51.97 51.07 51.40 51.53 51.74 51.73 52.02 52.22 52.27 52.66 52.51 52.12 51.86 52.03 52.63 52.98 54.03 55.37
54.23 52.80 51.70 50.51 50.61 50.20 49.66 49.12 48.04 47.63 45.94 44.52 44.63 43.05 42.69 43.75 43.79 46.62 45.07 45.77 47.51 47.85 47.61 54.18 53.51 50.74 49.41 49.58 49.92 50.74 51.23 51.14 51.19 51.83 51.90 50.76 50.41 50.18 50.29 51.03 51.85 52.45 53.37
52.49 51.85 51.10 50.36 49.74 48.72 48.01 46.88 45.96 45.20 44.91 43.18 46.48 44.00 41.68 42.78 42.72 41.71 41.79 44.19 44.18 45.69 47.18 44.32 41.85 44.47 49.24 47.68 48.06 48.38 49.13 49.62 50.01 50.47 50.14 49.41 48.94 48.67 48.90 49.49 50.29 51.26 52.14
51.67 50.06 49.35 49.02 48.54 47.44 46.15 46.23 44.22 43.05 42.64 42.73 40.33 39.91 40.22 41.03 40.79 40.24 40.57 40.87 41.41 42.65 44.84 44.90 42.44 40.33 42.05 46.04 44.96 45.31 46.86 47.35 47.16 47.41 47.24 47.26 47.31 47.20 47.28 48.05 49.01 49.89 51.19
50.21 50.65 48.75 48.00 47.36 46.35 45.19 43.92 42.85 41.51 42.01 41.19 38.04 37.18 34.44 36.79 38.62 39.77 38.51 39.88 37.61 39.66 42.02 42.85 41.24 41.12 40.16 39.65 40.46 43.66 44.09 44.40 45.24 45.69 45.80 45.45 45.81 46.41 46.81 46.98 48.15 48.74 50.06
50.12 47.88 46.17 44.41 44.16 44.81 43.59 42.68 42.31 41.42 39.31 39.87 40.01 37.16 33.25 30.94 33.14 36.41 36.96 36.61 35.78 35.73 35.96 37.95 38.68 38.92 38.33 37.11 39.13 40.72 44.22 43.37 43.23 43.86 44.78 44.62 45.13 45.56 46.04 46.38 47.26 47.81 48.90
44.63 44.46 44.00 43.16 41.99 41.85 41.05 42.65 44.49 41.56 40.00 37.67 38.88 40.83 36.51 35.14 29.96 28.67 32.79 33.84 34.90 35.93 34.78 35.19 35.82 37.05 37.33 36.80 40.25 43.25 44.80 42.32 40.81 41.90 43.14 44.12 44.46 44.69 44.90 45.72 46.45 46.91 47.80
43.46 43.14 43.24 41.70 41.10 41.98 41.43 41.65 41.98 40.95 40.35 38.91 37.63 36.48 34.84 33.85 32.65 29.42 26.40 29.21 32.45 33.73 34.61 34.43 34.68 35.09 36.81 36.25 35.21 37.69 43.04 41.73 41.10 41.30 42.20 43.02 43.68 43.93 44.18 44.56 46.23 46.12 46.58
41.58 41.53 41.76 41.13 41.28 41.71 41.51 41.89 40.66 40.18 39.69 39.28 38.55 36.72 34.48 32.53 31.18 29.78 27.72 27.86 28.06 30.94 32.83 33.71 33.80 34.08 34.86 34.80 39.44 42.68 43.04 42.36 41.36 40.50 41.11 41.67 42.28 42.72 43.66 44.03 44.82 45.55 45.87
39.27 38.94 40.32 39.72 39.89 41.53 42.57 41.70 40.34 40.06 39.41 38.19 37.33 36.03 35.75 34.57 34.14 32.45 30.20 28.13 27.24 29.26 30.25 31.83 33.21 33.68 36.20 33.93 34.47 40.11 39.52 40.13 39.69 39.08 39.60 40.14 40.80 41.20 41.67 42.48 43.52 44.06 44.66
38.73 39.25 39.53 39.68 40.08 40.88 41.92 41.10 40.43 39.82 39.76 38.29 36.90 36.35 35.10 34.42 34.42 33.20 31.11 28.22 24.99 25.99 27.45 28.86 31.85 32.82 33.34 32.54 35.07 38.29 33.70 37.32 38.28 38.92 38.18 38.32 38.76 39.50 39.84 40.95 41.99 42.03 43.11
40.74 39.47 39.08 39.17 39.43 39.11 40.69 40.88 39.68 39.36 38.94 38.47 37.39 35.64 35.56 35.24 34.88 33.59 32.61 31.07 28.85 22.13 25.53 28.23 27.69 31.67 31.40 31.90 33.38 32.30 31.78 35.91 37.64 37.79 37.55 37.81 38.32 39.08 39.50 40.19 41.10 41.25 41.88
39.41 39.09 38.66 38.86 38.68 38.68 38.60 40.38 39.60 39.63 37.65 36.28 38.24 35.39 36.30 36.14 35.27 33.75 31.29 31.48 30.39 26.67 22.51 27.13 27.35 28.59 29.58 32.49 33.46 32.13 31.61 35.75 35.42 36.65 37.16 38.08 38.54 38.41 38.68 39.23 40.24 40.46 41.14
39.83 38.88 39.27 38.67 38.60 38.66 38.02 36.85 36.36 37.18 36.28 36.19 37.13 35.76 34.74 35.84 32.99 31.45 31.03 29.68 27.81 26.07 22.15 25.00 27.01 27.72 26.84 27.50 29.53 30.07 31.73 31.14 31.78 35.60 37.01 37.46 37.56 37.99 38.13 39.19 39.23 39.63 39.92
39.53 39.07 39.05 38.99 39.12 38.33 36.79 36.16 36.48 37.09 36.93 35.95 35.21 34.65 33.41 35.56 31.50 29.71 27.32 25.26 24.59 24.67 23.22 21.83 24.13 25.02 24.90 26.45 27.33 26.96 30.29 32.44 31.48 34.46 36.18 36.58 37.11 37.26 37.95 38.13 38.77 39.35 39.53
38.76 39.01 39.60 39.63 38.91 37.91 36.84 37.05 36.30 36.42 34.85 35.34 34.73 33.70 33.38 31.99 27.07 25.63 24.97 23.71 23.48 26.34 23.11 21.29 22.20 24.29 24.39 25.31 25.87 27.27 27.67 28.19 31.26 33.94 33.94 35.16 35.79 36.10 36.54 37.19 37.87 38.77 39.19
38.87 38.40 38.84 39.14 38.90 37.94 38.42 37.13 35.92 33.82 33.50 33.96 33.86 32.64 31.41 28.22 26.23 24.76 24.95 23.20 24.06 22.22 22.21 21.52 21.82 22.43 23.50 25.07 24.97 22.91 24.25 27.07 26.79 30.32 32.16 33.74 34.04 34.98 35.44 36.36 37.60 38.67 39.01
39.44 38.92 38.72 38.61 38.97 38.52 37.96 34.88 34.11 32.63 31.09 30.61 30.88 31.07 29.58 30.17 32.10 27.70 25.61 22.70 22.60 21.75 21.39 21.31 21.04 21.86 22.24 22.51 22.52 25.05 23.62 23.76 24.38 26.19 27.20 27.56 28.69 30.12 32.80 34.75 36.31 37.92 37.16
39.62 38.91 38.02 38.37 37.63 38.55 34.52 34.34 32.37 29.28 30.59 29.98 28.66 28.07 27.82 29.92 30.65 30.89 29.73 29.04 26.90 22.17 20.89 20.19 21.51 20.92 21.96 23.01 25.57 22.60 21.35 20.23 18.38 24.65 24.06 23.92 26.88 26.49 30.69 33.01 36.09 36.66 36.74
37.59 37.89 37.89 37.58 36.17 34.55 34.35 33.39 31.58 28.02 28.45 28.08 27.34 26.29 27.41 29.23 26.53 24.74 25.56 26.08 25.43 27.05 27.03 23.01 20.91 19.75 19.50 21.44 21.88 21.47 21.24 20.88 20.43 23.42 23.56 22.08 24.69 24.64 29.97 32.91 35.10 36.59 36.34
37.22 36.92 36.73 36.81 35.69 33.93 33.87 32.78 30.50 26.74 27.49 27.88 26.95 26.52 25.45 23.71 24.38 24.47 22.89 22.04 22.16 22.77 23.50 24.43 20.84 20.35 21.36 23.16 23.19 23.97 23.42 23.11 23.69 24.49 23.94 20.32 24.15 24.63 28.75 30.90 33.53 36.01 37.01
36.30 36.11 37.01 35.79 33.97 31.89 33.09 31.49 28.41 26.22 27.56 27.20 28.22 27.77 27.06 24.06 26.68 26.63 23.27 21.87 21.09 21.91 25.91 26.93 26.54 27.22 27.97 28.89 28.66 27.32 25.04 23.94 20.12 22.00 24.34 22.68 23.37 24.80 26.80 27.82 29.33 33.97 36.34
35.39 35.71 35.19 34.15 33.35 29.53 32.47 31.25 28.85 25.01 26.02 25.98 26.29 26.07 28.41 24.39 26.33 26.37 22.40 20.25 18.89 20.34 21.22 21.64 22.21 23.67 25.71 26.03 29.28 26.18 26.02 23.84 23.14 22.15 24.42 23.75 24.04 24.71 22.90 24.01 24.90 25.91 26.89

GFSMA_sfc_wetblb_024.txt.gz
Wetbulb
57.35 57.13 55.37 54.29 53.64 52.56 51.85 51.30 51.00 49.93 49.41 49.34 49.15 48.94 48.33 48.07 47.01 49.06 51.04 57.41 58.78 59.13 57.96 58.30 57.17 56.10 55.45 54.66 54.72 54.28 54.26 54.21 54.65 55.10 55.07 54.78 54.68 54.79 54.71 55.00 55.52 56.18 57.66
56.01 54.48 53.10 52.56 52.02 52.15 50.87 49.66 48.75 48.34 47.82 47.75 47.77 47.16 47.05 46.34 45.92 45.65 47.28 49.50 57.23 58.49 57.74 56.58 55.40 54.67 53.85 53.58 53.03 52.89 52.85 53.41 53.76 53.60 53.48 53.47 53.13 52.71 52.85 53.19 53.92 54.48 55.33
55.23 52.98 52.46 51.04 50.18 50.27 49.22 48.91 48.26 48.06 47.41 47.50 45.60 45.17 46.40 45.20 45.63 44.61 44.30 47.20 53.40 56.68 56.83 54.57 53.23 52.54 52.24 52.41 51.84 52.11 52.28 52.67 52.05 52.29 53.04 52.23 51.59 51.47 51.43 51.62 52.05 52.76 53.69
53.85 52.45 50.29 49.39 49.34 49.62 48.63 47.74 47.40 46.70 45.93 44.29 42.64 42.12 42.55 44.09 43.38 43.54 43.00 45.75 48.85 50.04 53.67 54.25 53.05 51.73 51.25 50.81 50.72 50.98 51.35 51.03 50.76 51.20 51.71 51.34 50.86 50.33 49.88 50.05 50.55 51.20 52.03
53.60 51.15 49.30 48.67 48.75 48.17 47.29 47.08 45.75 44.81 43.79 42.61 43.43 41.64 41.02 41.66 41.45 43.49 41.82 42.66 45.68 46.96 46.54 51.15 51.37 50.58 49.14 48.60 48.93 49.41 49.76 50.09 50.05 50.40 50.53 49.76 49.23 48.91 48.59 48.77 48.86 49.81 50.55
51.86 50.05 48.72 47.91 47.96 46.74 45.49 44.83 42.87 42.87 42.69 41.47 44.54 41.88 39.72 39.95 39.64 38.99 39.48 41.64 41.29 41.79 42.23 41.97 42.21 45.21 49.13 46.38 46.38 46.76 47.85 48.57 48.43 47.73 48.23 47.94 47.96 47.72 47.56 47.69 48.10 48.55 49.56
49.64 48.54 48.02 47.44 46.65 45.60 44.35 44.02 42.09 41.05 40.59 40.43 38.47 38.45 38.45 38.45 38.17 37.97 38.34 37.32 38.02 39.49 39.67 40.50 40.24 38.69 39.43 45.59 45.19 45.29 46.13 46.88 46.23 46.20 46.33 46.25 46.29 46.52 46.77 47.10 47.29 47.61 48.39
49.09 48.97 47.23 46.14 45.40 44.39 43.26 42.71 41.46 40.27 40.42 39.28 37.04 35.59 33.09 35.44 36.57 37.31 36.14 37.03 34.41 36.49 37.43 38.97 38.47 38.58 38.05 37.34 39.84 45.41 45.53 44.59 45.27 45.35 45.35 45.14 44.99 45.70 46.08 46.29 46.59 46.91 47.39
46.84 45.04 43.47 42.16 41.76 41.77 40.90 40.53 40.63 40.03 38.22 38.45 37.64 36.11 31.72 29.89 31.28 34.46 34.11 33.36 33.48 33.68 33.79 35.54 36.32 36.64 36.23 35.40 38.01 40.40 43.94 42.66 42.13 42.83 43.85 44.26 44.60 45.11 45.45 45.64 45.75 46.18 46.57
43.31 43.24 42.35 41.32 40.70 40.40 39.60 39.73 42.81 39.84 38.65 36.85 37.40 38.98 35.30 34.29 28.98 27.35 31.48 32.21 33.25 34.32 32.99 33.66 33.87 35.37 36.02 35.05 38.46 41.71 43.58 42.79 41.07 41.62 42.81 43.66 44.39 44.59 44.51 44.93 44.92 45.58 46.09
42.12 41.98 41.21 40.23 40.11 40.40 39.98 40.86 39.88 39.53 39.05 37.83 36.96 35.78 33.76 32.16 30.67 28.39 25.62 28.36 31.01 32.43 32.61 32.67 32.58 33.06 34.63 34.56 33.59 36.51 43.02 42.80 41.05 40.93 41.79 42.40 43.23 43.50 43.65 43.91 44.26 44.87 45.49
40.40 40.01 40.53 39.15 39.56 40.11 41.01 39.94 39.34 39.27 38.35 37.89 37.39 35.84 33.53 31.75 30.52 28.79 26.45 26.98 27.00 29.74 31.37 32.09 32.20 32.48 33.34 33.51 37.64 40.32 39.93 39.28 38.71 39.38 40.20 40.90 41.60 42.46 42.76 43.07 43.38 44.32 44.63
39.84 38.28 38.53 38.21 38.15 40.26 41.29 40.27 39.35 38.96 38.15 36.83 36.13 35.22 34.69 33.92 33.00 31.26 29.05 26.85 25.99 28.17 29.08 30.61 31.66 32.10 34.57 31.86 32.95 38.28 37.98 37.51 37.42 37.87 38.71 39.23 39.63 40.08 40.77 41.29 42.01 42.72 43.84
39.34 40.10 39.72 39.26 38.68 38.64 40.13 40.04 39.19 38.75 38.00 37.04 36.27 35.63 34.73 34.25 33.86 32.99 30.27 27.63 24.61 25.44 26.28 27.61 30.02 30.41 30.38 30.54 33.63 37.21 32.11 35.47 36.19 36.79 37.12 37.16 37.46 38.29 39.05 40.03 40.86 41.74 42.67
41.28 38.33 38.10 38.14 38.06 38.31 37.12 38.57 38.62 38.47 37.72 37.30 36.25 35.85 34.79 33.88 33.85 32.84 32.92 30.94 28.57 20.74 23.63 25.74 26.10 29.03 29.16 29.78 31.32 31.35 29.99 34.20 35.59 35.36 35.77 36.64 37.30 37.84 38.20 38.65 39.34 40.10 40.88
40.98 38.87 39.08 38.02 37.35 37.34 37.68 37.87 38.38 38.46 37.35 35.28 36.20 35.53 34.68 36.29 34.68 33.40 31.41 31.19 29.82 27.23 23.29 24.90 25.13 26.43 27.95 30.10 31.30 30.08 29.49 33.81 33.62 34.64 35.62 35.74 36.13 37.06 37.22 37.72 38.10 39.17 40.08
40.52 39.94 38.99 37.57 38.07 38.34 37.76 36.19 35.45 35.57 35.46 35.81 35.70 34.78 35.06 34.24 32.43 31.31 29.86 29.28 27.25 26.86 22.93 23.20 24.57 25.01 24.23 24.83 27.16 27.85 29.40 28.81 29.16 33.31 34.03 34.72 35.24 35.84 36.26 36.85 37.53 38.26 38.77
39.72 39.10 38.75 37.90 37.95 38.00 36.61 35.29 35.22 35.75 35.39 33.77 33.91 33.72 33.26 35.31 31.10 29.22 26.10 24.80 24.14 23.46 22.55 20.64 21.97 22.31 23.03 24.12 25.07 24.75 28.21 30.63 28.50 32.22 33.29 33.28 34.02 34.85 35.45 36.12 36.07 36.81 37.90
37.93 37.47 37.77 37.97 37.87 37.63 36.85 36.88 35.95 35.21 35.08 34.96 34.32 33.79 33.23 31.23 27.82 25.65 24.89 23.61 23.13 25.79 22.51 20.78 21.18 22.33 22.47 23.41 24.32 25.43 25.83 25.79 29.85 31.72 31.13 31.42 33.03 33.90 33.82 34.09 35.15 36.06 37.61
37.39 36.86 37.88 38.29 38.55 37.99 37.28 37.56 35.57 33.61 32.82 32.80 32.98 31.68 30.48 28.26 26.45 24.96 24.25 22.75 23.37 21.73 21.92 21.09 21.46 21.96 22.17 24.00 23.60 22.35 23.85 25.68 24.83 27.62 28.79 29.28 31.00 31.76 32.26 32.58 34.16 34.55 37.80
38.52 38.05 37.74 37.63 37.83 37.81 38.16 36.02 34.38 32.23 31.02 29.99 30.02 29.95 28.50 29.51 32.10 27.48 24.73 22.78 22.25 21.29 20.95 20.64 20.47 21.10 21.45 21.52 21.34 23.46 23.03 22.72 23.02 24.16 23.80 25.32 25.91 26.58 27.76 30.60 32.75 33.87 35.93
39.34 38.65 37.82 37.12 36.62 37.57 36.34 36.06 33.26 30.26 30.66 29.20 28.53 27.67 27.23 30.18 30.96 31.09 29.80 28.57 25.61 20.98 19.70 19.04 20.16 19.18 19.13 19.29 21.48 20.77 20.70 19.63 19.25 23.56 22.33 22.84 25.36 24.62 26.44 27.67 32.75 34.71 34.93
37.15 37.06 36.38 36.48 35.86 35.93 35.22 35.40 33.54 28.99 28.66 28.03 27.61 26.52 26.93 28.76 27.33 25.18 26.34 25.85 24.53 25.69 25.11 21.26 18.39 18.78 18.32 19.69 20.21 20.33 21.24 21.11 21.03 23.86 23.80 21.75 23.38 22.68 26.11 29.47 32.22 33.39 34.97
36.52 34.68 35.15 36.07 35.26 35.21 34.76 34.42 32.20 27.39 27.46 27.51 26.76 26.01 25.53 24.51 24.26 24.43 23.17 22.34 22.02 22.36 22.77 23.34 21.17 20.50 20.97 22.75 24.19 25.31 25.32 25.08 24.88 24.58 23.90 20.61 22.60 22.73 25.57 27.72 31.50 33.28 34.46
35.39 34.85 35.32 34.60 34.20 32.99 34.50 33.35 29.65 25.91 26.77 27.24 27.95 27.52 26.28 24.63 26.31 28.27 23.64 22.30 21.39 21.56 25.36 26.66 26.90 27.22 27.26 27.63 28.02 26.35 23.19 22.57 20.32 22.33 25.96 24.24 22.01 22.33 24.30 25.41 26.72 33.32 33.61
34.41 34.35 34.10 33.87 34.10 31.41 33.77 33.19 29.86 25.28 26.08 26.00 26.35 26.27 28.96 25.47 27.94 27.31 22.97 21.36 18.76 20.52 20.72 21.91 22.23 23.14 24.36 24.38 27.31 24.71 24.41 21.76 21.65 20.87 24.53 24.67 22.93 21.75 20.44 24.93 25.87 24.41 28.76

GFSMA_sfc_wetblb_027.txt.gz
Wetbulb
56.08 55.49 53.35 52.97 51.98 51.07 50.24 49.21 48.48 48.19 47.71 47.64 46.85 46.72 46.57 45.33 44.95 45.49 46.76 54.98 57.80 58.45 57.30 58.43 57.33 56.21 55.46 55.03 54.43 54.14 54.16 54.73 54.74 54.32 54.21 53.76 53.19 53.05 52.83 53.01 53.29 53.64 54.43
54.12 52.79 51.52 51.02 50.78 49.72 48.72 47.94 47.48 47.11 46.19 45.95 44.99 45.74 44.60 44.02 43.39 43.43 44.11 45.78 56.12 58.34 57.90 56.96 55.61 54.59 54.10 53.51 53.09 53.02 53.61 53.65 53.01 53.32 53.47 52.39 51.70 51.65 51.61 51.48 51.84 52.23 52.76
53.48 51.94 49.99 49.17 49.13 48.43 47.94 47.55 47.23 46.75 45.53 45.11 43.24 43.26 43.52 43.08 42.63 41.91 42.89 44.74 50.92 55.31 56.45 54.63 53.84 52.67 52.64 52.41 51.82 52.01 52.00 51.77 51.48 51.79 51.89 51.84 51.32 50.62 50.30 50.21 50.29 50.63 51.36
52.67 49.97 48.78 48.59 48.14 47.80 47.27 46.43 45.69 44.61 43.59 42.52 41.18 40.44 41.26 41.52 41.61 40.91 41.44 45.72 48.26 48.11 50.29 53.69 52.73 51.81 51.17 50.53 50.83 50.93 50.81 50.45 50.61 50.48 50.89 50.22 49.71 49.42 49.23 48.99 49.06 49.40 49.69
51.64 48.99 48.13 47.49 47.23 46.25 45.71 45.61 43.05 42.95 41.26 40.92 42.23 40.06 39.24 39.02 39.13 41.14 39.98 40.81 41.41 44.35 44.00 49.23 50.29 49.79 48.12 47.44 47.61 48.10 48.86 49.23 49.58 49.71 49.03 48.73 48.60 48.43 48.28 48.14 48.26 48.38 48.79
50.23 48.43 47.17 46.90 46.31 44.93 43.92 42.67 41.42 41.05 40.95 40.25 42.82 40.40 37.93 37.92 37.73 37.20 36.81 39.21 38.50 38.41 39.42 39.88 38.84 39.72 47.09 47.08 46.94 47.07 47.87 48.59 48.54 47.62 47.50 47.31 47.28 46.98 47.28 47.42 47.64 47.69 47.83
48.53 47.36 46.48 45.96 45.31 44.11 42.72 42.51 40.74 40.14 39.92 38.56 37.58 37.56 36.72 36.66 36.57 35.64 35.72 35.10 36.32 36.73 37.24 37.88 37.60 36.58 37.27 44.00 45.46 46.75 47.03 47.45 47.45 47.39 47.10 46.66 46.23 45.93 46.13 46.65 46.86 47.07 47.34
47.57 47.41 45.66 44.42 43.55 42.49 41.39 41.12 40.37 39.46 39.17 38.12 36.27 34.36 32.31 34.59 35.21 35.42 33.76 34.61 32.82 34.69 35.83 36.73 35.84 36.01 35.23 34.94 40.02 43.98 45.08 45.69 46.22 46.07 45.45 45.10 45.21 45.42 45.84 46.05 46.30 46.42 46.43
45.46 43.51 42.17 41.10 40.41 40.10 39.14 38.94 39.85 39.24 37.32 37.31 36.48 35.70 30.91 29.44 30.81 33.26 32.42 32.35 32.12 32.46 32.98 34.65 34.93 35.54 34.90 33.88 36.40 39.29 42.73 42.64 43.03 43.79 44.27 44.49 44.91 45.16 45.48 45.63 45.42 45.70 45.98
42.16 41.71 41.05 40.86 40.43 40.11 39.30 39.30 41.26 38.99 37.59 36.05 36.68 37.93 34.71 33.13 29.31 27.76 30.92 31.40 32.22 33.55 31.94 32.32 32.72 34.14 34.45 33.79 37.04 39.31 41.32 43.16 42.70 42.56 42.97 43.69 44.06 44.46 44.53 44.68 44.79 44.86 45.45
41.72 41.29 41.08 40.16 39.77 40.03 39.96 39.85 39.20 38.50 38.07 37.10 36.20 35.24 33.22 31.33 29.96 28.01 25.69 28.12 30.80 32.08 31.82 31.86 31.99 32.32 33.13 33.12 32.15 35.84 41.44 40.26 39.97 40.67 41.75 42.35 43.00 43.34 43.72 43.69 43.93 44.13 44.46
39.32 40.29 39.76 40.13 41.45 42.37 39.92 39.30 38.57 38.34 37.49 36.90 36.53 35.31 33.01 31.17 30.01 27.94 25.87 26.40 26.80 29.62 30.84 32.01 31.46 31.53 32.00 31.72 36.14 39.26 39.19 38.16 38.07 38.78 39.70 40.65 41.75 42.36 42.50 42.69 42.73 43.38 43.74
38.42 38.76 40.64 40.76 40.81 42.60 40.69 39.85 39.63 37.80 37.18 36.11 35.79 35.11 34.33 33.43 32.58 30.54 28.38 26.63 25.98 27.30 28.37 30.51 31.64 30.48 32.92 29.94 31.37 36.74 37.52 36.48 36.58 37.20 38.04 38.80 39.21 39.74 40.11 40.63 41.57 42.45 43.37
40.25 40.52 40.41 40.64 39.31 38.62 39.21 39.74 38.88 37.81 37.06 36.16 35.41 34.87 35.34 33.75 32.90 32.09 29.49 27.42 24.99 25.84 26.85 28.48 29.65 29.11 28.79 28.91 32.14 35.50 30.57 34.80 35.07 35.37 36.23 36.33 37.10 37.86 38.56 39.19 39.97 40.92 41.51
41.04 40.68 40.13 39.72 38.16 37.55 36.34 37.13 37.61 37.37 37.16 36.26 35.76 34.54 34.27 33.65 32.96 32.23 31.74 30.33 29.04 22.60 23.14 25.91 26.07 27.50 27.77 27.95 28.96 29.20 28.10 32.24 33.90 33.96 34.54 34.94 36.02 36.93 37.41 38.03 38.79 39.36 40.02
41.62 40.17 39.62 39.43 37.44 36.50 37.22 37.02 37.68 38.59 36.51 35.15 34.97 34.41 33.45 33.15 33.62 32.62 30.47 30.19 29.08 27.61 25.18 25.10 24.40 24.93 25.96 28.12 28.76 27.66 27.17 32.40 32.32 33.42 33.09 33.64 34.45 35.59 36.04 36.35 37.18 37.67 38.20
40.40 40.29 39.68 38.58 36.75 36.60 36.90 36.14 35.09 34.87 34.51 34.35 34.25 33.95 33.70 33.87 32.46 30.92 30.19 28.83 26.62 24.93 21.91 22.81 23.83 24.08 23.23 23.36 25.21 25.35 27.21 26.51 27.43 31.86 32.83 33.24 33.28 33.24 34.10 35.41 36.06 36.54 36.86
39.86 38.08 37.92 36.98 36.86 37.73 37.14 35.59 34.07 34.65 33.98 33.55 32.83 32.87 32.85 34.24 30.75 29.29 27.28 25.54 24.20 23.20 22.32 20.47 21.41 21.92 22.27 23.16 23.54 23.48 26.57 28.82 26.87 30.69 31.93 32.08 32.05 32.01 32.47 34.52 34.38 34.49 35.04
37.34 36.97 36.75 36.48 37.26 37.49 36.40 34.78 34.26 34.46 34.23 33.53 33.26 32.35 32.53 32.06 29.07 26.36 25.04 23.86 22.85 24.97 22.40 20.74 20.91 22.06 22.00 22.53 23.21 24.19 24.91 25.28 27.97 30.55 30.15 30.24 30.53 30.95 31.60 32.32 32.85 33.28 33.83
36.41 35.88 36.55 37.20 38.10 36.31 36.23 36.02 34.79 33.07 32.56 32.63 32.34 32.01 31.58 29.73 27.32 25.26 24.65 23.11 22.86 21.38 21.49 20.72 20.82 20.78 21.18 22.95 22.60 21.64 21.70 24.37 23.71 26.44 27.81 28.35 29.81 30.81 31.02 31.07 31.63 32.60 33.43
37.00 36.75 37.15 37.86 36.46 36.20 36.66 35.14 34.09 32.09 31.04 30.51 30.30 29.83 28.67 29.32 31.38 27.86 24.56 22.42 21.85 21.12 20.50 19.44 19.08 19.91 19.95 19.81 19.00 20.35 20.04 20.97 22.43 23.98 24.03 24.22 25.67 26.28 26.59 28.91 30.22 31.59 32.78
38.40 37.68 37.54 36.77 35.35 36.68 36.44 36.94 34.01 30.88 30.59 29.60 28.85 28.18 27.39 31.24 31.86 32.36 31.46 29.31 25.03 20.72 19.29 18.18 18.69 17.81 18.14 18.27 18.84 18.85 19.29 19.64 18.97 24.04 23.10 23.70 25.72 24.49 25.82 26.43 29.65 31.68 32.77
37.54 37.31 36.66 36.16 35.71 34.87 35.99 36.85 35.35 29.85 28.93 28.32 27.72 27.43 26.82 27.84 28.71 27.29 29.57 28.29 26.61 26.61 25.77 20.30 17.67 18.11 17.97 19.37 19.98 20.27 21.18 21.93 21.51 23.95 23.94 22.35 23.31 22.77 25.72 27.59 30.80 32.37 33.16
37.42 36.42 35.34 35.11 34.18 34.66 35.55 35.90 34.22 28.64 27.69 27.06 27.29 26.38 25.56 25.31 25.38 24.85 23.40 22.66 22.26 22.87 22.84 22.85 20.67 20.50 20.73 22.01 22.33 24.07 25.20 24.64 24.24 24.07 24.43 20.77 22.81 22.78 25.20 26.80 31.25 33.28 33.67
35.91 34.95 34.30 33.35 32.93 32.52 35.01 35.15 32.11 26.31 26.10 26.44 27.76 27.07 26.39 25.29 27.65 29.85 24.31 22.77 22.19 22.65 25.62 26.86 26.92 27.20 27.32 27.33 26.11 23.24 20.62 20.76 18.99 20.75 23.66 22.64 21.73 22.75 24.88 25.67 27.37 31.74 32.57
34.38 33.44 32.17 31.82 32.67 30.57 33.23 34.86 31.85 25.38 25.67 26.28 26.39 27.05 31.14 27.16 28.59 29.23 23.88 21.69 20.03 21.93 21.02 21.61 22.17 23.51 24.39 23.75 25.96 23.19 22.52 20.29 19.82 18.67 22.70 21.41 22.77 24.78 21.82 22.50 23.99 25.33 24.51

GFSMA_sfc_wetblb_030.txt.gz
Wetbulb
55.42 53.36 52.07 51.24 50.13 49.94 48.86 48.06 47.49 47.16 46.26 45.74 45.86 45.27 44.88 44.24 44.05 44.37 44.73 52.38 57.28 58.40 57.39 58.52 57.46 56.71 56.02 54.89 54.47 54.60 55.29 54.26 54.15 54.79 53.99 53.06 52.87 52.58 52.20 52.10 52.02 52.12 52.34
53.05 51.44 50.54 50.24 48.93 48.35 47.77 47.27 46.63 45.78 44.48 44.30 44.11 44.14 43.80 42.58 42.44 43.56 44.81 46.02 56.47 58.02 57.91 57.64 56.16 55.25 54.62 53.59 53.37 53.42 52.92 52.75 52.64 53.43 52.74 52.42 51.81 51.12 50.86 50.90 50.92 51.11 51.31
52.03 50.16 49.09 48.51 47.82 47.56 47.15 46.59 45.96 45.11 43.71 43.94 42.21 42.70 42.56 41.80 41.47 42.10 45.34 49.09 49.89 54.29 56.06 55.20 54.13 53.34 53.46 52.57 52.11 52.49 51.98 51.30 51.19 51.39 52.02 51.13 50.44 49.89 49.64 49.76 49.71 49.96 50.20
51.34 48.95 48.54 47.89 47.47 47.03 46.07 45.26 44.33 43.38 42.37 41.92 40.35 40.04 40.26 40.70 40.63 40.99 41.68 45.69 47.03 46.07 49.32 53.73 52.53 51.71 50.28 49.88 49.60 49.85 50.73 50.48 50.14 50.10 50.94 49.96 49.41 49.07 48.86 48.85 48.64 48.95 49.13
50.16 48.82 47.81 46.84 46.00 45.37 44.75 44.28 42.47 42.03 40.51 40.89 40.87 39.22 38.77 38.27 38.36 40.03 39.16 39.90 41.80 41.57 41.59 47.57 47.83 48.61 49.02 48.34 48.22 48.30 48.69 49.05 49.49 49.31 49.05 48.62 48.17 48.09 47.82 47.76 47.96 48.13 48.40
49.30 48.01 46.68 45.81 45.18 43.94 42.53 41.74 40.85 40.63 40.79 40.05 41.78 39.33 37.43 37.36 37.26 36.40 36.69 38.55 37.93 38.40 39.29 39.86 39.46 41.67 46.06 46.41 46.96 47.51 47.97 48.29 48.68 48.69 48.47 48.25 47.59 47.19 46.87 46.82 46.91 47.26 47.57
47.84 46.50 45.64 44.86 44.18 42.74 41.96 41.94 40.50 39.77 38.70 38.26 38.08 37.59 36.94 36.75 35.96 35.46 35.56 35.59 36.46 37.04 38.13 37.94 37.87 37.47 37.88 44.12 45.03 45.15 46.10 46.65 47.24 47.45 47.81 47.40 46.58 46.21 46.35 46.43 46.85 46.95 47.21
46.67 46.37 44.45 43.23 42.56 41.55 40.64 40.65 40.28 39.08 38.67 37.63 36.30 34.45 32.64 35.06 35.79 35.33 34.43 35.14 34.28 35.39 37.06 37.32 37.33 37.29 36.33 36.43 41.39 43.01 43.75 44.39 45.16 45.27 45.27 45.25 45.37 45.69 46.00 46.26 46.38 46.51 46.38
45.48 43.43 41.80 40.32 39.70 39.47 39.07 39.38 39.59 39.14 37.21 36.87 36.45 35.81 32.29 30.40 31.62 34.20 33.77 33.53 33.61 34.04 34.73 35.99 36.59 37.38 36.73 35.97 37.04 38.50 41.79 42.88 43.15 44.20 44.38 44.62 44.70 45.16 45.25 45.46 45.62 45.80 45.94
41.24 40.75 40.74 40.37 40.11 40.24 39.48 40.65 40.87 39.68 37.84 36.27 37.01 37.44 34.96 34.23 31.45 30.19 32.57 32.61 33.18 34.09 34.20 34.61 34.83 35.75 35.78 35.25 37.02 38.66 41.07 41.88 42.12 42.85 43.49 43.93 44.16 44.45 44.61 44.89 45.02 45.36 45.40
40.38 40.83 40.73 40.61 39.77 40.63 41.98 41.77 39.61 38.14 38.07 37.01 36.58 35.96 33.97 32.23 30.69 29.33 27.58 29.67 31.85 33.13 33.62 33.60 33.62 33.83 34.21 34.28 34.47 37.83 40.26 39.41 39.49 40.54 41.58 42.23 42.93 43.39 43.70 43.87 44.35 44.29 44.26
39.27 39.56 39.63 39.21 40.97 42.84 41.04 40.26 38.90 38.25 37.60 36.96 37.15 35.66 34.33 32.24 30.80 28.92 27.16 27.54 27.86 30.86 31.93 33.07 32.97 32.91 33.10 32.81 35.43 37.88 38.21 38.13 37.91 38.50 39.38 40.38 41.21 42.05 42.51 42.73 42.68 42.64 43.14
38.86 38.33 39.23 39.63 40.83 42.53 42.03 39.73 38.51 38.06 37.10 36.45 35.77 35.52 34.74 33.93 33.38 31.45 29.13 28.38 27.50 28.77 29.85 32.19 33.07 32.33 33.23 31.40 32.42 35.73 36.33 35.39 35.73 36.52 37.18 37.74 38.39 39.14 39.60 40.46 41.18 41.97 42.59
39.88 40.33 40.81 39.50 40.49 41.36 39.92 40.30 39.25 37.50 37.37 36.50 35.39 34.92 34.86 34.52 33.50 32.09 30.66 28.70 26.77 27.30 28.21 29.54 31.25 30.85 30.17 30.32 31.82 33.85 30.08 33.24 33.59 34.19 35.07 35.75 36.20 36.98 37.79 38.85 39.48 40.08 40.95
40.73 40.86 40.84 41.17 40.44 38.58 38.82 39.10 39.16 38.04 37.57 36.16 35.62 35.18 34.27 34.49 33.68 33.00 31.79 30.54 28.95 27.47 25.26 28.31 28.18 29.66 28.80 29.11 29.60 30.26 28.81 31.31 33.13 33.47 33.71 34.63 34.71 35.39 36.04 37.09 38.03 38.46 39.05
40.96 41.00 40.96 39.99 39.10 38.59 38.48 38.29 37.50 37.71 36.94 36.04 35.58 34.13 33.73 33.60 32.87 32.45 31.41 31.56 30.34 28.26 26.95 28.53 27.43 27.34 27.94 28.67 28.96 29.30 28.10 32.01 31.63 32.21 32.87 33.16 33.83 34.46 34.91 34.98 35.36 36.28 37.38
41.46 41.22 39.95 39.24 38.40 37.93 37.92 36.91 37.12 36.55 34.76 33.76 34.09 33.91 33.63 33.38 32.66 31.79 30.71 30.16 28.74 27.68 25.95 25.54 25.70 26.12 25.34 25.47 26.45 26.76 27.53 27.44 28.16 31.32 31.81 32.44 32.60 32.50 32.70 33.09 33.61 34.42 36.44
40.61 40.06 39.57 38.25 37.97 38.09 37.48 36.05 34.39 34.44 33.65 33.36 33.36 32.88 33.18 34.64 32.00 30.84 29.38 27.90 26.14 25.16 23.86 22.09 23.15 23.98 24.01 24.95 24.78 24.86 26.49 28.11 28.28 29.94 31.16 31.33 31.34 31.62 31.76 31.93 32.24 33.06 34.15
39.35 38.52 38.31 37.76 37.44 37.62 36.60 35.10 34.42 34.12 33.46 33.17 32.92 32.16 32.16 31.59 30.15 28.66 27.31 25.91 24.79 25.78 23.75 22.23 22.01 23.79 23.87 24.22 24.41 25.34 25.57 26.25 27.27 29.62 29.62 30.04 30.58 31.25 31.57 32.05 32.43 32.44 32.80
38.46 37.87 38.18 37.81 37.80 37.79 36.93 36.15 34.85 33.39 32.99 32.69 32.82 32.05 31.60 30.90 29.78 28.03 26.49 25.13 24.41 22.87 22.55 21.91 21.78 21.77 22.14 23.93 23.83 22.38 21.47 23.99 23.81 26.38 28.00 28.70 30.06 30.68 31.11 31.38 31.52 32.01 32.30
38.52 38.21 37.93 37.90 38.12 37.81 36.66 35.25 34.21 32.81 31.56 30.91 31.21 30.99 31.09 31.26 32.95 28.81 25.97 24.42 22.89 21.95 21.96 21.16 20.07 20.42 20.29 19.89 19.97 21.45 20.00 22.04 23.27 25.17 25.52 26.50 27.60 28.32 28.68 29.65 30.13 30.85 31.55
38.03 37.81 37.18 37.27 37.36 37.27 36.25 36.88 35.34 31.89 31.05 30.17 29.26 29.04 28.44 32.23 32.57 34.13 33.38 29.85 25.49 22.65 21.14 19.48 19.59 18.78 18.99 19.43 20.83 19.91 20.37 20.14 19.40 26.45 24.80 24.77 27.50 26.65 28.02 28.71 29.74 31.37 32.42
37.59 37.69 38.09 37.74 36.90 36.21 36.13 36.47 36.24 31.72 30.12 29.76 28.87 28.41 27.71 27.79 29.52 27.90 31.38 31.26 29.32 28.59 26.78 22.33 19.34 19.23 19.06 21.02 21.31 20.57 21.34 21.71 22.17 25.13 25.22 22.79 26.19 25.05 27.89 28.77 30.33 31.63 33.58
38.43 38.23 37.40 36.52 35.45 34.78 35.35 35.78 35.16 31.87 29.38 28.75 28.01 27.61 26.81 26.54 26.19 26.13 25.54 24.64 23.90 23.98 24.21 24.02 21.75 21.28 21.77 22.79 22.77 23.38 22.80 23.29 23.85 24.67 25.39 20.45 25.10 24.62 27.55 28.31 29.93 31.42 32.93
37.69 36.77 36.36 35.40 33.51 32.16 34.29 34.65 34.00 29.50 27.97 27.58 27.91 27.69 27.00 26.08 28.52 31.10 25.17 23.50 23.22 23.40 26.92 28.10 27.46 27.11 27.72 27.81 27.04 24.00 20.71 20.06 18.66 20.61 24.22 22.28 24.25 24.05 26.16 27.08 28.89 30.27 32.00
36.08 35.58 33.20 32.27 31.97 30.30 32.75 34.13 34.11 27.06 26.47 27.05 26.81 27.81 31.37 27.57 29.63 30.40 26.78 23.69 21.42 22.89 23.53 22.64 22.75 24.07 25.92 24.80 26.45 24.23 22.31 19.16 18.95 18.40 24.16 21.67 22.75 24.16 23.00 27.04 27.41 29.46 29.32

GFSMA_sfc_wetblb_033.txt.gz
Wetbulb
61.42 58.99 57.74 57.22 56.63 56.39 55.97 55.39 55.01 54.26 53.45 52.59 52.52 52.22 51.47 51.91 52.74 53.60 54.19 56.26 57.86 58.40 57.60 59.89 58.46 57.61 55.92 55.06 55.11 55.22 53.96 53.81 54.35 54.03 53.53 53.01 52.46 51.89 51.73 51.55 51.57 51.63 51.82
58.94 57.56 57.01 56.31 55.88 56.32 55.99 55.46 54.39 53.27 52.17 51.98 51.23 50.87 50.22 50.77 52.18 53.24 53.68 56.64 56.45 58.58 58.02 58.57 57.26 56.46 55.10 53.68 52.78 52.89 52.08 52.12 51.74 51.87 52.43 51.61 50.75 50.58 50.33 50.37 50.41 50.45 50.71
58.81 57.71 56.35 55.39 55.11 55.32 54.91 54.29 53.08 52.55 51.59 50.52 49.84 49.95 49.68 49.61 50.70 52.51 54.33 55.87 56.03 55.59 57.06 56.34 54.43 53.94 54.05 52.47 52.12 52.06 51.48 50.90 51.21 50.62 50.61 50.43 50.07 49.50 49.13 49.21 49.10 49.21 49.41
57.62 57.16 55.78 55.06 54.76 54.66 53.93 52.95 52.20 51.00 50.74 50.58 49.79 48.80 48.95 48.50 48.93 50.52 53.00 54.21 53.30 53.67 53.68 53.11 52.81 51.70 50.20 49.83 50.02 50.00 50.26 49.92 49.99 50.17 50.10 49.87 49.59 48.82 48.40 48.14 48.07 48.21 48.42
56.24 56.28 55.39 54.15 54.27 52.99 52.30 51.66 50.84 50.97 49.93 49.96 48.39 48.43 47.84 47.16 46.91 47.30 49.68 50.23 49.53 49.87 50.37 48.07 48.93 48.83 48.87 48.56 48.60 48.54 48.72 49.09 49.42 49.50 49.53 49.23 49.05 47.99 47.86 47.57 47.31 47.46 47.63
55.62 54.82 53.66 53.31 52.78 51.50 50.78 50.99 50.37 49.88 50.18 50.28 47.35 46.85 46.64 46.59 46.79 46.49 46.04 46.12 46.58 47.02 47.84 47.22 47.84 47.25 46.14 45.82 45.76 46.44 47.24 48.15 48.67 48.65 48.80 49.10 49.01 48.40 47.46 46.96 47.20 47.56 47.70
54.62 54.00 52.78 52.23 52.19 51.61 50.73 50.66 49.32 48.48 48.24 48.81 47.86 47.14 45.51 45.68 45.60 45.46 46.35 46.30 44.87 45.50 46.37 47.07 47.29 46.85 45.85 44.07 44.60 44.89 45.58 46.08 46.35 46.53 46.57 46.61 46.74 46.73 46.54 46.68 47.07 47.04 47.40
53.71 52.97 52.50 51.77 51.32 50.11 49.88 49.63 48.96 47.73 48.24 47.96 46.51 45.24 42.87 43.09 44.47 43.90 44.85 44.53 44.35 45.22 44.83 44.67 45.12 45.10 45.42 45.16 43.98 42.94 43.44 43.78 44.70 45.18 45.46 45.59 45.74 46.07 46.14 46.38 46.65 46.62 46.71
53.09 52.38 51.89 50.69 49.22 48.76 47.72 48.45 48.61 47.39 45.31 45.54 45.70 45.44 41.38 40.54 42.53 44.14 42.92 43.76 43.85 44.33 44.91 44.34 43.88 43.98 44.05 44.50 42.26 41.74 41.36 42.38 43.45 44.18 44.34 44.68 45.25 45.53 45.70 45.88 45.99 46.16 46.28
51.01 50.18 48.92 48.65 48.27 48.14 47.71 47.76 47.09 45.98 46.80 44.72 45.57 45.23 45.63 44.42 40.37 38.75 43.39 43.70 43.18 42.40 43.06 43.75 43.27 43.27 43.18 42.96 40.26 39.53 41.15 40.55 41.10 42.30 42.98 43.65 44.12 44.41 44.66 44.82 44.92 45.36 45.57
48.75 47.67 48.18 48.12 47.88 47.69 47.91 48.03 46.82 46.05 46.78 45.95 45.68 45.03 44.72 43.94 42.60 39.45 36.98 39.55 42.04 43.14 43.06 42.87 42.82 42.47 42.02 41.80 42.41 40.82 39.12 38.95 39.28 40.29 41.25 42.05 42.69 43.12 43.57 43.82 44.18 44.48 44.81
46.39 47.28 47.22 47.55 47.96 47.86 47.36 46.81 44.45 44.81 45.87 45.77 45.46 44.75 43.46 41.73 40.42 39.24 37.56 38.18 37.88 40.17 41.85 42.47 41.85 41.72 42.13 41.92 38.13 36.91 37.26 37.01 36.81 37.30 38.37 39.25 40.24 40.92 41.44 41.99 42.64 43.09 43.34
45.36 45.77 46.52 46.55 46.87 46.45 45.32 43.59 44.36 46.27 45.79 45.23 44.51 44.03 44.18 42.97 42.65 41.15 39.28 38.01 36.82 39.44 39.64 41.51 42.03 41.87 40.24 40.47 39.12 35.73 36.43 34.59 34.55 35.22 36.00 36.92 37.85 38.66 39.16 39.90 41.00 41.81 42.64
45.79 46.16 46.07 46.70 46.93 45.75 45.02 46.39 46.24 46.06 45.94 45.47 44.51 43.96 43.85 43.47 43.06 41.74 39.81 38.43 35.98 36.90 38.09 37.97 41.32 40.74 39.70 39.22 36.60 34.87 36.39 33.91 33.54 33.83 34.74 35.44 35.88 36.64 37.30 37.58 38.47 39.35 40.60
45.40 45.34 45.80 43.13 45.37 45.26 43.48 44.44 45.18 45.19 45.61 45.76 44.86 44.54 43.28 43.54 42.94 42.16 41.37 40.24 37.71 33.18 34.05 37.50 36.75 39.60 39.30 38.67 36.60 36.10 35.63 33.83 32.80 33.46 33.40 33.72 34.75 35.42 35.90 36.48 37.04 37.68 38.18
45.68 45.32 44.84 44.90 44.32 41.81 44.03 43.52 44.33 44.28 44.57 45.06 44.67 43.47 42.78 42.35 42.18 42.02 41.40 40.57 39.42 36.96 33.10 37.40 37.59 37.92 37.68 35.60 35.29 35.03 34.12 32.56 32.38 32.04 32.25 32.88 33.48 34.02 34.57 34.85 35.28 35.82 36.30
45.93 44.54 43.35 44.20 40.89 41.67 42.26 42.34 42.85 43.20 43.07 44.20 43.47 41.79 41.63 42.01 41.26 41.16 40.62 40.05 38.74 37.84 34.20 35.96 36.32 36.19 34.55 34.14 34.32 34.23 33.25 32.95 33.43 32.18 31.65 31.85 32.23 32.53 32.82 33.04 33.40 33.71 34.25
45.11 43.73 42.97 40.80 41.52 41.02 41.72 41.18 40.75 41.93 42.58 41.96 41.37 40.94 40.60 40.58 40.78 41.13 40.35 39.21 38.11 38.04 34.96 32.13 34.47 33.03 32.51 33.65 32.82 31.42 31.31 32.09 32.47 31.52 30.81 31.48 31.60 31.63 32.14 32.53 32.87 33.20 33.57
43.45 42.72 42.05 40.55 40.23 41.42 41.29 41.15 40.66 41.32 41.05 41.07 41.10 40.62 40.62 40.70 40.14 39.88 38.83 37.76 37.43 35.38 34.63 32.19 31.24 32.90 32.25 32.31 30.84 30.99 30.94 31.44 31.23 30.87 30.49 30.65 30.94 31.64 31.87 32.26 32.71 32.94 33.19
40.65 40.99 41.64 42.38 42.52 42.09 41.08 40.41 41.51 40.43 40.27 40.16 40.19 40.15 40.49 39.92 39.65 39.56 38.20 37.23 35.79 33.96 32.98 31.29 30.77 30.51 30.70 31.09 29.85 27.86 27.98 30.30 29.61 30.70 31.01 30.70 30.93 31.45 31.67 31.97 32.20 32.58 32.81
41.54 40.83 41.88 40.73 40.94 40.43 40.88 41.46 41.57 40.63 40.27 39.78 39.90 39.58 40.03 39.65 38.26 38.15 36.99 36.54 34.48 32.83 31.86 30.61 29.64 29.42 29.02 28.72 26.81 28.01 26.74 27.98 29.26 30.84 30.58 31.52 31.94 32.48 33.34 32.71 32.80 32.38 32.07
39.57 41.47 41.03 40.52 40.31 40.76 38.61 37.40 37.46 39.97 39.89 39.03 39.41 39.55 39.31 36.78 36.56 34.90 33.40 32.99 33.59 32.81 30.93 30.14 29.09 27.56 28.22 28.01 27.74 27.07 26.11 25.19 23.87 31.52 29.15 28.58 31.78 31.04 32.71 33.75 32.17 31.59 31.94
40.15 40.50 40.84 41.28 40.50 40.67 37.20 36.81 36.24 38.71 39.68 39.94 39.29 38.99 37.96 35.89 34.26 35.82 33.94 33.85 31.53 29.71 30.07 31.57 28.46 28.76 28.09 27.78 27.49 26.24 26.58 25.91 25.49 28.37 28.19 26.13 30.47 29.97 32.83 32.97 32.63 31.93 31.82
40.74 40.86 41.55 41.23 39.97 39.21 36.60 35.98 34.80 38.52 38.88 38.82 38.82 38.56 37.80 37.44 35.74 34.76 33.78 33.30 33.41 32.97 31.71 30.20 30.54 30.42 29.73 29.11 28.57 27.59 27.02 27.11 27.71 28.92 29.56 23.57 29.52 28.91 31.90 33.06 32.91 32.23 32.01
40.90 40.99 39.96 38.27 37.47 39.40 36.31 34.86 34.66 37.34 37.03 37.31 37.62 37.14 36.82 36.44 34.86 32.01 32.02 31.26 31.57 31.26 30.30 29.28 29.31 29.41 27.51 27.65 28.83 28.72 25.99 24.89 23.61 25.58 28.85 26.57 28.15 27.68 29.90 31.32 33.91 31.98 32.01
39.97 37.89 36.77 37.86 37.83 36.79 35.17 34.06 34.73 36.96 35.92 35.79 36.44 35.39 32.63 34.33 32.79 31.60 32.51 31.39 29.41 30.74 30.82 29.51 29.78 28.88 28.78 29.40 28.34 29.22 28.00 24.28 23.93 23.10 28.86 24.74 25.56 26.15 24.98 31.31 32.25 33.97 34.39

GFSMA_sfc_wetblb_036.txt.gz
Wetbulb
64.97 64.37 63.05 62.69 62.14 61.50 61.33 60.26 59.41 58.86 58.15 57.45 57.27 55.97 55.07 54.74 54.55 54.58 55.81 57.86 58.29 58.73 58.51 60.10 59.03 57.60 56.10 55.37 55.77 53.39 53.28 52.90 52.36 52.67 52.97 51.88 51.30 51.30 51.01 50.85 50.85 50.96 51.04
64.39 63.11 62.27 61.48 61.27 61.52 61.01 60.43 59.34 58.35 57.64 57.35 55.63 54.24 53.32 53.23 54.12 54.83 55.24 57.07 56.88 58.65 58.08 59.36 58.41 57.12 55.52 53.92 52.46 52.43 52.71 51.80 51.65 51.51 51.39 51.17 50.35 50.32 49.89 49.67 49.46 49.60 50.07
64.00 63.34 62.31 61.42 60.86 60.51 59.94 58.78 58.24 58.05 57.19 55.44 53.32 53.59 53.67 53.17 53.53 53.52 54.95 55.58 56.44 55.49 57.65 56.53 55.48 54.69 54.25 52.94 51.93 51.33 51.33 50.97 50.53 50.49 50.85 50.52 50.65 50.28 49.33 48.89 48.54 48.52 48.52
63.89 62.84 61.45 60.78 60.24 59.77 59.10 58.34 57.59 56.52 55.98 54.93 54.22 53.62 53.78 53.66 52.99 53.58 55.19 55.64 55.28 55.22 53.85 53.17 52.92 51.72 50.73 50.32 50.28 50.69 50.39 50.05 49.92 50.39 50.36 50.31 50.26 50.00 48.28 48.48 48.42 47.91 48.23
62.50 62.60 61.24 60.17 59.99 58.61 58.08 57.06 56.14 56.31 54.02 53.83 52.72 53.85 53.60 53.16 52.05 52.08 53.52 53.94 54.11 54.80 55.23 49.10 49.54 49.29 49.01 48.54 48.53 48.57 49.11 49.52 49.86 49.91 49.98 50.04 50.01 50.04 49.28 48.78 48.25 47.89 48.27
61.91 61.95 60.68 59.29 58.74 57.25 56.58 55.89 54.56 53.96 53.42 53.43 49.86 50.61 51.54 51.48 51.43 51.66 50.61 51.01 51.93 52.40 52.03 51.32 50.66 49.25 45.95 45.94 45.84 46.22 47.07 47.63 47.94 47.90 47.64 47.52 47.76 47.83 47.80 47.88 47.68 47.80 48.24
61.27 60.65 59.24 58.16 57.78 56.87 56.16 55.49 53.83 51.34 51.99 53.24 51.01 51.02 50.61 50.20 49.73 49.88 50.65 50.78 48.91 49.17 50.09 49.08 49.03 48.84 48.33 44.83 44.17 45.16 45.37 46.07 46.07 46.21 46.36 46.39 46.70 46.87 46.99 47.36 47.45 47.41 47.86
60.62 59.44 58.49 57.50 57.53 56.05 55.19 54.07 52.35 51.56 52.88 52.16 49.80 49.11 47.21 47.89 48.72 48.73 49.08 48.25 48.73 48.38 47.94 47.21 47.74 47.36 47.36 47.13 45.37 41.89 42.58 43.52 44.61 45.38 45.67 45.38 45.72 46.14 46.49 46.76 47.12 47.18 47.29
59.37 58.31 58.27 57.58 56.87 55.83 53.69 52.80 51.93 51.55 50.84 50.74 50.62 47.58 45.15 45.17 47.33 48.54 47.55 47.60 47.36 47.31 47.83 47.02 46.69 46.38 46.37 46.45 44.56 44.21 41.41 41.98 42.81 43.63 44.54 44.77 45.05 45.45 45.72 46.00 46.21 46.49 46.72
58.11 57.69 57.31 55.94 55.48 54.10 52.70 51.81 52.43 52.49 51.07 49.68 49.84 48.72 48.79 47.06 43.01 42.96 46.92 47.04 47.35 46.35 46.97 46.74 46.47 46.53 46.22 46.00 43.03 40.62 40.79 40.29 40.45 41.76 42.93 43.59 44.10 44.40 44.58 44.79 45.04 45.37 45.78
57.15 56.67 55.03 53.39 52.91 52.83 52.05 52.46 51.79 50.87 51.56 46.94 48.22 48.92 47.68 47.20 46.48 43.32 41.11 43.57 45.79 46.08 46.72 46.18 46.41 46.17 46.06 45.51 45.31 43.38 38.26 38.35 38.42 39.47 39.96 40.86 41.55 42.12 42.65 43.06 43.36 43.72 44.17
54.74 53.04 51.20 51.88 53.27 52.09 51.98 52.33 50.53 51.09 48.48 49.28 49.06 47.88 46.18 45.22 44.46 43.30 41.79 42.33 42.21 44.28 45.35 45.42 45.52 45.55 45.46 45.13 42.70 36.73 37.63 37.59 37.04 37.20 37.90 38.45 39.22 40.12 40.98 41.63 42.18 42.68 43.10
49.64 49.66 51.08 51.85 51.90 52.01 51.89 51.14 50.67 48.34 49.25 48.39 47.88 47.19 47.41 46.12 45.58 44.07 42.49 41.65 40.96 43.35 43.63 44.63 44.78 45.10 44.53 44.58 44.00 36.50 38.90 38.58 35.98 35.99 36.42 36.83 37.58 38.34 38.96 39.65 40.51 41.25 41.54
48.82 51.26 51.37 52.17 51.44 48.67 49.97 49.44 48.21 47.29 48.04 48.60 47.91 47.49 46.66 46.31 46.02 44.81 42.92 41.31 39.19 40.51 42.20 42.21 44.37 44.32 43.91 43.68 41.89 36.23 40.09 39.06 37.07 35.35 34.94 35.58 36.01 36.41 36.98 37.73 38.62 39.15 39.87
51.76 51.52 51.52 50.13 49.34 49.41 48.69 48.79 47.02 47.88 48.17 49.04 48.33 47.29 46.25 46.04 45.86 45.35 44.45 43.33 40.49 36.53 37.64 41.27 40.74 43.63 43.45 43.19 42.12 40.79 39.41 38.26 35.78 34.33 34.00 34.03 34.69 35.34 35.82 36.44 36.71 37.32 37.86
53.64 51.11 50.38 49.24 47.46 46.81 47.67 47.32 44.76 47.77 48.24 48.26 46.83 46.32 45.69 45.27 44.71 44.71 43.93 43.47 42.78 39.95 36.39 40.80 40.96 42.14 42.39 40.95 40.75 39.20 38.59 36.87 36.16 35.58 34.00 33.45 33.70 33.93 34.36 34.63 35.05 35.58 35.86
52.73 48.70 49.78 48.32 45.88 46.89 45.70 45.18 46.70 46.99 45.38 45.49 46.38 45.13 44.40 44.84 44.08 44.04 43.96 43.22 41.97 41.25 37.79 39.67 41.10 41.55 40.31 39.03 38.82 39.20 38.48 37.35 37.02 35.99 34.30 33.29 32.57 32.43 32.98 33.24 33.45 33.99 34.58
51.54 50.36 50.11 47.33 44.22 45.56 45.91 44.44 44.56 43.50 43.72 43.82 44.75 44.96 43.86 43.77 43.86 44.04 43.30 42.19 41.85 41.89 39.35 36.79 38.99 38.97 38.97 39.08 38.16 37.07 36.14 36.06 36.09 35.85 33.64 32.69 32.12 31.99 32.14 32.63 32.97 33.30 33.72
51.44 50.89 49.65 46.42 43.26 44.15 44.23 45.20 43.17 41.54 42.47 43.66 44.14 43.82 43.69 43.87 43.00 42.98 42.80 41.82 41.83 40.81 40.34 37.78 36.71 38.59 38.13 37.84 36.64 36.42 35.62 35.62 35.82 35.04 34.57 34.22 32.81 32.42 32.53 32.50 32.92 33.18 33.66
51.06 49.24 44.00 43.09 43.31 44.39 43.81 43.11 43.10 43.18 43.89 42.73 43.04 43.32 43.00 43.13 42.88 42.81 42.16 41.90 41.20 40.13 39.36 37.56 36.36 36.17 36.33 36.86 35.79 33.48 32.88 34.55 33.92 34.74 34.97 34.40 33.20 33.38 33.08 33.26 33.24 33.48 33.57
46.25 43.04 41.68 42.29 41.98 42.41 42.80 43.30 43.45 41.86 42.56 42.01 42.92 43.42 43.72 43.09 40.97 41.25 41.92 42.10 41.02 39.45 37.78 36.43 35.30 35.14 34.44 34.05 33.00 33.87 31.44 32.71 33.45 34.47 33.98 34.69 34.82 34.69 35.63 35.29 34.88 34.72 33.83
41.21 40.96 40.77 42.34 42.23 41.82 39.00 38.37 39.16 40.32 42.15 41.91 41.81 43.13 43.66 41.38 40.00 37.76 36.72 36.30 37.60 39.17 37.17 36.04 35.22 33.20 33.54 33.62 34.09 32.12 30.98 29.56 28.02 35.05 32.66 31.68 34.46 33.50 34.91 36.14 34.98 33.70 33.39
41.32 41.25 41.75 42.20 42.43 43.32 39.01 38.56 37.46 38.32 40.25 41.63 41.75 41.94 41.89 41.93 39.94 41.51 36.49 34.75 33.27 32.60 32.64 36.23 34.76 34.22 33.22 34.20 33.72 31.09 30.83 30.21 29.40 32.12 31.79 29.76 33.59 32.12 34.84 35.56 34.92 34.29 34.27
41.51 41.64 41.96 43.14 43.35 42.39 38.33 37.26 36.59 40.98 41.31 41.40 41.62 41.36 41.23 41.53 41.91 40.87 40.21 39.53 38.33 38.35 35.91 34.04 34.87 35.31 35.53 35.37 33.60 32.04 31.33 30.97 31.54 32.87 33.34 27.79 32.51 31.30 33.78 35.34 34.80 35.03 33.17
44.45 43.97 42.59 42.55 41.54 39.65 37.57 37.67 36.43 39.78 39.04 39.58 40.58 40.86 40.89 40.94 38.75 37.21 38.57 37.89 37.93 37.83 35.94 34.35 33.81 32.56 30.72 29.40 29.46 31.24 29.32 28.43 27.68 29.70 32.78 30.28 30.74 29.96 31.54 32.76 35.11 34.62 34.09
42.59 40.93 39.11 38.59 38.23 41.65 37.97 36.16 36.15 38.88 38.03 38.79 39.77 39.84 36.35 37.48 35.81 34.45 37.17 36.65 35.36 36.86 36.95 35.62 33.38 31.68 30.82 32.10 29.16 30.76 30.67 27.81 27.94 27.03 31.91 28.87 29.38 28.79 26.08 31.71 33.34 34.10 35.36

GFSMA_sfc_wetblb_039.txt.gz
Wetbulb
65.33 64.63 64.30 63.71 63.54 63.38 62.74 61.86 60.67 60.14 59.22 58.64 58.27 56.57 55.04 54.91 54.95 54.66 56.89 58.03 58.27 58.57 59.32 60.29 59.73 58.12 56.97 57.41 54.98 53.68 53.49 52.92 52.81 53.41 52.73 51.92 50.96 50.90 50.81 50.36 50.22 50.33 50.61
66.46 64.18 63.99 63.37 63.06 63.11 62.95 62.01 60.71 59.39 58.50 58.33 56.36 54.60 53.95 53.85 54.82 55.26 55.51 56.44 58.25 58.75 58.55 60.02 59.41 57.84 56.38 55.22 53.27 52.81 52.90 51.55 51.60 51.40 51.29 50.97 50.75 51.09 50.70 49.77 49.58 49.30 49.43
66.10 65.18 64.15 63.34 63.11 63.14 62.40 61.09 59.89 58.73 57.52 56.08 54.10 54.17 54.07 53.99 54.09 53.90 54.64 55.70 56.49 56.53 57.30 57.56 58.24 56.07 55.46 54.14 52.68 51.56 51.20 50.98 50.62 51.02 51.25 51.06 51.03 50.92 50.83 49.36 49.34 49.32 48.74
65.73 65.03 63.36 63.10 63.00 62.39 61.59 60.29 58.73 57.34 56.44 55.53 54.50 54.48 54.25 53.90 53.24 53.33 54.83 54.85 54.19 55.64 54.40 53.76 53.44 52.83 51.97 51.02 50.41 50.02 49.68 49.69 49.86 50.21 50.57 50.77 51.15 50.83 50.83 50.12 50.21 49.50 48.79
65.26 65.03 63.79 63.03 62.50 61.53 60.56 59.40 57.83 56.96 54.78 54.30 53.81 54.09 54.43 53.21 52.73 51.98 53.31 53.78 53.71 53.23 54.74 51.37 51.25 50.40 49.32 48.12 47.42 47.53 48.19 48.65 48.76 49.10 49.02 48.95 48.65 48.70 48.87 49.13 49.12 49.06 48.68
64.54 64.39 63.76 62.56 62.01 60.67 59.59 58.16 56.86 56.03 54.86 54.94 52.87 52.37 53.87 53.13 52.51 52.17 51.57 51.37 52.09 52.28 51.66 52.67 51.51 50.23 48.44 47.02 45.27 45.38 46.70 47.10 47.54 47.51 47.15 47.31 47.36 47.37 47.66 47.87 48.01 48.34 48.56
64.12 64.20 63.21 61.85 61.07 59.49 58.76 57.76 56.36 54.43 53.51 55.21 53.31 54.16 53.43 52.48 51.53 51.30 51.35 50.55 50.03 50.05 50.04 49.88 49.84 49.45 48.21 46.72 45.65 45.17 44.70 45.46 45.73 45.94 46.27 46.57 46.48 46.62 47.06 47.35 47.64 47.83 48.36
63.90 63.48 62.87 61.06 60.29 58.92 57.93 56.87 55.60 53.57 54.95 55.05 52.37 52.29 49.80 50.39 50.67 50.74 50.93 49.89 50.11 49.76 48.88 49.16 48.91 48.50 48.28 47.87 47.15 44.83 43.26 42.58 43.81 45.28 45.43 45.70 45.72 46.01 46.31 46.65 46.71 47.01 47.18
63.26 62.55 61.72 60.56 59.72 58.81 56.64 56.49 54.98 54.68 53.67 54.35 53.59 50.68 47.72 46.46 48.93 51.01 49.75 49.69 49.51 48.61 49.15 48.67 48.22 47.98 47.71 47.45 46.44 46.63 42.78 42.42 41.91 43.32 43.96 44.83 45.02 45.38 45.59 45.71 45.82 46.06 46.26
61.82 60.54 59.73 60.06 59.36 58.19 57.06 55.89 54.66 55.26 53.84 51.80 53.25 52.32 51.35 49.32 45.08 44.19 49.12 49.13 49.13 48.24 48.79 48.35 48.04 47.84 47.71 47.32 46.94 43.33 42.80 40.90 39.54 40.76 42.52 43.49 43.40 43.51 43.58 43.72 43.98 44.36 44.73
59.99 59.08 59.50 59.29 58.40 56.69 56.88 55.97 54.54 54.15 52.72 51.45 51.39 51.01 50.36 49.63 48.88 44.98 43.24 46.11 48.17 48.06 47.66 47.67 47.51 47.49 47.30 46.88 46.36 44.07 40.54 38.28 38.10 39.59 40.92 41.31 41.72 41.68 41.98 42.39 42.84 43.28 43.65
59.10 59.19 58.32 57.93 56.59 54.54 54.74 54.16 54.35 53.07 53.27 51.85 50.20 50.51 48.37 46.87 46.52 46.11 44.27 44.37 44.18 46.13 47.28 47.23 46.71 46.34 46.78 46.23 46.08 41.66 39.07 37.96 38.32 38.87 39.02 39.40 40.04 40.30 40.77 41.46 41.90 42.22 42.67
58.64 58.11 54.43 52.30 52.51 52.60 54.36 54.66 53.52 49.92 50.80 49.75 50.68 48.48 49.22 48.42 48.07 46.00 44.06 42.84 42.29 44.53 45.15 46.60 46.27 46.00 45.62 46.18 45.52 39.79 40.65 39.88 40.00 38.64 38.18 38.22 38.29 38.52 39.15 39.66 40.31 40.97 41.58
57.45 52.70 50.57 50.94 51.62 54.03 54.22 52.53 49.64 51.39 50.71 50.42 49.27 48.70 48.77 48.49 47.60 46.23 44.25 42.45 39.80 41.10 42.88 43.48 46.19 46.34 45.81 45.35 42.96 40.31 42.19 41.39 40.42 38.11 36.74 37.05 36.80 36.94 37.30 37.81 38.36 39.18 39.81
51.38 50.27 50.59 50.41 52.32 52.92 50.26 50.34 49.90 47.51 49.22 49.71 48.85 50.00 48.49 47.68 47.39 46.74 45.87 44.07 41.19 36.92 38.17 42.08 41.84 45.88 44.98 44.92 44.34 43.37 42.17 41.23 40.06 38.28 37.64 36.26 35.93 35.89 36.24 36.51 36.74 37.24 37.83
52.98 52.07 51.69 51.60 51.69 50.47 50.11 50.37 47.35 48.76 47.86 48.72 49.53 48.22 47.30 47.34 46.58 46.03 44.66 44.27 43.12 40.64 37.59 41.27 41.69 44.31 44.04 42.86 43.72 41.96 41.05 41.35 39.50 38.83 38.11 36.52 35.14 35.13 35.12 35.04 35.24 35.76 36.13
53.75 52.90 52.79 51.80 49.38 49.11 49.69 48.39 46.92 46.02 47.16 47.77 47.16 45.97 45.88 46.53 45.05 44.94 44.98 44.38 42.76 41.95 38.58 40.98 42.40 43.85 42.70 41.98 41.84 41.93 41.11 40.00 39.61 38.73 37.83 36.52 35.34 34.23 33.91 33.75 33.92 34.21 34.71
55.31 54.29 52.12 49.64 48.61 49.30 48.13 44.83 43.02 46.06 45.11 42.91 43.54 44.44 44.40 44.79 44.49 44.81 44.47 43.31 43.17 43.00 40.89 39.05 41.53 41.15 41.25 41.78 41.72 40.32 38.71 38.85 38.30 38.04 38.04 35.89 35.25 34.92 33.92 33.76 33.41 33.57 33.89
54.20 52.48 49.85 48.91 48.76 46.74 45.17 44.30 45.02 43.74 43.77 43.80 43.76 44.54 44.39 44.45 43.86 43.23 44.48 43.65 43.33 42.35 42.41 40.56 39.45 41.36 40.64 40.85 39.65 39.59 38.50 38.02 37.59 38.31 37.65 36.67 36.18 35.65 34.90 34.70 34.20 34.03 34.13
52.22 51.23 50.38 48.30 46.02 44.69 43.62 43.13 43.69 43.71 44.47 43.08 44.34 44.37 44.07 43.95 43.07 43.77 43.94 44.01 43.44 42.46 41.82 40.19 39.65 39.18 39.27 40.21 38.83 36.21 35.60 37.68 35.47 36.12 36.92 36.00 36.27 36.23 36.33 35.97 35.67 34.91 34.84
51.00 46.05 45.30 43.67 44.03 43.36 42.96 42.55 43.20 43.75 43.80 41.76 42.68 43.83 44.76 43.73 42.00 42.05 42.98 43.54 42.94 41.59 40.66 39.15 38.17 38.09 37.70 37.31 35.61 36.29 34.57 34.95 35.14 35.94 35.47 35.71 35.56 35.68 36.42 36.75 36.82 36.86 36.09
45.70 43.34 42.73 41.98 42.60 41.37 39.48 39.80 40.46 44.47 42.50 40.91 40.72 42.91 43.98 42.20 42.49 38.74 38.63 38.20 39.47 40.87 40.36 39.00 37.96 36.60 37.03 37.13 36.89 35.43 34.24 31.46 29.14 35.99 33.77 32.90 35.13 34.26 35.61 36.26 36.14 34.46 34.77
44.40 42.43 43.08 41.85 41.72 42.04 39.17 38.88 38.02 42.57 39.74 39.24 39.55 41.18 42.70 42.89 40.83 43.10 39.84 36.93 36.37 35.76 35.19 38.25 37.91 38.15 37.05 37.87 36.59 34.14 33.31 32.00 30.88 33.22 32.79 30.68 34.41 33.35 35.67 35.38 35.66 35.57 35.25
43.48 41.85 41.98 42.00 43.43 43.54 38.79 38.52 37.00 38.70 39.67 42.06 42.38 41.86 41.89 42.11 42.26 41.33 41.99 41.45 41.86 41.46 40.04 37.33 36.47 38.23 39.59 39.18 37.30 35.47 33.70 31.95 32.43 33.52 34.28 29.18 33.46 32.32 34.19 34.89 34.94 35.38 35.62
44.35 44.05 44.57 43.54 42.52 42.97 38.43 37.79 37.84 41.51 40.01 39.81 40.64 41.01 40.82 40.78 39.08 38.08 38.96 39.21 40.09 40.53 39.44 37.13 37.05 36.18 32.07 31.00 31.05 34.15 30.69 28.85 29.01 29.70 33.82 31.33 31.70 31.42 32.79 32.71 34.82 34.86 33.98
43.26 43.72 42.64 41.82 40.15 42.81 38.57 37.72 37.51 39.35 37.72 38.27 39.22 39.96 37.26 38.19 35.88 35.68 38.33 37.62 36.34 38.32 39.52 38.88 37.33 34.80 33.09 33.93 30.63 31.51 30.98 28.11 28.75 28.39 32.65 29.85 29.56 29.65 27.05 31.70 32.82 33.95 34.74

GFSMA_sfc_wetblb_045.txt.gz
Wetbulb
58.49 58.91 59.13 58.30 58.09 57.56 55.00 56.21 55.24 54.76 53.34 52.45 50.73 49.18 48.89 48.41 50.23 50.29 51.84 59.13 59.97 60.64 61.43 61.17 60.66 59.52 59.17 57.07 55.65 55.26 54.23 53.74 53.02 52.32 52.01 51.77 51.39 52.10 51.95 50.71 50.29 50.67 50.59
59.75 59.43 59.60 58.59 57.68 58.19 57.72 55.96 55.47 54.24 53.12 51.29 48.87 48.66 48.33 48.73 48.37 50.15 50.13 53.00 58.26 59.52 60.66 60.85 60.57 59.08 59.27 56.48 54.59 54.18 53.29 51.97 51.66 51.45 51.58 51.11 51.79 52.01 51.67 51.03 50.81 51.21 50.77
61.04 60.67 60.67 59.79 59.07 57.73 57.68 56.03 54.86 52.63 50.37 50.35 48.19 48.00 48.62 48.22 48.07 47.97 50.18 52.42 54.23 58.00 59.56 61.60 60.10 58.68 58.53 56.65 54.81 54.61 52.10 51.02 50.10 50.10 50.58 51.06 50.60 50.28 50.14 49.90 50.06 50.10 50.14
61.65 61.00 59.40 58.72 59.21 56.98 55.86 54.56 52.57 51.25 50.02 48.54 46.95 45.91 46.91 47.37 47.10 47.57 49.99 51.76 51.84 52.14 56.26 59.51 59.40 58.33 57.26 56.09 54.48 52.70 51.23 49.77 49.31 49.20 49.44 49.10 48.68 48.46 48.51 48.54 48.60 48.84 48.71
62.53 60.50 60.10 59.51 57.83 56.71 55.89 55.39 53.24 51.26 48.28 47.04 47.15 46.86 46.43 46.46 46.40 48.53 47.92 47.81 49.96 50.05 50.37 55.75 55.45 55.27 54.68 53.89 53.38 51.82 49.84 48.50 48.19 48.01 48.03 47.65 47.45 47.53 47.69 47.80 48.05 48.11 48.26
61.52 61.26 60.39 59.44 57.58 56.48 55.54 53.67 51.65 49.35 48.12 47.34 50.65 48.03 46.01 46.32 45.32 44.71 45.93 48.24 47.13 50.11 48.74 49.17 49.23 49.98 54.08 53.02 51.85 49.64 48.32 47.75 47.30 46.93 46.36 46.66 47.01 47.08 47.24 47.27 47.12 47.33 47.64
61.50 61.04 59.97 58.20 57.18 56.15 54.43 53.00 50.63 47.96 46.03 47.19 45.93 46.32 46.22 45.60 44.75 44.56 44.72 44.31 45.06 45.13 46.83 46.94 45.78 44.69 47.80 51.41 49.79 48.84 48.55 47.73 46.80 45.72 45.31 45.67 45.47 45.86 46.45 46.54 46.81 46.84 46.82
60.99 60.49 58.89 57.38 56.56 55.91 53.86 52.19 49.75 47.51 46.78 47.46 45.55 44.79 42.58 43.13 44.24 44.46 43.57 44.04 42.69 43.73 44.01 44.34 43.44 43.74 42.93 42.55 42.99 48.63 48.91 48.03 46.08 45.19 44.82 44.00 44.28 45.25 45.87 45.91 45.85 45.70 45.74
61.54 60.78 59.36 58.03 57.14 55.63 53.44 51.30 50.72 48.69 45.79 47.04 46.85 45.11 40.62 39.12 40.76 42.84 43.13 42.72 41.88 42.01 42.26 43.27 43.61 42.95 42.04 40.75 44.81 47.15 49.04 46.54 46.34 45.96 44.46 43.91 44.33 44.81 44.96 44.61 44.61 44.82 44.77
60.98 60.30 59.09 57.76 57.68 57.37 54.08 52.47 52.65 50.91 50.64 48.68 47.72 48.31 45.92 43.14 39.19 37.62 41.56 42.47 42.17 42.42 41.57 41.70 42.16 42.50 42.15 40.92 44.43 45.22 46.58 46.25 45.84 45.51 44.88 44.43 43.84 44.05 44.03 43.91 43.74 43.81 44.07
59.71 59.41 58.31 56.99 56.04 55.19 54.03 53.44 52.47 51.76 51.15 49.34 47.95 47.12 46.60 45.03 42.62 41.20 36.68 39.36 41.50 42.04 42.09 42.00 41.66 41.42 42.16 41.63 40.21 43.86 45.85 45.06 44.64 44.65 44.64 43.81 43.46 43.20 42.89 43.23 43.18 43.31 43.38
57.36 58.78 57.44 55.73 55.22 54.95 53.93 53.45 51.93 51.08 50.29 49.89 47.86 46.72 45.91 44.20 43.80 41.69 37.77 38.12 37.76 39.58 41.36 41.78 41.52 40.62 40.99 40.72 43.61 45.27 45.65 43.97 43.74 43.52 43.36 43.36 42.78 42.30 42.59 42.75 42.23 42.18 42.35
56.40 56.34 56.51 55.17 55.37 54.11 53.48 51.61 51.06 50.88 49.95 47.76 47.03 46.35 46.02 45.29 45.31 43.94 41.07 36.86 37.56 37.48 39.94 41.52 40.84 39.78 41.61 39.82 40.94 45.42 45.27 43.11 42.94 42.47 42.98 42.39 41.69 41.56 41.51 41.46 40.76 40.56 41.08
57.58 56.70 55.56 55.01 55.11 54.38 52.24 50.59 51.44 50.22 49.76 48.63 46.47 46.27 44.89 45.30 45.12 43.59 40.70 38.13 34.20 34.54 35.70 38.73 41.99 42.21 40.14 38.31 40.82 45.40 42.24 42.51 42.04 42.55 42.42 41.55 40.98 40.48 40.34 39.95 39.17 39.28 39.64
55.79 55.17 54.93 52.85 52.04 52.16 50.76 50.17 50.05 49.69 48.19 46.89 46.50 45.08 44.77 45.62 44.39 43.52 42.39 41.18 37.02 30.93 31.97 35.84 36.90 39.71 38.70 38.74 40.21 41.01 36.94 42.09 41.90 41.97 41.62 41.38 40.40 40.62 40.15 39.06 38.73 38.41 38.56
53.80 53.54 52.44 51.62 50.06 50.30 49.84 49.21 48.18 48.13 46.87 45.98 45.82 44.55 44.60 44.39 44.73 44.99 43.88 41.55 40.18 35.52 31.81 34.74 35.51 36.07 37.19 39.57 39.58 38.27 36.78 41.53 42.35 41.36 40.40 40.27 40.77 40.92 39.85 38.62 38.24 37.91 37.81
52.10 51.80 51.17 49.56 49.63 48.94 48.69 47.85 47.76 46.56 45.21 44.43 44.60 44.13 44.22 44.85 44.36 44.13 43.12 41.76 39.18 38.13 35.17 34.25 34.74 35.84 34.43 35.36 36.53 36.82 37.06 36.86 36.38 41.13 40.53 40.66 40.07 39.99 39.81 39.13 38.01 37.56 37.28
52.71 51.64 50.95 50.17 49.33 48.66 47.63 47.20 45.99 45.46 44.98 43.46 43.63 43.63 43.49 44.88 43.37 41.60 40.54 39.73 37.36 36.88 36.47 34.26 32.90 33.82 34.32 34.88 34.71 33.36 36.62 37.97 35.40 38.94 40.65 40.06 39.62 39.14 38.58 38.17 37.56 37.57 37.02
52.38 51.84 50.78 49.76 48.70 47.82 46.73 46.22 44.20 43.55 43.41 43.49 43.32 43.36 42.95 42.65 39.99 39.18 38.34 37.17 36.91 40.14 39.03 36.69 36.74 33.82 35.42 33.76 33.90 33.23 32.85 32.90 34.93 38.82 39.50 39.04 39.28 39.25 39.28 38.27 38.03 37.68 37.78
51.63 51.03 50.03 48.80 47.99 46.65 44.96 43.97 43.54 42.79 42.70 42.82 43.39 42.94 42.90 42.49 41.27 38.50 38.43 37.44 37.88 38.19 38.18 36.53 36.97 36.93 34.26 35.49 34.60 34.17 32.59 31.12 32.16 35.57 37.02 34.88 35.89 37.28 38.52 38.66 38.44 38.64 38.23
50.57 48.64 47.21 45.97 44.58 43.51 43.31 43.16 42.75 42.14 41.54 41.42 41.92 42.77 42.25 41.51 40.71 39.96 39.83 38.60 35.77 34.78 34.81 34.55 34.23 33.52 31.97 30.41 30.83 33.19 31.12 32.95 29.33 30.77 27.93 27.96 28.20 28.29 28.90 33.58 34.89 36.73 36.71
46.48 44.92 43.08 43.02 41.99 42.47 39.47 40.46 41.22 41.09 41.04 40.73 40.45 40.45 40.87 39.86 39.62 38.65 38.59 38.41 37.82 36.56 34.74 34.03 33.82 33.10 33.79 31.84 33.53 31.82 31.01 30.13 27.90 28.84 26.74 25.64 28.40 26.49 27.89 28.21 33.42 35.36 36.21
42.31 41.59 41.43 41.32 41.00 41.34 39.28 39.54 39.18 40.53 40.23 39.34 39.34 39.02 39.56 40.19 38.12 36.54 34.75 34.41 33.90 35.21 34.94 32.57 31.78 32.80 33.99 34.62 32.40 31.70 31.38 31.75 31.07 30.27 29.18 27.15 26.06 24.78 27.28 31.72 34.98 36.05 35.45
39.94 37.90 38.63 39.43 40.33 40.55 38.60 38.37 36.88 38.60 38.61 39.22 39.23 38.13 34.71 33.09 33.34 33.20 30.90 29.25 29.94 31.25 32.42 33.64 32.67 33.23 33.79 34.71 34.86 35.08 34.10 34.32 33.35 31.09 28.67 26.39 23.85 23.95 26.29 27.21 32.98 35.19 34.85
38.89 38.45 39.14 38.62 37.86 37.30 37.75 37.85 38.30 38.64 37.30 32.60 33.92 32.51 31.94 30.81 33.92 32.77 28.50 26.58 25.65 25.41 29.61 31.54 32.06 32.64 33.83 34.15 34.37 34.08 31.97 30.94 29.87 27.64 27.63 25.60 23.49 23.38 24.30 24.29 26.11 32.86 33.63
39.13 40.12 40.33 40.59 39.54 38.94 36.76 36.77 35.39 29.64 28.35 26.55 27.92 29.63 31.21 30.51 31.71 31.37 26.89 25.02 23.74 24.48 25.86 26.90 28.12 29.03 30.96 31.09 33.97 33.64 32.63 31.27 29.89 26.42 27.50 25.95 24.75 22.74 19.69 23.04 24.42 25.41 24.85

GFSMA_sfc_wetblb_048.txt.gz
Wetbulb
57.38 57.04 55.93 56.05 56.15 55.27 53.87 55.30 54.25 52.73 51.31 49.76 48.70 48.83 48.07 50.54 51.48 52.44 54.04 60.36 61.47 62.16 61.19 61.21 60.51 60.24 58.85 56.96 56.88 55.57 54.69 53.84 52.99 52.48 52.29 51.50 52.11 52.51 51.74 50.99 50.92 51.28 51.06
57.80 57.45 56.35 56.18 56.38 55.83 54.81 55.14 53.72 52.08 50.75 48.53 47.83 47.62 47.84 48.64 49.43 49.28 50.39 52.70 58.45 60.28 61.81 61.10 60.77 60.57 59.44 56.98 55.55 55.05 53.58 52.71 51.72 51.66 51.10 51.24 51.95 51.10 50.68 50.46 50.33 50.55 50.36
58.29 58.57 57.94 56.93 56.44 57.03 56.17 54.33 53.92 52.42 50.89 49.01 47.28 47.02 47.17 47.17 48.28 48.94 49.00 52.04 53.78 57.93 58.61 61.81 60.76 59.35 59.48 57.02 55.12 54.98 52.93 51.89 50.80 50.37 50.67 50.85 49.93 49.51 49.20 49.15 49.20 49.20 49.29
60.60 59.10 58.44 57.91 58.09 56.70 56.21 54.56 52.85 49.84 48.51 46.57 45.38 44.71 46.17 45.88 45.97 47.63 49.91 51.13 51.42 52.99 57.96 60.33 60.66 59.62 58.99 57.68 55.98 55.45 52.86 51.42 50.31 49.47 49.69 48.91 48.27 48.11 48.04 48.19 48.43 48.49 48.48
60.94 60.08 58.87 58.35 57.41 56.25 54.84 54.09 51.77 50.73 47.90 46.18 45.97 44.87 44.71 45.14 45.56 47.99 48.99 50.31 49.89 50.08 51.85 57.83 57.95 57.96 58.40 57.06 56.00 54.54 53.04 50.91 49.35 49.04 48.51 47.22 47.15 47.40 47.35 47.39 47.47 47.74 47.82
59.71 59.57 59.05 58.66 56.70 55.21 54.26 53.05 51.59 49.56 47.47 46.16 48.61 47.07 43.76 44.28 44.17 44.62 46.78 48.29 48.82 49.25 49.58 50.18 50.57 51.16 55.45 55.70 54.88 53.97 52.20 50.40 49.30 48.92 47.43 46.28 46.31 45.99 46.04 46.50 46.97 47.20 47.41
60.52 59.41 58.86 58.31 56.39 55.25 54.93 53.44 49.84 47.30 45.40 46.31 45.46 45.26 45.45 44.75 43.52 43.09 43.97 43.88 46.33 48.55 47.83 47.82 46.90 46.35 49.83 55.14 53.96 52.75 51.57 50.21 49.60 48.60 47.18 46.78 45.72 44.60 45.07 45.75 46.42 46.25 46.32
58.46 60.33 59.25 58.11 56.27 54.92 53.35 51.87 49.52 46.37 45.75 46.15 44.28 44.03 42.59 43.63 43.73 43.63 42.55 43.26 42.26 44.96 46.68 46.97 45.96 45.30 44.58 45.51 45.53 51.46 51.05 50.81 49.91 48.85 47.68 46.81 45.45 44.90 44.99 45.45 45.46 45.52 45.47
57.92 59.69 59.42 58.05 56.36 55.61 54.21 53.08 49.48 48.36 47.49 48.37 47.74 45.93 41.28 41.23 40.31 41.92 42.61 42.21 41.78 40.76 41.47 43.32 43.99 43.58 42.96 42.20 46.15 48.89 50.86 50.79 49.76 49.23 48.54 47.26 46.04 45.54 45.02 44.79 44.86 44.88 44.87
59.50 59.88 59.52 57.98 56.81 56.07 54.15 53.61 51.54 48.94 48.35 47.64 48.10 48.55 46.83 43.89 40.68 38.39 41.54 41.97 41.54 41.00 40.54 40.58 41.55 41.47 42.20 40.93 44.05 45.91 48.64 48.50 48.85 48.89 48.96 47.82 47.14 45.85 45.05 44.74 44.23 44.59 44.47
59.16 59.44 58.90 57.22 56.71 57.68 55.26 52.32 50.63 50.45 50.58 50.07 48.69 47.55 46.62 44.92 44.04 40.91 38.44 39.07 40.58 41.59 41.08 40.90 40.56 40.65 41.02 40.35 39.99 43.13 47.75 46.92 47.30 48.13 48.46 47.93 47.12 46.27 45.29 44.44 44.67 44.32 43.78
59.14 58.83 58.34 58.08 57.52 57.20 55.18 52.66 51.82 50.66 50.96 48.88 48.67 47.59 47.16 45.64 43.48 40.96 39.46 39.61 40.14 39.94 41.80 41.09 40.63 40.44 40.52 40.19 42.69 45.10 47.07 45.75 46.10 47.34 47.22 47.23 46.69 45.92 45.35 44.83 44.29 43.73 43.19
56.83 58.05 57.97 57.27 56.17 55.30 53.60 53.20 52.30 50.44 50.08 49.44 48.92 47.54 47.82 46.77 45.06 44.06 42.14 39.93 38.14 39.18 40.17 40.01 40.01 40.08 41.61 39.76 39.85 45.84 47.22 45.20 45.17 46.07 46.24 45.92 45.39 45.00 44.47 43.83 43.28 42.95 41.99
57.26 58.43 57.72 56.18 54.94 55.10 53.15 51.68 51.54 50.91 49.69 49.29 48.25 47.84 47.06 45.45 45.20 43.97 41.71 39.67 35.71 36.33 37.35 39.43 39.45 39.46 39.02 38.85 39.32 45.44 43.15 44.91 43.94 44.12 44.97 44.88 44.27 43.87 43.12 42.49 42.13 41.25 40.71
56.11 55.15 56.09 54.55 53.82 53.97 52.09 50.00 50.42 50.15 49.63 48.57 47.68 46.46 44.86 45.48 44.65 43.46 42.84 41.24 37.22 35.19 34.73 34.93 35.88 38.55 38.15 37.72 38.95 40.94 40.72 44.42 43.89 42.92 42.74 43.63 44.36 43.21 42.46 41.89 41.70 40.44 40.00
55.66 54.58 54.22 53.99 52.46 51.38 51.53 49.79 49.51 49.57 48.61 47.26 46.48 44.62 44.51 45.03 45.07 44.91 44.42 44.18 41.98 38.75 34.40 34.19 34.82 36.13 37.06 38.63 38.65 39.51 39.66 42.16 43.40 41.98 41.57 42.06 42.71 42.93 42.85 42.01 41.13 40.05 39.60
55.12 54.78 54.01 52.12 51.22 50.93 50.49 49.44 48.43 48.09 46.88 45.00 44.92 44.94 44.60 44.85 44.45 44.14 43.90 43.12 41.06 39.83 37.94 39.31 34.86 35.00 33.60 34.43 36.16 37.42 38.21 37.47 38.63 42.33 41.36 41.30 40.91 40.84 41.01 41.52 40.91 40.37 39.29
54.76 54.44 52.77 51.18 50.99 49.80 49.33 48.26 47.39 47.19 45.38 43.47 44.32 44.11 43.87 45.44 43.50 43.13 42.22 40.90 39.78 38.23 36.95 34.66 33.67 32.88 33.28 34.41 34.30 33.53 36.58 37.96 36.89 39.43 42.11 41.54 40.89 40.04 40.17 39.75 39.58 39.35 39.01
53.74 53.09 52.31 50.81 49.79 49.11 47.98 47.72 47.24 45.50 44.67 44.16 44.00 43.73 43.87 43.23 41.44 40.76 39.54 38.15 36.73 38.44 36.51 35.12 35.80 34.81 33.59 34.12 34.30 34.80 35.07 35.83 37.42 39.82 39.66 40.55 40.47 40.44 39.73 39.18 39.14 38.97 38.83
52.77 51.74 51.17 50.63 49.63 48.47 47.25 46.07 44.37 43.67 43.70 43.64 43.95 43.68 42.88 42.53 41.51 40.29 39.09 36.45 37.75 34.63 34.90 34.95 35.64 35.76 33.88 35.15 32.60 34.53 34.84 31.89 33.53 36.71 38.16 38.24 39.33 39.87 39.99 39.59 39.05 38.92 38.70
52.03 50.56 49.75 48.98 47.56 46.09 44.87 43.67 43.40 43.02 42.89 42.50 42.69 42.81 42.92 42.38 41.07 39.21 37.64 36.72 34.66 34.23 33.18 32.88 32.94 32.96 31.42 30.38 29.04 31.78 31.69 34.15 34.26 31.70 32.49 33.56 34.61 35.01 33.52 38.01 36.73 38.63 38.41
49.77 48.06 47.46 45.21 43.67 43.13 39.72 40.46 42.07 42.02 41.73 41.24 40.51 41.18 41.20 40.83 39.99 37.84 35.91 35.27 33.76 30.23 28.22 27.97 28.85 29.35 30.73 29.66 32.04 31.41 32.03 31.34 30.83 31.84 28.39 30.09 31.12 29.02 30.53 31.06 33.40 35.08 35.83
46.68 43.96 43.24 42.78 42.26 41.97 39.04 39.69 39.11 40.98 40.31 39.85 39.53 39.69 39.59 38.41 35.08 32.88 33.01 32.14 31.61 32.72 32.99 29.10 27.32 27.13 28.54 29.07 31.31 31.54 31.53 32.02 31.56 33.32 29.04 30.84 27.89 30.17 31.94 32.51 34.23 35.33 35.88
44.55 42.69 41.45 41.72 41.80 41.21 38.50 38.51 37.52 38.85 38.72 38.89 38.15 34.93 33.73 30.65 32.05 30.25 28.14 26.68 26.14 26.33 26.12 26.66 24.43 25.92 26.67 28.00 27.91 28.66 28.93 28.91 30.97 33.34 32.22 29.62 32.01 30.21 32.54 29.59 33.37 35.25 35.76
40.25 39.75 40.07 39.91 39.59 38.48 37.86 37.10 38.06 37.96 35.39 33.34 32.64 31.93 30.26 28.85 31.12 31.20 27.04 25.10 24.59 25.76 29.50 30.89 31.46 32.16 32.20 32.39 32.11 29.77 27.35 26.80 25.05 27.49 29.54 31.48 30.68 27.90 27.49 26.98 27.73 34.12 34.30
38.54 38.14 37.15 36.75 37.08 36.55 36.99 37.42 36.08 32.89 28.64 26.37 27.67 27.79 29.85 28.34 29.42 28.65 25.07 23.59 24.05 24.69 25.34 25.62 26.75 28.52 30.08 29.41 31.59 29.69 29.14 27.42 27.00 26.43 27.90 28.11 25.67 26.75 25.55 26.03 25.44 25.20 24.68

GFSMA_sfc_wetblb_051.txt.gz
Wetbulb
57.56 57.09 56.93 55.94 54.90 53.44 53.25 53.33 51.09 50.29 48.67 47.99 47.87 50.30 51.57 53.41 54.25 54.78 55.65 61.14 61.35 62.02 61.09 61.84 61.30 60.06 59.11 58.21 56.47 55.46 54.89 53.80 53.02 52.86 52.11 52.32 52.50 51.89 51.54 51.16 50.86 50.98 50.85
56.69 56.35 55.06 54.06 53.68 52.72 53.82 53.42 51.22 49.15 47.40 46.57 46.41 47.59 49.49 49.69 49.91 50.87 52.50 54.07 59.35 61.30 61.72 61.26 61.18 60.85 59.29 57.64 56.80 55.21 54.11 53.35 52.15 51.78 51.23 52.13 51.09 50.51 50.03 49.74 49.71 49.83 49.88
56.07 55.74 54.10 54.19 54.30 53.37 54.22 52.88 51.40 50.12 46.88 46.33 45.59 45.93 47.00 47.63 47.80 48.11 49.24 50.58 53.51 57.82 59.54 61.66 61.23 60.71 59.76 57.80 56.27 55.61 53.66 53.06 51.62 50.99 51.53 50.35 49.51 49.03 48.65 48.68 48.83 48.83 48.90
57.68 56.14 55.39 55.27 55.81 55.22 54.33 52.97 51.16 49.25 46.84 44.87 43.71 44.26 45.34 45.59 47.03 47.74 48.46 50.30 50.91 52.97 56.86 59.08 61.44 60.68 60.07 58.37 56.99 56.02 54.24 52.53 51.36 50.65 50.67 49.11 47.91 47.76 47.59 47.61 47.58 47.83 47.91
59.73 57.66 57.49 56.88 56.27 55.11 54.15 53.12 50.13 48.83 46.49 44.74 44.44 43.22 43.91 43.76 43.94 48.27 48.77 49.39 49.42 50.79 53.07 58.58 59.66 59.46 59.89 59.11 57.68 57.15 54.87 52.86 51.26 50.36 50.17 48.44 47.35 47.12 46.64 46.59 46.82 47.24 47.71
60.23 58.75 57.99 56.92 55.97 54.31 53.33 51.75 49.97 48.65 47.22 46.14 47.13 45.23 42.75 43.29 42.95 43.82 47.29 49.73 48.97 49.40 51.25 52.78 53.75 53.93 57.58 58.54 57.56 56.65 55.68 53.91 51.91 50.73 50.22 48.36 47.61 46.84 45.45 45.70 46.22 46.86 47.13
59.36 58.76 57.92 57.42 55.42 54.44 53.64 52.79 49.51 47.73 45.62 45.15 44.63 44.21 44.06 43.62 43.25 42.74 44.01 45.82 46.88 48.25 48.67 49.58 48.74 47.96 50.94 56.50 56.43 55.45 55.32 54.45 52.16 51.21 50.55 48.61 48.13 46.55 45.36 45.15 45.72 45.97 46.06
57.21 58.08 57.66 57.22 56.11 53.90 53.12 51.85 49.20 46.00 45.47 45.79 44.07 43.56 42.20 44.09 43.45 42.92 41.79 43.57 43.07 46.51 47.46 47.63 47.06 46.53 46.69 48.49 49.85 54.90 54.66 53.68 52.36 51.56 50.44 49.15 48.57 47.03 46.13 45.61 45.37 45.20 45.43
56.42 57.85 58.35 57.42 56.15 54.58 53.65 52.36 49.91 47.87 45.86 46.71 46.34 45.15 41.90 40.93 42.46 43.37 43.53 43.46 42.21 41.48 44.52 45.71 46.13 45.86 44.66 44.49 48.31 50.88 53.13 52.63 52.31 51.96 51.11 50.03 49.09 47.91 47.10 46.24 45.52 45.22 45.19
56.59 56.35 57.58 57.80 56.43 55.57 54.13 53.53 52.91 49.92 49.46 45.12 45.93 47.04 46.77 45.18 41.65 39.71 42.75 43.99 42.78 40.95 40.72 42.77 43.95 44.16 43.52 42.74 45.47 47.10 48.53 50.04 51.29 51.60 51.46 50.77 50.10 48.89 47.99 47.11 46.05 45.32 45.58
56.89 57.94 57.86 57.40 57.04 56.11 55.22 53.97 52.08 50.65 50.82 49.43 48.11 45.47 46.17 44.41 44.62 42.40 40.81 42.28 42.03 41.34 42.72 43.03 41.58 40.37 41.67 41.81 40.33 43.74 47.88 48.23 49.14 51.34 50.89 50.59 50.57 49.58 48.85 47.63 46.70 46.15 45.74
56.64 57.25 57.77 56.90 56.41 56.33 55.75 55.04 53.79 52.20 50.59 49.82 49.55 48.47 47.31 45.96 42.09 42.15 40.54 41.06 40.54 42.14 43.08 43.52 41.99 42.13 40.95 41.44 42.22 45.16 46.05 46.72 47.69 49.46 50.49 50.06 50.16 49.82 49.38 48.36 47.19 46.45 45.76
55.76 57.38 56.85 56.03 56.13 56.86 56.85 56.53 53.80 52.06 50.67 50.20 49.25 47.36 48.36 47.43 46.11 44.60 42.20 40.05 40.00 40.34 40.32 41.35 41.25 41.40 42.33 41.97 40.90 45.21 46.42 45.78 46.45 47.74 48.64 49.47 49.62 48.91 48.83 47.99 47.31 46.52 45.46
55.69 56.91 57.84 57.84 57.70 57.46 57.53 55.77 54.62 53.62 51.89 50.58 49.18 48.96 48.35 47.76 46.12 44.35 42.32 40.67 37.45 34.74 37.17 39.56 40.73 41.72 40.47 40.56 40.51 43.72 42.23 44.93 45.57 45.71 46.43 47.38 48.12 48.21 47.41 46.74 46.23 45.47 44.69
55.79 55.45 57.97 57.22 57.23 56.19 55.23 53.16 52.56 50.91 50.51 49.94 49.18 48.30 47.33 46.14 44.96 42.46 42.47 41.38 38.98 35.10 37.05 39.30 35.93 37.86 38.25 38.34 38.61 38.26 39.43 43.07 44.96 44.54 44.53 45.22 46.43 46.95 46.59 46.39 45.34 44.19 43.80
55.83 54.65 56.03 55.47 54.63 54.20 52.72 50.68 49.51 50.40 49.81 48.97 48.38 47.06 44.91 45.03 44.69 44.96 44.55 44.07 42.88 40.59 37.82 38.73 37.18 35.88 37.76 38.73 38.70 37.99 37.62 43.22 43.50 43.86 43.27 43.31 44.24 45.00 45.32 45.25 44.97 44.15 43.09
56.75 56.01 55.41 55.19 54.36 52.51 51.53 49.88 49.30 49.51 49.08 47.71 46.32 45.40 44.67 45.27 43.75 44.40 43.14 43.45 42.07 40.72 37.63 39.57 37.91 36.01 34.31 34.47 35.84 35.82 36.75 36.86 38.64 42.14 43.12 42.61 42.42 42.45 42.86 43.22 43.03 43.13 43.05
56.75 56.69 56.23 55.31 54.34 52.76 51.63 50.05 48.52 48.65 48.19 46.12 45.20 44.62 44.02 44.82 44.00 43.61 42.63 41.43 40.47 39.62 37.27 35.16 34.20 33.45 33.12 34.50 34.27 33.53 37.08 37.86 36.01 39.47 41.04 42.76 42.16 41.57 41.03 41.30 41.14 41.18 41.39
57.68 57.23 55.19 53.91 52.68 51.83 50.89 49.15 48.89 47.58 46.43 45.52 44.88 44.29 44.11 44.12 42.50 41.04 39.86 39.04 38.60 38.95 37.17 33.39 34.97 33.95 33.37 33.09 33.45 34.38 33.97 34.54 36.54 40.13 40.09 39.93 40.77 41.65 41.33 40.67 40.67 40.41 40.16
57.66 54.10 53.17 53.10 53.04 50.61 49.87 48.73 48.60 46.24 45.02 44.38 44.61 44.43 44.44 43.27 41.40 40.38 39.92 38.90 37.96 36.89 37.17 35.88 35.28 32.64 31.90 32.74 31.43 30.79 32.49 33.10 33.11 36.48 38.15 38.03 38.75 39.48 40.56 40.95 40.51 40.17 40.08
55.93 53.80 51.37 51.62 49.64 49.50 48.21 47.79 45.47 44.19 43.87 43.25 43.54 43.58 42.87 42.74 41.31 40.30 39.33 36.79 34.20 34.73 33.79 31.92 29.14 28.09 27.64 27.58 27.67 29.12 29.85 31.62 32.89 33.22 33.52 34.00 33.41 34.75 35.62 38.33 40.24 40.41 39.51
53.49 52.28 51.63 50.44 48.28 47.67 41.30 40.98 42.97 43.36 43.29 42.59 41.65 41.72 41.85 41.57 39.00 36.82 36.15 34.91 32.22 28.46 26.16 25.59 25.45 24.84 24.84 25.89 26.65 26.55 26.87 26.32 24.65 29.79 29.19 31.11 32.99 32.28 32.39 33.22 36.76 38.32 38.18
49.76 47.94 46.32 47.07 46.19 43.50 39.39 40.22 40.02 42.48 41.81 41.31 40.80 40.49 39.39 37.06 34.92 33.31 32.34 31.10 30.30 30.89 31.45 25.86 23.13 23.52 22.91 23.63 24.73 24.87 25.27 25.03 24.72 27.90 27.66 26.15 29.95 29.51 31.66 31.91 34.41 36.46 35.88
46.12 44.79 44.32 43.87 44.29 41.87 38.68 38.69 38.04 40.37 39.89 39.20 38.56 37.62 33.50 32.10 30.94 29.32 27.15 26.05 26.00 26.20 25.91 26.02 24.17 24.79 25.04 26.12 26.25 27.52 27.76 27.61 27.97 28.39 28.95 25.46 28.79 28.76 31.71 30.46 34.72 35.85 35.82
43.52 43.66 42.86 43.75 41.82 39.60 37.80 37.35 38.59 38.30 35.35 32.86 32.59 32.00 31.32 29.42 30.73 30.26 26.40 24.84 24.98 26.30 29.08 29.54 28.89 29.16 29.71 30.49 31.14 29.50 26.30 25.53 24.34 25.35 27.68 26.24 27.39 28.75 24.13 23.55 27.39 33.29 34.26
41.46 40.26 38.58 39.29 38.63 38.57 36.80 37.10 36.45 34.25 30.43 29.07 28.83 28.72 29.65 28.30 28.27 27.78 25.29 24.71 24.51 24.67 23.78 24.08 24.22 24.75 25.96 26.90 27.87 26.71 26.12 23.65 24.08 23.27 26.70 25.35 27.75 26.20 26.15 23.51 24.54 27.64 30.88

GFSMA_sfc_wetblb_054.txt.gz
Wetbulb
58.10 57.70 57.16 55.52 54.48 53.71 53.07 50.64 49.59 49.61 49.68 50.66 52.42 54.07 54.62 55.07 55.94 56.70 57.44 60.93 61.41 61.84 61.77 61.80 61.23 60.19 59.01 57.81 56.98 56.56 55.31 54.69 54.02 53.47 52.78 53.03 52.09 51.57 51.12 50.86 50.67 50.49 50.60
57.28 56.93 55.67 54.36 53.05 53.35 52.68 50.70 49.37 47.08 46.23 47.49 48.95 50.97 52.21 53.44 53.70 54.38 55.33 57.41 60.11 61.06 61.65 61.51 61.39 60.64 60.01 58.62 56.61 55.74 54.98 53.80 53.46 52.88 52.46 52.36 50.88 50.20 49.74 49.62 49.66 49.76 49.74
55.99 55.98 54.54 53.89 53.15 52.94 52.60 50.75 49.42 46.83 45.31 46.18 46.52 48.34 49.19 48.75 49.37 50.29 51.77 53.13 55.18 58.52 60.26 61.87 61.50 61.18 59.82 58.38 57.32 56.06 54.24 53.92 52.73 52.35 52.85 51.17 50.01 49.13 48.72 48.57 48.54 48.40 48.32
56.53 55.37 54.10 54.12 53.90 53.57 53.17 51.34 49.87 47.72 45.42 44.99 44.55 45.31 46.30 47.31 47.75 48.01 49.27 50.79 51.80 53.04 56.86 59.96 61.31 61.44 60.31 58.97 57.52 56.83 55.23 53.68 52.60 52.02 52.26 50.84 49.31 48.62 48.08 47.48 47.09 46.97 47.53
57.11 55.92 55.34 54.92 54.98 53.94 53.41 52.31 49.86 49.16 45.88 44.46 44.68 44.13 44.66 45.08 46.01 48.45 48.20 49.83 50.24 51.69 52.65 56.82 59.76 60.15 60.74 59.97 58.43 57.57 56.57 54.73 53.08 52.28 51.96 50.61 49.19 48.55 47.42 46.06 45.88 46.42 47.01
58.06 57.20 56.45 56.08 55.27 54.19 53.01 51.51 49.60 48.56 47.65 45.73 46.44 44.82 43.63 43.94 43.91 44.70 47.53 49.72 49.50 50.60 52.05 54.62 57.06 57.02 58.58 60.29 59.30 58.21 57.53 56.54 54.69 53.24 52.25 51.00 49.13 48.49 46.82 45.71 45.41 45.94 46.11
59.61 57.99 57.85 57.04 56.06 54.38 54.17 51.98 49.86 48.09 46.47 46.05 44.65 44.64 44.54 43.77 43.75 43.26 44.92 47.76 48.72 49.30 50.43 52.36 52.80 52.67 54.40 58.58 59.15 57.65 57.20 56.51 55.93 54.24 52.53 51.69 49.92 48.99 47.17 46.07 45.67 45.33 45.33
58.59 58.82 57.60 56.80 55.21 54.27 53.04 51.26 49.53 46.77 46.80 45.57 44.01 43.49 42.34 44.34 44.47 44.86 43.12 45.16 45.48 47.15 48.26 49.62 50.01 49.83 49.85 51.39 53.25 57.25 55.84 55.72 55.70 54.64 52.88 52.11 50.52 49.70 48.40 47.39 46.73 45.79 45.54
56.81 57.67 57.66 56.72 55.49 54.15 52.77 51.56 49.91 48.13 46.04 45.52 46.20 46.53 41.35 41.28 42.48 43.40 43.18 42.59 43.57 43.89 46.59 48.02 47.92 48.09 47.86 47.86 51.07 53.41 54.97 54.89 54.96 54.04 53.35 52.51 51.41 50.58 49.63 48.58 47.87 46.97 46.31
56.42 56.53 57.47 57.20 56.20 55.17 53.47 52.84 51.91 49.52 48.55 46.92 47.60 47.80 46.67 45.10 42.34 41.82 42.19 44.49 44.09 44.01 43.71 45.28 47.06 47.62 47.33 46.55 47.32 48.61 49.24 51.30 52.79 53.35 53.02 53.10 52.45 51.54 50.61 49.70 48.96 48.05 47.28
55.83 56.48 55.29 55.37 55.81 55.34 54.87 53.92 52.77 50.44 50.98 49.88 48.99 47.41 46.61 45.13 43.69 43.54 42.78 42.79 42.17 43.69 43.63 43.38 44.87 44.93 44.90 44.81 44.51 45.07 48.14 48.53 49.70 52.06 52.62 52.37 52.70 52.32 51.69 50.97 50.14 49.36 48.36
52.92 54.93 55.57 55.33 55.71 55.09 54.45 53.53 52.68 52.01 51.84 51.22 50.95 50.03 46.88 45.78 43.98 43.33 42.66 42.35 41.70 42.97 43.97 44.25 43.10 43.17 43.09 42.82 43.95 45.95 46.20 46.35 47.77 49.69 51.63 52.25 52.18 51.70 51.78 51.65 51.04 50.33 49.56
52.29 53.32 53.79 54.01 54.29 54.99 54.95 54.91 54.21 53.88 52.84 51.98 51.51 50.57 50.14 48.54 47.71 45.47 43.74 42.49 42.08 41.92 40.88 41.92 42.72 43.76 43.77 42.91 42.87 45.53 46.53 45.54 45.82 47.28 48.92 50.42 51.24 51.57 51.53 50.93 50.68 50.42 49.74
52.92 53.35 54.50 55.23 54.79 55.47 55.33 56.24 55.90 55.01 54.02 53.12 52.06 51.41 49.96 48.58 47.42 45.37 44.39 42.18 38.35 38.04 38.26 40.43 41.27 42.15 42.52 41.90 42.31 44.00 43.36 44.41 44.90 45.56 46.51 47.59 48.87 49.55 49.83 49.94 49.99 49.61 49.39
53.99 53.23 54.73 56.28 56.72 56.78 56.56 56.58 56.44 55.64 53.70 52.97 52.06 50.29 49.20 48.30 47.19 45.55 43.39 42.99 41.88 37.62 37.19 39.88 40.63 41.26 41.33 40.96 40.32 41.25 40.16 41.20 43.25 43.77 44.48 45.54 46.83 47.76 48.23 48.52 48.88 48.44 48.54
53.27 53.21 53.42 54.95 56.22 57.09 57.30 57.02 56.06 54.20 51.68 50.57 50.56 49.23 47.70 46.33 45.43 43.27 43.50 43.44 43.09 40.93 38.92 41.52 39.48 39.61 40.11 39.44 40.24 40.48 38.67 41.81 42.51 42.77 42.77 43.68 44.62 45.54 46.14 46.77 47.18 47.48 47.73
54.54 54.38 54.48 54.91 55.59 55.25 55.30 54.22 54.45 52.55 51.51 49.87 49.41 48.48 46.88 45.25 44.35 44.64 44.59 43.81 42.70 41.90 39.17 40.56 40.22 39.68 38.47 38.13 38.07 38.25 38.33 37.60 38.44 41.12 41.84 42.36 42.80 43.15 43.45 43.92 44.40 45.28 45.53
56.40 56.64 56.48 56.08 55.77 54.67 53.79 53.12 51.94 50.68 50.21 48.31 47.44 46.68 45.30 45.13 44.43 44.20 43.73 42.38 41.78 41.13 38.97 36.15 37.33 36.92 36.17 37.10 36.63 35.44 37.33 38.77 37.76 39.22 40.41 41.05 41.34 41.49 41.88 41.88 42.03 42.43 42.78
56.55 56.65 56.92 56.02 55.87 55.06 53.30 52.75 52.90 51.20 49.95 48.31 46.76 46.14 44.84 44.64 43.42 43.11 42.13 40.32 39.55 39.50 38.10 35.93 35.74 37.01 35.26 34.93 34.95 35.27 35.60 36.25 37.03 39.58 40.04 39.96 40.29 40.60 40.71 40.81 41.37 41.70 41.63
56.58 57.23 56.04 56.46 55.63 54.91 53.79 52.69 51.56 50.16 48.50 46.99 47.06 46.21 45.04 44.67 43.56 41.71 40.45 39.63 38.55 37.29 36.88 35.92 34.82 34.75 32.96 33.68 32.22 31.31 30.66 33.05 31.84 34.08 36.22 37.06 37.80 38.80 39.31 39.42 39.64 40.41 40.89
57.01 57.31 57.15 56.38 54.83 53.57 51.88 50.98 49.93 48.58 46.92 45.84 45.24 44.84 44.96 44.14 41.87 41.18 40.34 37.96 36.73 35.12 34.09 32.67 30.59 29.46 28.34 28.26 27.60 29.18 27.34 27.35 29.03 30.50 30.85 32.56 33.99 34.02 34.07 35.79 36.75 37.87 38.66
57.31 57.53 55.82 54.88 52.05 51.15 44.90 43.70 47.02 46.52 45.57 45.01 42.93 42.76 42.52 41.52 39.46 38.38 37.44 35.97 35.18 32.10 30.00 28.02 27.24 25.51 24.62 25.76 26.81 25.63 25.41 24.87 23.75 29.72 28.39 28.33 31.06 30.34 31.48 32.51 34.38 35.85 36.44
56.84 53.78 52.55 51.75 51.09 50.69 43.96 41.28 41.56 44.41 43.78 43.12 41.92 41.33 40.33 37.59 35.72 34.00 33.14 32.39 31.06 31.52 30.59 26.71 23.65 24.14 23.85 25.20 25.00 24.55 24.97 24.84 24.74 27.90 28.29 26.02 30.02 28.61 31.08 32.10 34.01 35.27 35.97
51.47 50.08 47.42 48.47 46.15 42.46 40.12 39.36 39.51 42.07 41.20 40.92 40.67 38.29 35.00 32.37 32.14 31.06 29.37 27.99 26.79 26.75 26.73 26.79 25.66 25.89 26.44 26.95 26.71 28.08 27.28 27.42 27.70 28.37 29.91 24.56 28.72 27.91 30.54 31.97 33.85 34.96 36.11
46.32 45.41 44.40 43.88 43.16 39.74 38.46 38.25 39.22 38.52 36.03 34.07 33.84 33.62 32.19 30.91 31.70 31.29 27.53 26.12 25.42 26.55 29.09 28.47 27.61 27.57 27.55 27.42 27.99 26.57 24.27 23.30 21.24 22.92 26.86 25.68 26.48 27.27 29.49 30.37 32.38 32.46 34.30
42.30 40.90 39.95 41.12 38.95 38.00 37.28 37.44 36.90 34.28 31.29 29.73 29.68 30.27 30.75 29.40 29.28 28.47 26.51 25.45 25.12 24.72 23.97 23.81 23.81 24.15 24.60 25.10 25.73 24.47 22.79 19.52 19.48 19.39 26.48 23.20 24.11 25.12 25.34 29.24 27.84 29.47 31.13

GFSMA_sfc_wetblb_057.txt.gz
Wetbulb
60.69 60.96 60.19 59.59 58.81 59.18 59.74 58.99 59.93 60.11 59.96 60.15 60.37 60.05 60.08 60.78 61.32 61.22 61.60 61.32 61.70 62.34 62.22 62.20 60.95 59.71 58.58 57.93 57.27 56.59 56.01 55.42 54.68 54.25 54.09 53.25 52.52 51.93 51.48 51.23 50.99 50.86 50.78
60.90 59.96 59.46 58.89 58.83 57.88 57.66 58.52 58.51 59.36 59.42 59.35 59.44 59.76 59.85 60.29 61.11 61.51 61.56 61.75 60.67 61.73 62.30 61.98 61.75 60.97 59.89 58.55 57.70 56.62 55.34 54.67 54.42 53.66 53.93 52.54 51.77 50.86 50.32 50.11 49.60 49.33 49.35
60.95 60.74 59.08 58.43 58.84 58.46 57.57 55.86 56.60 57.33 57.12 57.52 57.96 58.26 58.85 59.28 59.67 60.46 60.97 61.24 60.83 59.68 61.06 62.54 62.00 61.28 60.92 59.37 57.84 56.65 55.36 54.26 53.86 53.10 53.51 51.88 50.79 49.91 49.36 48.78 48.17 48.00 48.11
61.29 60.64 58.82 58.68 59.26 58.28 57.22 55.58 54.23 53.47 53.91 54.67 54.93 55.61 56.23 56.28 56.76 57.21 58.66 59.60 60.31 60.32 59.21 60.70 61.81 61.95 60.64 59.87 58.54 57.49 55.50 54.88 53.44 52.79 53.24 51.61 50.10 49.33 48.68 47.48 46.90 46.80 47.30
59.91 60.22 59.62 59.61 59.23 58.67 57.47 56.40 54.77 54.11 52.28 52.36 53.12 54.13 54.16 54.01 54.09 53.87 54.47 55.33 57.02 58.33 59.40 58.87 59.98 60.43 61.04 60.24 58.90 58.35 57.78 56.01 54.24 53.39 52.81 52.02 50.13 49.55 48.58 47.16 46.44 46.38 46.74
60.35 60.63 59.84 59.63 59.07 58.85 57.62 56.83 55.71 55.23 53.52 52.36 49.86 49.87 51.15 51.89 51.87 52.87 53.76 54.31 55.30 56.19 56.35 57.62 60.08 60.42 59.34 60.74 59.91 59.08 58.54 57.91 56.36 54.58 53.53 52.99 51.37 50.34 49.62 47.91 47.01 46.63 46.27
59.95 59.90 60.20 59.47 59.06 58.34 58.28 58.00 56.56 54.94 53.09 52.55 50.97 50.57 50.98 51.34 51.71 52.05 53.12 54.51 54.85 55.19 55.86 56.52 57.79 59.35 59.98 59.83 60.72 59.46 58.72 57.70 57.40 56.72 54.80 53.57 52.69 51.14 50.40 48.89 48.08 47.38 46.88
60.21 60.64 60.19 60.11 59.31 59.03 58.72 58.20 57.13 55.27 55.10 52.73 52.03 51.75 50.69 51.61 51.78 52.17 52.12 51.44 53.94 53.22 53.13 55.27 56.52 58.17 58.73 58.49 58.79 59.51 58.21 57.20 56.74 56.43 56.47 54.86 53.64 52.60 51.44 50.45 49.15 48.44 47.86
61.06 61.00 61.10 60.93 60.14 59.69 59.25 58.88 57.96 56.38 54.30 52.76 53.79 54.69 50.02 50.26 52.00 52.20 51.58 50.88 49.85 51.24 51.32 52.23 54.37 53.43 55.74 57.47 56.88 57.20 56.06 55.80 56.23 55.33 55.68 55.21 54.17 53.62 52.42 51.69 50.57 49.81 48.99
58.70 60.38 59.93 59.82 59.25 59.14 59.06 58.86 58.27 57.24 56.33 54.68 52.48 52.56 53.62 53.46 50.26 49.54 47.31 51.74 51.04 47.65 52.03 51.94 52.99 53.76 52.83 55.50 54.58 52.61 50.67 50.83 53.19 55.20 54.77 54.29 54.42 54.41 53.63 52.80 51.98 51.03 50.50
58.04 58.00 58.15 58.78 60.09 59.92 60.30 59.22 58.06 56.77 56.82 56.18 54.59 53.40 51.97 48.36 49.39 50.60 49.03 47.82 48.56 47.61 52.23 52.36 51.37 51.29 52.56 51.52 52.42 50.02 48.98 48.92 49.75 51.78 53.64 54.20 53.91 53.73 53.77 53.62 53.08 52.34 51.79
56.01 56.60 56.31 56.68 59.01 60.48 60.59 60.59 60.18 58.63 57.52 57.02 56.45 53.37 50.14 47.90 47.75 48.01 48.39 49.91 50.57 50.77 52.28 51.78 51.00 49.61 47.23 46.86 47.80 48.08 47.20 46.72 47.24 48.78 49.98 51.24 52.40 53.28 53.11 52.98 53.08 53.02 52.93
54.66 56.02 57.77 57.65 59.38 59.96 59.78 60.28 59.85 59.37 58.94 58.18 57.72 55.52 51.65 50.42 51.43 49.68 48.90 47.64 50.06 49.89 49.55 49.00 50.02 48.21 45.74 46.88 45.37 46.70 47.07 45.61 46.17 46.87 47.63 48.59 49.63 50.45 51.36 51.83 52.21 52.29 52.17
56.31 58.62 57.68 58.36 58.57 59.15 59.54 59.89 60.22 59.87 59.56 58.96 57.99 55.35 53.64 53.68 54.52 52.08 51.19 46.43 42.71 43.35 46.93 44.05 44.49 48.34 47.86 49.52 48.35 45.15 45.96 44.49 44.49 44.95 45.91 46.89 47.28 47.88 49.01 50.08 50.94 51.59 51.70
57.24 57.29 57.63 58.51 59.14 59.17 59.49 59.75 59.90 59.53 59.00 58.41 56.34 56.00 54.57 54.75 53.92 51.61 52.28 50.79 49.95 44.77 40.31 43.55 45.64 46.76 47.54 47.83 46.14 45.01 46.47 45.79 42.85 42.97 43.52 44.50 45.28 46.08 46.82 47.48 48.43 49.60 49.96
57.59 57.55 57.52 58.48 58.85 59.02 59.26 59.30 59.94 59.57 57.79 57.43 56.52 55.07 54.72 54.25 52.36 50.74 49.89 50.82 49.06 48.30 46.39 46.74 43.83 43.65 43.82 43.72 45.40 47.37 47.15 42.02 42.99 42.03 42.01 42.78 43.48 44.29 44.88 45.61 46.01 46.68 47.32
57.62 57.00 57.12 57.45 57.68 58.57 59.54 59.64 59.62 58.19 56.58 56.20 57.31 56.16 56.79 55.21 51.33 48.71 48.34 49.02 45.68 46.95 45.68 42.03 42.39 42.34 45.23 43.06 45.34 45.42 45.33 45.33 45.13 41.52 41.08 41.64 41.85 42.18 42.43 42.92 43.36 43.75 44.34
58.05 57.83 58.23 57.80 58.11 58.71 58.33 58.55 57.44 56.97 55.85 54.65 54.95 53.70 54.17 51.59 51.15 49.43 45.89 46.03 45.26 46.94 41.73 41.46 42.51 39.92 40.72 41.71 41.98 43.50 43.35 42.82 43.56 41.46 40.61 40.62 40.70 40.65 40.73 40.75 40.96 41.19 41.58
56.50 58.15 58.57 58.61 57.86 57.76 56.74 55.31 56.25 55.75 54.83 54.25 53.38 51.95 52.28 50.02 47.76 47.80 45.72 46.55 45.14 41.30 41.95 38.60 38.15 39.44 39.08 39.06 40.70 41.65 41.28 40.93 39.59 38.51 37.20 37.31 38.27 39.14 38.59 38.50 38.99 39.53 39.78
55.87 57.26 57.76 58.42 59.02 58.59 57.23 55.62 54.65 54.67 54.27 52.71 52.20 52.09 51.08 48.35 46.90 45.73 44.97 42.68 40.53 42.02 38.09 39.74 37.55 36.59 38.29 40.63 39.65 37.57 36.29 36.93 35.30 35.76 36.24 35.49 35.74 36.37 37.29 37.75 37.50 37.44 37.46
56.00 57.19 57.66 57.36 58.18 58.29 57.62 57.51 55.45 54.18 52.71 51.04 50.44 49.39 49.53 46.93 44.32 44.40 42.97 40.88 39.84 38.22 36.79 36.93 34.66 34.67 36.43 36.69 35.25 35.56 32.47 33.46 34.31 34.94 35.11 35.95 35.98 35.72 35.85 35.73 36.17 36.39 36.23
57.53 57.81 58.05 57.36 57.34 56.90 49.07 45.81 50.90 53.38 52.62 50.86 47.22 46.74 44.92 43.71 40.90 39.41 39.32 38.64 39.68 37.04 34.43 33.24 33.18 34.18 34.87 33.66 33.28 31.98 31.02 29.95 29.45 35.95 33.25 32.64 34.62 33.17 34.88 35.75 34.89 34.83 35.23
58.08 58.08 57.76 57.55 56.93 57.45 44.90 44.54 44.17 51.66 49.36 47.65 44.61 43.69 42.17 40.15 37.89 36.12 34.63 33.89 32.86 32.09 32.84 33.09 32.67 31.21 31.66 31.99 31.41 30.20 30.24 29.92 29.83 32.89 31.77 29.71 33.61 32.45 34.65 34.61 34.48 34.85 34.96
57.83 56.92 56.31 56.21 55.25 52.83 43.45 43.63 41.64 45.93 44.25 43.35 42.73 41.29 38.12 35.82 34.43 33.18 30.97 29.03 28.63 28.45 28.46 28.54 30.89 32.20 32.62 32.60 31.02 30.49 30.14 30.42 31.10 30.97 31.21 27.20 32.15 30.75 33.79 35.10 34.47 34.56 35.21
50.66 48.38 47.44 47.13 46.17 42.42 41.03 39.40 41.38 40.89 38.59 37.31 37.49 37.18 35.00 32.83 32.99 33.25 30.33 27.98 27.27 28.05 30.06 28.99 28.06 27.15 26.69 26.55 27.79 29.18 27.27 25.99 25.51 27.39 29.79 28.21 29.94 29.90 31.04 32.20 36.04 34.58 33.24
43.44 42.83 41.27 41.56 39.36 39.46 37.69 38.15 38.55 36.26 33.52 32.41 31.62 31.84 32.68 32.17 31.76 31.41 29.64 28.17 26.62 27.62 27.17 26.85 27.96 26.81 26.14 26.77 25.21 27.48 26.73 23.60 24.37 23.86 30.07 26.30 27.02 28.05 26.27 31.98 34.92 35.51 36.12

GFSMA_sfc_wetblb_060.txt.gz
Wetbulb
62.64 63.06 64.12 64.77 64.92 65.22 64.92 63.98 63.98 63.55 62.55 61.77 61.79 61.72 61.92 62.57 63.00 62.68 62.64 61.60 62.26 62.47 61.94 61.37 60.44 59.76 58.97 58.31 57.34 56.88 56.23 55.86 55.43 55.42 54.18 53.36 52.56 52.16 51.88 51.72 51.43 51.25 50.88
62.53 62.10 62.36 62.14 63.00 64.22 64.64 63.72 62.96 62.31 61.89 61.57 61.24 61.35 61.33 62.10 62.61 63.09 62.48 62.35 61.20 62.19 62.80 62.10 61.33 60.48 60.04 59.00 57.88 56.92 56.42 55.97 55.13 55.40 53.96 52.56 51.73 51.24 50.92 50.44 50.01 49.99 49.74
62.88 62.83 61.24 61.42 61.95 62.83 62.84 62.62 62.37 62.21 61.43 60.93 60.70 61.05 61.13 61.69 61.87 62.25 62.50 62.42 61.59 60.65 61.76 62.58 62.26 61.25 60.66 59.84 58.63 57.40 56.02 55.43 55.11 54.61 54.35 52.51 51.31 50.63 49.96 49.22 48.59 48.42 48.40
61.49 61.50 60.46 61.08 61.31 61.36 61.24 61.11 60.96 60.50 59.93 59.65 59.66 59.74 60.12 60.52 60.74 61.22 61.60 61.80 61.68 61.26 60.54 61.59 62.08 62.16 61.21 60.07 59.12 58.04 56.78 55.47 54.96 54.48 54.75 52.95 51.41 50.47 49.54 48.37 47.42 47.06 47.35
61.32 60.97 60.35 61.65 61.98 60.78 60.27 60.07 59.55 59.21 57.77 57.70 57.91 58.22 58.90 58.57 59.16 58.39 58.87 60.02 60.61 60.78 61.02 60.10 60.76 61.05 61.31 61.03 60.24 59.17 58.20 56.87 55.65 55.02 54.85 53.70 51.99 50.98 50.09 48.50 47.44 47.21 47.29
62.19 61.51 60.72 61.73 62.14 61.04 60.71 60.37 59.44 58.71 57.92 57.09 55.00 55.88 57.13 57.14 57.70 57.34 57.15 57.36 58.16 59.13 60.04 60.54 60.81 60.84 59.87 60.79 60.77 59.96 59.78 59.15 57.34 56.17 55.19 54.61 53.28 51.88 51.02 49.76 48.71 48.02 47.78
62.45 62.28 61.81 62.05 62.42 61.68 61.49 61.18 59.91 58.86 57.52 57.59 54.82 54.45 54.79 56.35 56.11 55.86 56.96 57.32 57.86 58.16 58.55 58.52 58.81 60.39 60.87 60.38 61.01 60.42 60.23 59.93 59.38 58.06 56.34 55.16 54.53 53.07 52.11 51.21 49.97 49.11 48.83
62.16 61.68 61.42 61.49 61.59 61.67 61.77 61.14 60.22 59.20 58.65 57.40 56.05 56.74 53.50 54.33 55.22 55.99 56.42 56.45 57.50 57.80 57.82 58.02 57.45 57.99 59.39 60.68 59.32 60.36 60.28 59.81 58.89 58.48 58.21 56.82 55.30 54.51 53.25 52.46 51.78 50.63 49.81
63.04 61.75 61.15 62.38 62.06 61.70 61.13 61.39 60.96 59.85 58.02 58.53 58.94 58.13 55.25 53.72 57.56 57.62 56.43 56.47 56.09 56.76 57.39 57.13 55.27 57.65 58.77 59.12 58.45 58.68 57.98 58.04 58.98 57.45 57.09 58.04 57.03 55.80 54.77 54.22 53.14 52.47 51.46
62.14 61.96 60.99 62.50 62.59 62.39 61.39 62.10 61.92 60.81 60.84 58.65 58.21 58.17 59.74 58.57 55.05 53.43 56.51 55.19 55.98 51.93 55.01 54.54 56.02 57.27 57.74 58.12 56.79 54.71 54.02 54.14 55.17 56.67 56.18 55.27 55.04 55.25 56.12 55.13 54.70 53.91 53.31
61.39 61.43 61.27 62.67 62.70 62.67 62.42 62.42 61.51 60.23 60.74 59.87 59.11 58.79 57.53 57.64 56.02 53.06 50.72 53.41 52.85 54.07 54.86 55.07 56.52 57.19 57.41 57.35 57.09 55.70 51.16 49.70 50.48 52.12 53.99 54.52 54.93 54.80 54.47 55.19 55.15 54.73 54.36
60.25 61.06 61.49 62.56 62.62 61.53 60.27 58.27 60.59 61.67 61.60 60.92 60.91 60.15 58.64 56.38 55.39 53.44 49.07 50.10 51.66 53.63 52.94 56.24 57.13 57.28 56.60 56.61 55.35 51.44 49.23 47.95 48.26 49.49 50.41 50.92 51.41 52.17 52.76 53.59 54.34 54.32 54.28
59.10 59.23 60.44 61.43 60.57 60.19 59.56 59.04 60.74 62.36 62.44 61.26 61.04 60.15 59.95 59.05 59.34 55.74 50.97 49.58 51.15 51.39 55.16 56.20 55.42 55.41 55.92 56.04 53.21 48.99 48.46 46.15 46.22 47.07 47.54 48.39 48.99 49.58 50.02 50.85 51.73 52.57 52.90
58.63 58.22 57.60 60.52 60.53 59.14 59.62 62.08 61.30 61.00 61.53 61.51 61.39 61.47 61.04 60.95 60.34 57.36 54.28 49.44 47.13 50.28 53.37 53.55 55.22 54.66 55.43 54.22 52.24 47.05 51.14 45.52 45.15 45.09 45.66 46.11 46.89 47.37 47.75 48.18 48.78 49.08 49.67
57.45 56.97 57.33 58.36 60.20 60.70 60.57 60.99 61.29 60.73 61.63 61.75 61.42 61.68 61.42 61.42 59.99 58.24 54.87 53.32 50.30 47.59 50.04 53.52 51.84 53.10 51.24 53.85 50.38 49.75 51.65 46.88 44.73 43.21 43.24 44.18 45.13 45.65 46.05 46.42 46.86 47.24 47.77
60.90 59.68 58.90 59.09 59.71 60.11 60.38 60.38 60.93 61.36 61.34 61.92 61.55 60.86 61.12 60.88 60.35 58.35 56.02 52.54 52.02 51.70 48.66 55.34 51.64 50.53 50.40 48.30 43.99 47.44 51.37 44.30 43.85 42.88 42.47 42.48 43.14 43.65 43.81 43.93 44.08 44.39 44.74
61.36 60.75 60.52 60.08 59.62 59.91 60.74 60.91 60.83 60.69 60.47 61.34 61.89 61.59 59.79 57.57 56.51 55.11 54.08 53.40 51.80 51.26 49.26 52.13 49.12 49.97 43.74 45.08 46.13 47.07 49.81 48.52 50.17 43.10 41.79 41.53 41.22 41.49 41.89 42.09 42.05 42.20 41.93
61.82 61.49 61.05 60.89 60.49 60.71 61.57 61.04 60.93 60.06 60.38 60.61 60.81 59.67 58.39 55.82 55.94 54.53 51.92 50.20 51.06 52.32 50.05 47.66 43.30 48.38 46.07 44.47 44.74 47.02 47.14 46.44 48.06 44.06 41.17 40.60 40.39 40.12 39.98 39.97 40.68 40.49 39.76
60.72 60.47 60.68 60.76 60.66 60.78 60.75 60.69 60.25 60.32 60.67 58.84 57.79 57.68 56.33 54.90 53.07 52.15 50.23 50.52 50.04 47.47 48.64 44.21 45.75 40.95 42.29 43.76 41.93 44.25 44.26 47.16 45.86 42.71 38.26 37.91 37.87 38.33 39.01 38.44 38.49 38.70 38.93
59.07 59.12 60.28 60.16 59.95 60.51 59.83 60.19 59.68 59.91 58.53 56.89 55.69 55.56 56.21 54.47 53.44 52.16 50.44 49.73 46.62 43.79 45.01 41.77 40.20 40.24 39.51 41.94 41.84 40.91 43.27 44.49 41.91 40.46 39.42 37.25 36.98 37.79 37.57 37.81 37.91 37.84 37.33
59.18 59.18 59.37 59.85 60.28 59.10 59.45 60.42 59.19 59.09 56.96 56.10 57.03 55.29 54.65 53.01 49.66 50.66 48.16 46.65 44.83 41.82 41.29 39.43 37.45 37.77 36.38 37.72 36.97 40.32 40.12 40.15 39.58 39.88 39.02 39.96 39.68 39.40 39.00 38.47 38.14 37.67 37.41
58.42 58.63 58.84 58.81 59.34 59.11 50.48 46.69 53.38 60.05 57.62 56.30 55.48 53.92 54.34 47.24 46.47 42.39 42.35 41.67 43.06 41.68 39.18 37.12 35.51 35.66 36.05 36.91 39.37 37.69 37.23 35.45 33.73 40.13 37.37 37.17 38.29 36.97 38.49 39.44 37.32 35.99 35.79
58.81 58.61 59.32 59.25 59.53 60.55 47.33 45.16 44.98 58.10 56.58 55.72 54.81 52.24 47.77 45.73 43.56 41.41 36.78 34.88 34.24 35.62 37.38 37.04 34.53 35.32 35.54 35.93 36.23 36.04 35.04 34.41 34.13 36.77 36.23 33.88 37.00 36.21 38.87 37.61 36.54 36.08 35.58
58.95 59.21 59.42 59.69 58.22 58.05 46.41 44.79 43.89 53.53 55.11 52.88 50.76 47.35 44.77 41.14 40.03 37.13 35.30 32.28 31.88 32.28 31.92 31.72 34.25 33.91 34.70 35.08 35.37 35.25 34.54 34.25 34.46 34.74 35.55 30.27 35.73 34.61 36.92 37.23 35.74 35.61 35.38
59.05 59.08 59.01 59.19 58.98 57.23 44.07 43.34 43.28 45.20 42.12 39.60 40.48 40.05 39.00 36.13 35.56 35.42 31.23 29.63 28.32 28.75 30.95 30.16 29.40 28.71 28.15 27.64 29.36 33.66 31.14 29.54 29.11 31.51 34.22 31.44 33.37 33.23 33.70 34.17 36.82 36.57 35.48
57.11 48.98 42.70 43.33 40.16 42.98 38.98 40.39 42.84 40.16 35.66 34.17 34.23 35.18 34.84 34.54 33.06 33.25 32.46 31.04 28.07 27.14 27.04 26.76 26.01 26.05 27.93 28.48 26.17 29.73 30.08 27.45 27.69 27.38 33.42 29.72 30.94 30.14 28.88 33.74 34.97 34.85 36.83